Wetterdaten: Donnerstag, 25.05.2017
Datum Zeit Temp. A. Pool Temp. Feuchte A. Luftdruck Regen Wind Richtung Richtung Sonnenschein ET UV Solar Taupunkt Windchill Windben Empfang
25.05.2017 00:00 11,1 C 20,6 C 94 % 1019,9 hPa 0,0 l/m 8,8 km/h (2 Bft) W 259 0 min 0,000 mm 0,0 UV-I 0 W/m 10,2 C 9,5 C 12,9 km/h (3 Bft) 98,00 %
25.05.2017 00:02 11,1 C 20,6 C 94 % 1020,0 hPa 0,0 l/m 7,4 km/h (2 Bft) W-SW 243 0 min 0,000 mm 0,0 UV-I 0 W/m 10,2 C 10,4 C 12,9 km/h (3 Bft) 100,00 %
25.05.2017 00:04 11,1 C 20,6 C 94 % 1020,0 hPa 0,0 l/m 6,4 km/h (2 Bft) W-SW 244 0 min 0,000 mm 0,0 UV-I 0 W/m 10,2 C 11,1 C 8,0 km/h (2 Bft) 97,56 %
25.05.2017 00:06 11,1 C 20,6 C 94 % 1020,0 hPa 0,0 l/m 6,0 km/h (2 Bft) SW 232 0 min 0,000 mm 0,0 UV-I 0 W/m 10,2 C 11,1 C 11,3 km/h (2 Bft) 100,00 %
25.05.2017 00:08 11,1 C 20,6 C 94 % 1020,0 hPa 0,0 l/m 7,5 km/h (2 Bft) W-SW 249 0 min 0,000 mm 0,0 UV-I 0 W/m 10,2 C 10,3 C 12,9 km/h (3 Bft) 94,34 %
25.05.2017 00:10 11,1 C 20,6 C 94 % 1020,0 hPa 0,0 l/m 7,6 km/h (2 Bft) W-SW 240 0 min 0,000 mm 0,0 UV-I 0 W/m 10,2 C 10,3 C 11,3 km/h (2 Bft) 100,00 %
25.05.2017 00:12 11,1 C 20,6 C 94 % 1020,0 hPa 0,0 l/m 7,6 km/h (2 Bft) S-SW 197 0 min 0,000 mm 0,0 UV-I 0 W/m 10,2 C 10,3 C 11,3 km/h (2 Bft) 96,23 %
25.05.2017 00:14 11,1 C 20,6 C 94 % 1019,9 hPa 0,0 l/m 8,8 km/h (2 Bft) W-SW 241 0 min 0,000 mm 0,0 UV-I 0 W/m 10,2 C 9,5 C 12,9 km/h (3 Bft) 94,00 %
25.05.2017 00:16 11,1 C 20,6 C 94 % 1020,0 hPa 0,0 l/m 7,3 km/h (2 Bft) S-SW 211 0 min 0,000 mm 0,0 UV-I 0 W/m 10,2 C 10,5 C 12,9 km/h (3 Bft) 100,00 %
25.05.2017 00:18 11,1 C 20,6 C 94 % 1020,0 hPa 0,0 l/m 6,9 km/h (2 Bft) S-SW 213 0 min 0,000 mm 0,0 UV-I 0 W/m 10,2 C 10,8 C 12,9 km/h (3 Bft) 98,11 %
25.05.2017 00:20 11,1 C 20,6 C 94 % 1020,1 hPa 0,0 l/m 8,4 km/h (2 Bft) W-SW 239 0 min 0,000 mm 0,0 UV-I 0 W/m 10,2 C 9,8 C 11,3 km/h (2 Bft) 97,62 %
25.05.2017 00:22 11,1 C 20,6 C 94 % 1020,1 hPa 0,0 l/m 8,3 km/h (2 Bft) SW 225 0 min 0,000 mm 0,0 UV-I 0 W/m 10,2 C 9,8 C 14,5 km/h (3 Bft) 100,00 %
25.05.2017 00:24 11,1 C 20,6 C 94 % 1020,1 hPa 0,0 l/m 8,1 km/h (2 Bft) W-SW 238 0 min 0,000 mm 0,0 UV-I 0 W/m 10,2 C 9,9 C 14,5 km/h (3 Bft) 100,00 %
25.05.2017 00:26 11,1 C 20,6 C 94 % 1020,1 hPa 0,0 l/m 8,9 km/h (2 Bft) W-SW 244 0 min 0,000 mm 0,0 UV-I 0 W/m 10,2 C 9,4 C 12,9 km/h (3 Bft) 100,00 %
25.05.2017 00:28 11,1 C 20,6 C 94 % 1020,2 hPa 0,0 l/m 7,7 km/h (2 Bft) SW 216 0 min 0,000 mm 0,0 UV-I 0 W/m 10,2 C 10,2 C 12,9 km/h (3 Bft) 100,00 %
25.05.2017 00:30 11,0 C 20,6 C 94 % 1020,1 hPa 0,0 l/m 7,0 km/h (2 Bft) SW 220 0 min 0,000 mm 0,0 UV-I 0 W/m 10,1 C 10,6 C 11,3 km/h (2 Bft) 96,00 %
25.05.2017 00:32 11,0 C 20,6 C 95 % 1020,1 hPa 0,0 l/m 9,0 km/h (2 Bft) S-SW 200 0 min 0,000 mm 0,0 UV-I 0 W/m 10,2 C 9,3 C 12,9 km/h (3 Bft) 100,00 %
25.05.2017 00:34 10,9 C 20,6 C 94 % 1020,0 hPa 0,0 l/m 8,6 km/h (2 Bft) SW 217 0 min 0,000 mm 0,0 UV-I 0 W/m 10,0 C 9,4 C 11,3 km/h (2 Bft) 93,62 %
25.05.2017 00:36 10,9 C 20,6 C 94 % 1020,0 hPa 0,0 l/m 7,1 km/h (2 Bft) S-SW 211 0 min 0,000 mm 0,0 UV-I 0 W/m 10,0 C 10,4 C 11,3 km/h (2 Bft) 100,00 %
25.05.2017 00:38 10,9 C 20,6 C 94 % 1020,0 hPa 0,0 l/m 7,1 km/h (2 Bft) S 178 0 min 0,000 mm 0,0 UV-I 0 W/m 10,0 C 10,4 C 12,9 km/h (3 Bft) 97,56 %
25.05.2017 00:40 10,9 C 20,6 C 94 % 1020,0 hPa 0,0 l/m 6,8 km/h (2 Bft) S 184 0 min 0,000 mm 0,0 UV-I 0 W/m 10,0 C 10,6 C 11,3 km/h (2 Bft) 98,00 %
25.05.2017 00:42 10,9 C 20,6 C 95 % 1020,0 hPa 0,0 l/m 4,7 km/h (1 Bft) S-SW 213 0 min 0,000 mm 0,0 UV-I 0 W/m 10,1 C 10,9 C 11,3 km/h (2 Bft) 100,00 %
25.05.2017 00:44 10,9 C 20,6 C 94 % 1020,0 hPa 0,0 l/m 6,5 km/h (2 Bft) S-SW 202 0 min 0,000 mm 0,0 UV-I 0 W/m 10,0 C 10,9 C 12,9 km/h (3 Bft) 97,37 %
25.05.2017 00:46 10,9 C 20,6 C 95 % 1020,1 hPa 0,0 l/m 8,2 km/h (2 Bft) SW 223 0 min 0,000 mm 0,0 UV-I 0 W/m 10,1 C 9,7 C 12,9 km/h (3 Bft) 100,00 %
25.05.2017 00:48 10,9 C 20,6 C 95 % 1020,1 hPa 0,0 l/m 6,2 km/h (2 Bft) SW 217 0 min 0,000 mm 0,0 UV-I 0 W/m 10,1 C 10,9 C 8,0 km/h (2 Bft) 97,87 %
25.05.2017 00:50 10,9 C 20,6 C 95 % 1020,1 hPa 0,0 l/m 5,4 km/h (1 Bft) S-SW 208 0 min 0,000 mm 0,0 UV-I 0 W/m 10,1 C 10,9 C 8,0 km/h (2 Bft) 100,00 %
25.05.2017 00:52 10,9 C 20,6 C 95 % 1020,1 hPa 0,0 l/m 4,0 km/h (1 Bft) S-SW 198 0 min 0,000 mm 0,0 UV-I 0 W/m 10,1 C 10,9 C 11,3 km/h (2 Bft) 97,87 %
25.05.2017 00:54 10,9 C 20,6 C 94 % 1020,1 hPa 0,0 l/m 5,0 km/h (1 Bft) SW 217 0 min 0,000 mm 0,0 UV-I 0 W/m 10,0 C 10,9 C 9,7 km/h (2 Bft) 97,73 %
25.05.2017 00:56 10,9 C 20,6 C 94 % 1020,2 hPa 0,0 l/m 4,3 km/h (1 Bft) SW 229 0 min 0,000 mm 0,0 UV-I 0 W/m 10,0 C 10,9 C 6,4 km/h (2 Bft) 100,00 %
25.05.2017 00:58 10,8 C 20,6 C 94 % 1020,1 hPa 0,0 l/m 3,7 km/h (1 Bft) S-SW 212 0 min 0,000 mm 0,0 UV-I 0 W/m 9,9 C 10,8 C 6,4 km/h (2 Bft) 93,18 %
25.05.2017 01:00 10,8 C 20,6 C 94 % 1020,1 hPa 0,0 l/m 4,7 km/h (1 Bft) S-SW 211 0 min 0,000 mm 0,0 UV-I 0 W/m 9,9 C 10,8 C 6,4 km/h (2 Bft) 96,23 %
25.05.2017 01:02 10,8 C 20,6 C 94 % 1020,1 hPa 0,0 l/m 5,1 km/h (1 Bft) S-SW 208 0 min 0,000 mm 0,0 UV-I 0 W/m 9,9 C 10,8 C 8,0 km/h (2 Bft) 100,00 %
25.05.2017 01:04 10,8 C 20,6 C 94 % 1020,1 hPa 0,0 l/m 3,0 km/h (1 Bft) S-SW 208 0 min 0,000 mm 0,0 UV-I 0 W/m 9,9 C 10,8 C 4,8 km/h (1 Bft) 94,44 %
25.05.2017 01:06 10,8 C 20,6 C 94 % 1020,1 hPa 0,0 l/m 4,9 km/h (1 Bft) S-SW 208 0 min 0,000 mm 0,0 UV-I 0 W/m 9,9 C 10,8 C 8,0 km/h (2 Bft) 98,28 %
25.05.2017 01:08 10,9 C 20,6 C 95 % 1020,1 hPa 0,0 l/m 4,3 km/h (1 Bft) S-SW 208 0 min 0,000 mm 0,0 UV-I 0 W/m 10,1 C 10,9 C 6,4 km/h (2 Bft) 100,00 %
25.05.2017 01:10 10,9 C 20,6 C 95 % 1020,1 hPa 0,0 l/m 3,5 km/h (1 Bft) S-SW 208 0 min 0,000 mm 0,0 UV-I 0 W/m 10,1 C 10,9 C 4,8 km/h (1 Bft) 94,74 %
25.05.2017 01:12 10,9 C 20,6 C 95 % 1020,1 hPa 0,0 l/m 4,0 km/h (1 Bft) S-SW 208 0 min 0,000 mm 0,0 UV-I 0 W/m 10,1 C 10,9 C 4,8 km/h (1 Bft) 100,00 %
25.05.2017 01:14 10,9 C 20,6 C 95 % 1020,2 hPa 0,0 l/m 4,0 km/h (1 Bft) S-SW 208 0 min 0,000 mm 0,0 UV-I 0 W/m 10,1 C 10,9 C 6,4 km/h (2 Bft) 98,00 %
25.05.2017 01:16 10,9 C 20,6 C 95 % 1020,2 hPa 0,0 l/m 2,7 km/h (1 Bft) S-SW 208 0 min 0,000 mm 0,0 UV-I 0 W/m 10,1 C 10,9 C 4,8 km/h (1 Bft) 97,87 %
25.05.2017 01:18 10,9 C 20,6 C 95 % 1020,3 hPa 0,0 l/m 3,6 km/h (1 Bft) S-SW 208 0 min 0,000 mm 0,0 UV-I 0 W/m 10,1 C 10,9 C 4,8 km/h (1 Bft) 100,00 %
25.05.2017 01:20 10,9 C 20,6 C 94 % 1020,3 hPa 0,0 l/m 5,4 km/h (1 Bft) S-SW 208 0 min 0,000 mm 0,0 UV-I 0 W/m 10,0 C 10,9 C 8,0 km/h (2 Bft) 97,56 %
25.05.2017 01:22 10,9 C 20,6 C 94 % 1020,3 hPa 0,0 l/m 3,8 km/h (1 Bft) S-SW 205 0 min 0,000 mm 0,0 UV-I 0 W/m 10,0 C 10,9 C 4,8 km/h (1 Bft) 100,00 %
25.05.2017 01:24 10,9 C 20,6 C 95 % 1020,3 hPa 0,0 l/m 3,8 km/h (1 Bft) S-SW 206 0 min 0,000 mm 0,0 UV-I 0 W/m 10,1 C 10,9 C 4,8 km/h (1 Bft) 97,73 %
25.05.2017 01:26 10,9 C 20,6 C 95 % 1020,4 hPa 0,0 l/m 3,4 km/h (1 Bft) S-SW 206 0 min 0,000 mm 0,0 UV-I 0 W/m 10,1 C 10,9 C 4,8 km/h (1 Bft) 100,00 %
25.05.2017 01:28 10,9 C 20,6 C 95 % 1020,4 hPa 0,0 l/m 5,7 km/h (1 Bft) SW 232 0 min 0,000 mm 0,0 UV-I 0 W/m 10,1 C 10,9 C 9,7 km/h (2 Bft) 98,00 %
25.05.2017 01:30 10,9 C 20,6 C 95 % 1020,4 hPa 0,0 l/m 4,4 km/h (1 Bft) SW 231 0 min 0,000 mm 0,0 UV-I 0 W/m 10,1 C 10,9 C 6,4 km/h (2 Bft) 96,00 %
25.05.2017 01:32 10,9 C 20,6 C 94 % 1020,3 hPa 0,0 l/m 4,1 km/h (1 Bft) SW 218 0 min 0,000 mm 0,0 UV-I 0 W/m 10,0 C 10,9 C 6,4 km/h (2 Bft) 97,44 %
25.05.2017 01:34 10,9 C 20,6 C 94 % 1020,3 hPa 0,0 l/m 3,4 km/h (1 Bft) SW 218 0 min 0,000 mm 0,0 UV-I 0 W/m 10,0 C 10,9 C 6,4 km/h (2 Bft) 96,00 %
25.05.2017 01:36 10,9 C 20,6 C 95 % 1020,3 hPa 0,0 l/m 3,0 km/h (1 Bft) SW 218 0 min 0,000 mm 0,0 UV-I 0 W/m 10,1 C 10,9 C 4,8 km/h (1 Bft) 94,34 %
25.05.2017 01:38 11,0 C 20,6 C 95 % 1020,2 hPa 0,0 l/m 3,7 km/h (1 Bft) SW 219 0 min 0,000 mm 0,0 UV-I 0 W/m 10,2 C 11,0 C 6,4 km/h (2 Bft) 97,56 %
25.05.2017 01:40 10,9 C 20,6 C 95 % 1020,2 hPa 0,0 l/m 6,0 km/h (2 Bft) SW 235 0 min 0,000 mm 0,0 UV-I 0 W/m 10,1 C 10,9 C 8,0 km/h (2 Bft) 96,23 %
25.05.2017 01:42 10,9 C 20,6 C 95 % 1020,2 hPa 0,0 l/m 5,2 km/h (1 Bft) SW 225 0 min 0,000 mm 0,0 UV-I 0 W/m 10,1 C 10,9 C 8,0 km/h (2 Bft) 94,87 %
25.05.2017 01:44 10,9 C 20,6 C 95 % 1020,1 hPa 0,0 l/m 3,8 km/h (1 Bft) SW 225 0 min 0,000 mm 0,0 UV-I 0 W/m 10,1 C 10,9 C 4,8 km/h (1 Bft) 94,34 %
25.05.2017 01:46 10,9 C 20,6 C 95 % 1020,1 hPa 0,0 l/m 4,2 km/h (1 Bft) SW 226 0 min 0,000 mm 0,0 UV-I 0 W/m 10,1 C 10,9 C 8,0 km/h (2 Bft) 97,56 %
25.05.2017 01:48 10,9 C 20,6 C 95 % 1020,1 hPa 0,0 l/m 4,3 km/h (1 Bft) SW 227 0 min 0,000 mm 0,0 UV-I 0 W/m 10,1 C 10,9 C 6,4 km/h (2 Bft) 98,00 %
25.05.2017 01:50 10,9 C 20,6 C 95 % 1020,1 hPa 0,0 l/m 5,2 km/h (1 Bft) W-SW 240 0 min 0,000 mm 0,0 UV-I 0 W/m 10,1 C 10,9 C 6,4 km/h (2 Bft) 95,74 %
25.05.2017 01:52 10,9 C 20,6 C 94 % 1020,2 hPa 0,0 l/m 5,0 km/h (1 Bft) W-SW 257 0 min 0,000 mm 0,0 UV-I 0 W/m 10,0 C 10,9 C 6,4 km/h (2 Bft) 91,49 %
25.05.2017 01:54 10,9 C 20,6 C 94 % 1020,1 hPa 0,0 l/m 5,7 km/h (1 Bft) W-SW 240 0 min 0,000 mm 0,0 UV-I 0 W/m 10,0 C 10,9 C 9,7 km/h (2 Bft) 93,62 %
25.05.2017 01:56 10,9 C 20,6 C 94 % 1020,1 hPa 0,0 l/m 5,1 km/h (1 Bft) W 266 0 min 0,000 mm 0,0 UV-I 0 W/m 10,0 C 10,9 C 9,7 km/h (2 Bft) 94,00 %
25.05.2017 01:58 10,8 C 20,6 C 94 % 1020,1 hPa 0,0 l/m 5,6 km/h (1 Bft) W-SW 248 0 min 0,000 mm 0,0 UV-I 0 W/m 9,9 C 10,8 C 11,3 km/h (2 Bft) 95,12 %
25.05.2017 02:00 10,9 C 20,6 C 95 % 1020,2 hPa 0,0 l/m 6,5 km/h (2 Bft) W-SW 254 0 min 0,000 mm 0,0 UV-I 0 W/m 10,1 C 10,9 C 11,3 km/h (2 Bft) 95,74 %
25.05.2017 02:02 10,9 C 20,6 C 94 % 1020,1 hPa 0,0 l/m 5,5 km/h (1 Bft) W-SW 246 0 min 0,000 mm 0,0 UV-I 0 W/m 10,0 C 10,9 C 9,7 km/h (2 Bft) 97,87 %
25.05.2017 02:04 10,9 C 20,6 C 94 % 1020,1 hPa 0,0 l/m 5,3 km/h (1 Bft) W-SW 256 0 min 0,000 mm 0,0 UV-I 0 W/m 10,0 C 10,9 C 8,0 km/h (2 Bft) 96,23 %
25.05.2017 02:06 10,8 C 20,6 C 94 % 1020,1 hPa 0,0 l/m 6,0 km/h (2 Bft) W-SW 244 0 min 0,000 mm 0,0 UV-I 0 W/m 9,9 C 10,8 C 9,7 km/h (2 Bft) 95,45 %
25.05.2017 02:08 10,8 C 20,6 C 94 % 1020,0 hPa 0,0 l/m 4,1 km/h (1 Bft) W-SW 254 0 min 0,000 mm 0,0 UV-I 0 W/m 9,9 C 10,8 C 6,4 km/h (2 Bft) 95,12 %
25.05.2017 02:10 10,8 C 20,6 C 94 % 1020,1 hPa 0,0 l/m 4,5 km/h (1 Bft) SW 232 0 min 0,000 mm 0,0 UV-I 0 W/m 9,9 C 10,8 C 8,0 km/h (2 Bft) 96,23 %
25.05.2017 02:12 10,8 C 20,6 C 94 % 1020,1 hPa 0,0 l/m 5,2 km/h (1 Bft) SW 224 0 min 0,000 mm 0,0 UV-I 0 W/m 9,9 C 10,8 C 8,0 km/h (2 Bft) 93,62 %
25.05.2017 02:14 10,9 C 20,6 C 94 % 1020,2 hPa 0,0 l/m 5,6 km/h (1 Bft) SW 219 0 min 0,000 mm 0,0 UV-I 0 W/m 10,0 C 10,9 C 8,0 km/h (2 Bft) 97,87 %
25.05.2017 02:16 10,9 C 20,6 C 94 % 1020,2 hPa 0,0 l/m 4,2 km/h (1 Bft) W 259 0 min 0,000 mm 0,0 UV-I 0 W/m 10,0 C 10,9 C 6,4 km/h (2 Bft) 96,00 %
25.05.2017 02:18 10,9 C 20,6 C 94 % 1020,3 hPa 0,0 l/m 3,7 km/h (1 Bft) W-SW 242 0 min 0,000 mm 0,0 UV-I 0 W/m 10,0 C 10,9 C 6,4 km/h (2 Bft) 97,22 %
25.05.2017 02:20 10,9 C 20,6 C 94 % 1020,3 hPa 0,0 l/m 5,8 km/h (2 Bft) W-SW 251 0 min 0,000 mm 0,0 UV-I 0 W/m 10,0 C 10,9 C 8,0 km/h (2 Bft) 96,00 %
25.05.2017 02:22 10,9 C 20,6 C 94 % 1020,3 hPa 0,0 l/m 5,3 km/h (1 Bft) W 261 0 min 0,000 mm 0,0 UV-I 0 W/m 10,0 C 10,9 C 9,7 km/h (2 Bft) 96,15 %
25.05.2017 02:24 10,9 C 20,6 C 94 % 1020,3 hPa 0,0 l/m 5,9 km/h (2 Bft) W-SW 250 0 min 0,000 mm 0,0 UV-I 0 W/m 10,0 C 10,9 C 9,7 km/h (2 Bft) 98,00 %
25.05.2017 02:26 10,8 C 20,6 C 94 % 1020,3 hPa 0,0 l/m 6,0 km/h (2 Bft) SW 228 0 min 0,000 mm 0,0 UV-I 0 W/m 9,9 C 10,8 C 9,7 km/h (2 Bft) 95,74 %
25.05.2017 02:28 10,8 C 20,6 C 94 % 1020,3 hPa 0,0 l/m 5,3 km/h (1 Bft) SW 216 0 min 0,000 mm 0,0 UV-I 0 W/m 9,9 C 10,8 C 8,0 km/h (2 Bft) 97,22 %
25.05.2017 02:30 10,8 C 20,6 C 94 % 1020,4 hPa 0,0 l/m 4,3 km/h (1 Bft) SW 223 0 min 0,000 mm 0,0 UV-I 0 W/m 9,9 C 10,8 C 6,4 km/h (2 Bft) 96,00 %
25.05.2017 02:32 10,8 C 20,6 C 94 % 1020,3 hPa 0,0 l/m 3,7 km/h (1 Bft) SW 227 0 min 0,000 mm 0,0 UV-I 0 W/m 9,9 C 10,8 C 6,4 km/h (2 Bft) 97,73 %
25.05.2017 02:34 10,9 C 20,6 C 94 % 1020,4 hPa 0,0 l/m 3,9 km/h (1 Bft) SW 229 0 min 0,000 mm 0,0 UV-I 0 W/m 10,0 C 10,9 C 6,4 km/h (2 Bft) 97,14 %
25.05.2017 02:36 10,9 C 20,6 C 94 % 1020,4 hPa 0,0 l/m 2,8 km/h (1 Bft) SW 229 0 min 0,000 mm 0,0 UV-I 0 W/m 10,0 C 10,9 C 4,8 km/h (1 Bft) 93,85 %
25.05.2017 02:38 10,9 C 20,6 C 94 % 1020,3 hPa 0,0 l/m 2,3 km/h (1 Bft) SW 229 0 min 0,000 mm 0,0 UV-I 0 W/m 10,0 C 10,9 C 4,8 km/h (1 Bft) 96,00 %
25.05.2017 02:40 10,9 C 20,6 C 94 % 1020,4 hPa 0,0 l/m 3,9 km/h (1 Bft) SW 229 0 min 0,000 mm 0,0 UV-I 0 W/m 10,0 C 10,9 C 6,4 km/h (2 Bft) 92,68 %
25.05.2017 02:42 10,9 C 20,6 C 94 % 1020,4 hPa 0,0 l/m 3,4 km/h (1 Bft) SW 229 0 min 0,000 mm 0,0 UV-I 0 W/m 10,0 C 10,9 C 6,4 km/h (2 Bft) 95,74 %
25.05.2017 02:44 10,9 C 20,6 C 94 % 1020,4 hPa 0,0 l/m 5,2 km/h (1 Bft) W-SW 255 0 min 0,000 mm 0,0 UV-I 0 W/m 10,0 C 10,9 C 8,0 km/h (2 Bft) 96,23 %
25.05.2017 02:46 10,9 C 20,6 C 94 % 1020,4 hPa 0,0 l/m 5,3 km/h (1 Bft) W-SW 257 0 min 0,000 mm 0,0 UV-I 0 W/m 10,0 C 10,9 C 9,7 km/h (2 Bft) 95,12 %
25.05.2017 02:48 10,9 C 20,6 C 94 % 1020,4 hPa 0,0 l/m 5,8 km/h (2 Bft) W 264 0 min 0,000 mm 0,0 UV-I 0 W/m 10,0 C 10,9 C 8,0 km/h (2 Bft) 95,74 %
25.05.2017 02:50 10,9 C 20,6 C 94 % 1020,4 hPa 0,0 l/m 6,1 km/h (2 Bft) SW 232 0 min 0,000 mm 0,0 UV-I 0 W/m 10,0 C 10,9 C 9,7 km/h (2 Bft) 100,00 %
25.05.2017 02:52 10,8 C 20,6 C 94 % 1020,4 hPa 0,0 l/m 5,7 km/h (1 Bft) W-SW 255 0 min 0,000 mm 0,0 UV-I 0 W/m 9,9 C 10,8 C 11,3 km/h (2 Bft) 98,00 %
25.05.2017 02:54 10,8 C 20,6 C 94 % 1020,4 hPa 0,0 l/m 5,8 km/h (2 Bft) W-SW 257 0 min 0,000 mm 0,0 UV-I 0 W/m 9,9 C 10,8 C 8,0 km/h (2 Bft) 100,00 %
25.05.2017 02:56 10,8 C 20,0 C 94 % 1020,4 hPa 0,0 l/m 6,3 km/h (2 Bft) W-SW 240 0 min 0,000 mm 0,0 UV-I 0 W/m 9,9 C 10,8 C 9,7 km/h (2 Bft) 98,21 %
25.05.2017 02:58 10,8 C 20,6 C 94 % 1020,3 hPa 0,0 l/m 5,7 km/h (1 Bft) W-SW 242 0 min 0,000 mm 0,0 UV-I 0 W/m 9,9 C 10,8 C 11,3 km/h (2 Bft) 97,22 %
25.05.2017 03:00 10,8 C 20,6 C 94 % 1020,3 hPa 0,0 l/m 5,1 km/h (1 Bft) W-SW 239 0 min 0,000 mm 0,0 UV-I 0 W/m 9,9 C 10,8 C 8,0 km/h (2 Bft) 100,00 %
25.05.2017 03:02 10,8 C 20,6 C 94 % 1020,3 hPa 0,0 l/m 6,1 km/h (2 Bft) W-SW 243 0 min 0,000 mm 0,0 UV-I 0 W/m 9,9 C 10,8 C 11,3 km/h (2 Bft) 100,00 %
25.05.2017 03:04 10,8 C 20,6 C 94 % 1020,4 hPa 0,0 l/m 6,0 km/h (2 Bft) SW 221 0 min 0,000 mm 0,0 UV-I 0 W/m 9,9 C 10,8 C 8,0 km/h (2 Bft) 97,73 %
25.05.2017 03:06 10,8 C 20,0 C 94 % 1020,3 hPa 0,0 l/m 5,1 km/h (1 Bft) SW 217 0 min 0,000 mm 0,0 UV-I 0 W/m 9,9 C 10,8 C 8,0 km/h (2 Bft) 98,21 %
25.05.2017 03:08 10,8 C 20,0 C 94 % 1020,3 hPa 0,0 l/m 5,4 km/h (1 Bft) SW 227 0 min 0,000 mm 0,0 UV-I 0 W/m 9,9 C 10,8 C 8,0 km/h (2 Bft) 100,00 %
25.05.2017 03:10 10,8 C 20,0 C 94 % 1020,3 hPa 0,0 l/m 5,7 km/h (1 Bft) SW 224 0 min 0,000 mm 0,0 UV-I 0 W/m 9,9 C 10,8 C 9,7 km/h (2 Bft) 97,37 %
25.05.2017 03:12 10,8 C 20,0 C 94 % 1020,3 hPa 0,0 l/m 6,2 km/h (2 Bft) W-SW 244 0 min 0,000 mm 0,0 UV-I 0 W/m 9,9 C 10,8 C 11,3 km/h (2 Bft) 98,21 %
25.05.2017 03:14 10,8 C 20,0 C 94 % 1020,3 hPa 0,0 l/m 5,2 km/h (1 Bft) W-SW 246 0 min 0,000 mm 0,0 UV-I 0 W/m 9,9 C 10,8 C 8,0 km/h (2 Bft) 100,00 %
25.05.2017 03:16 10,8 C 20,0 C 94 % 1020,3 hPa 0,0 l/m 4,0 km/h (1 Bft) W-SW 246 0 min 0,000 mm 0,0 UV-I 0 W/m 9,9 C 10,8 C 6,4 km/h (2 Bft) 97,87 %
25.05.2017 03:18 10,8 C 20,0 C 94 % 1020,3 hPa 0,0 l/m 4,9 km/h (1 Bft) SW 218 0 min 0,000 mm 0,0 UV-I 0 W/m 9,9 C 10,8 C 6,4 km/h (2 Bft) 98,21 %
25.05.2017 03:20 10,7 C 20,0 C 94 % 1020,2 hPa 0,0 l/m 5,5 km/h (1 Bft) W-SW 238 0 min 0,000 mm 0,0 UV-I 0 W/m 9,8 C 10,7 C 8,0 km/h (2 Bft) 97,37 %
25.05.2017 03:22 10,7 C 20,0 C 94 % 1020,2 hPa 0,0 l/m 5,0 km/h (1 Bft) W-SW 246 0 min 0,000 mm 0,0 UV-I 0 W/m 9,8 C 10,7 C 6,4 km/h (2 Bft) 100,00 %
25.05.2017 03:24 10,7 C 20,0 C 94 % 1020,2 hPa 0,0 l/m 5,7 km/h (1 Bft) W-SW 256 0 min 0,000 mm 0,0 UV-I 0 W/m 9,8 C 10,7 C 8,0 km/h (2 Bft) 97,37 %
25.05.2017 03:26 10,7 C 20,0 C 94 % 1020,2 hPa 0,0 l/m 5,9 km/h (2 Bft) W-SW 244 0 min 0,000 mm 0,0 UV-I 0 W/m 9,8 C 10,7 C 9,7 km/h (2 Bft) 96,23 %
25.05.2017 03:28 10,6 C 20,0 C 94 % 1020,2 hPa 0,0 l/m 5,2 km/h (1 Bft) W-SW 257 0 min 0,000 mm 0,0 UV-I 0 W/m 9,7 C 10,6 C 11,3 km/h (2 Bft) 93,62 %
25.05.2017 03:30 10,6 C 20,0 C 94 % 1020,2 hPa 0,0 l/m 6,2 km/h (2 Bft) SW 225 0 min 0,000 mm 0,0 UV-I 0 W/m 9,7 C 10,6 C 9,7 km/h (2 Bft) 95,74 %
25.05.2017 03:32 10,6 C 20,0 C 94 % 1020,2 hPa 0,0 l/m 5,7 km/h (1 Bft) W-SW 242 0 min 0,000 mm 0,0 UV-I 0 W/m 9,7 C 10,6 C 8,0 km/h (2 Bft) 94,74 %
25.05.2017 03:34 10,5 C 20,0 C 94 % 1020,1 hPa 0,0 l/m 5,1 km/h (1 Bft) SW 236 0 min 0,000 mm 0,0 UV-I 0 W/m 9,6 C 10,5 C 8,0 km/h (2 Bft) 98,21 %
25.05.2017 03:36 10,5 C 20,0 C 94 % 1020,2 hPa 0,0 l/m 5,0 km/h (1 Bft) W-SW 239 0 min 0,000 mm 0,0 UV-I 0 W/m 9,6 C 10,5 C 8,0 km/h (2 Bft) 90,00 %
25.05.2017 03:38 10,4 C 20,0 C 94 % 1020,2 hPa 0,0 l/m 4,9 km/h (1 Bft) W-SW 240 0 min 0,000 mm 0,0 UV-I 0 W/m 9,5 C 10,4 C 8,0 km/h (2 Bft) 97,56 %
25.05.2017 03:40 10,4 C 20,0 C 95 % 1020,2 hPa 0,0 l/m 5,5 km/h (1 Bft) S-SW 212 0 min 0,000 mm 0,0 UV-I 0 W/m 9,6 C 10,4 C 8,0 km/h (2 Bft) 95,83 %
25.05.2017 03:42 10,4 C 20,0 C 95 % 1020,1 hPa 0,0 l/m 4,5 km/h (1 Bft) S-SW 212 0 min 0,000 mm 0,0 UV-I 0 W/m 9,6 C 10,4 C 6,4 km/h (2 Bft) 93,62 %
25.05.2017 03:44 10,3 C 20,0 C 95 % 1020,2 hPa 0,0 l/m 4,5 km/h (1 Bft) W-SW 250 0 min 0,000 mm 0,0 UV-I 0 W/m 9,5 C 10,3 C 6,4 km/h (2 Bft) 97,87 %
25.05.2017 03:46 10,3 C 20,0 C 95 % 1020,1 hPa 0,0 l/m 4,6 km/h (1 Bft) SW 225 0 min 0,000 mm 0,0 UV-I 0 W/m 9,5 C 10,3 C 6,4 km/h (2 Bft) 94,34 %
25.05.2017 03:48 10,3 C 20,0 C 95 % 1020,1 hPa 0,0 l/m 4,9 km/h (1 Bft) SW 224 0 min 0,000 mm 0,0 UV-I 0 W/m 9,5 C 10,3 C 8,0 km/h (2 Bft) 95,12 %
25.05.2017 03:50 10,2 C 20,0 C 95 % 1020,1 hPa 0,0 l/m 5,6 km/h (1 Bft) S-SW 207 0 min 0,000 mm 0,0 UV-I 0 W/m 9,4 C 10,2 C 8,0 km/h (2 Bft) 95,12 %
25.05.2017 03:52 10,2 C 20,0 C 95 % 1020,1 hPa 0,0 l/m 3,9 km/h (1 Bft) S-SW 198 0 min 0,000 mm 0,0 UV-I 0 W/m 9,4 C 10,2 C 8,0 km/h (2 Bft) 96,00 %
25.05.2017 03:54 10,2 C 20,0 C 95 % 1020,1 hPa 0,0 l/m 3,6 km/h (1 Bft) SW 229 0 min 0,000 mm 0,0 UV-I 0 W/m 9,4 C 10,2 C 4,8 km/h (1 Bft) 96,23 %
25.05.2017 03:56 10,1 C 20,0 C 95 % 1020,1 hPa 0,0 l/m 4,7 km/h (1 Bft) S-SW 212 0 min 0,000 mm 0,0 UV-I 0 W/m 9,3 C 10,1 C 9,7 km/h (2 Bft) 95,74 %
25.05.2017 03:58 10,1 C 20,0 C 95 % 1020,1 hPa 0,0 l/m 4,5 km/h (1 Bft) W-SW 239 0 min 0,000 mm 0,0 UV-I 0 W/m 9,3 C 10,1 C 8,0 km/h (2 Bft) 97,56 %
25.05.2017 04:00 10,1 C 20,0 C 95 % 1020,1 hPa 0,0 l/m 4,3 km/h (1 Bft) W-SW 245 0 min 0,000 mm 0,0 UV-I 0 W/m 9,3 C 10,1 C 8,0 km/h (2 Bft) 98,00 %
25.05.2017 04:02 10,1 C 20,0 C 95 % 1020,1 hPa 0,0 l/m 4,8 km/h (1 Bft) W-SW 245 0 min 0,000 mm 0,0 UV-I 0 W/m 9,3 C 10,1 C 4,8 km/h (1 Bft) 95,00 %
25.05.2017 04:04 10,1 C 20,0 C 95 % 1020,1 hPa 0,0 l/m 4,8 km/h (1 Bft) W-SW 245 0 min 0,000 mm 0,0 UV-I 0 W/m 9,3 C 10,1 C 4,8 km/h (1 Bft) 100,00 %
25.05.2017 04:06 10,1 C 20,0 C 95 % 1020,1 hPa 0,0 l/m 4,8 km/h (1 Bft) W-SW 245 0 min 0,000 mm 0,0 UV-I 0 W/m 9,3 C 10,1 C 4,8 km/h (1 Bft) 100,00 %
25.05.2017 04:08 10,1 C 20,0 C 95 % 1020,1 hPa 0,0 l/m 5,0 km/h (1 Bft) W-SW 257 0 min 0,000 mm 0,0 UV-I 0 W/m 9,3 C 10,1 C 6,4 km/h (2 Bft) 100,00 %
25.05.2017 04:10 10,1 C 20,0 C 95 % 1020,2 hPa 0,0 l/m 3,6 km/h (1 Bft) W-SW 257 0 min 0,000 mm 0,0 UV-I 0 W/m 9,3 C 10,1 C 4,8 km/h (1 Bft) 100,00 %
25.05.2017 04:12 10,0 C 20,0 C 95 % 1020,2 hPa 0,0 l/m 4,2 km/h (1 Bft) W-SW 257 0 min 0,000 mm 0,0 UV-I 0 W/m 9,2 C 10,0 C 6,4 km/h (2 Bft) 97,87 %
25.05.2017 04:14 10,0 C 20,0 C 95 % 1020,2 hPa 0,0 l/m 2,6 km/h (1 Bft) W-SW 257 0 min 0,000 mm 0,0 UV-I 0 W/m 9,2 C 10,0 C 4,8 km/h (1 Bft) 100,00 %
25.05.2017 04:16 9,9 C 20,0 C 95 % 1020,2 hPa 0,0 l/m 2,1 km/h (1 Bft) W-SW 257 0 min 0,000 mm 0,0 UV-I 0 W/m 9,1 C 9,9 C 3,2 km/h (1 Bft) 100,00 %
25.05.2017 04:18 9,9 C 20,0 C 95 % 1020,1 hPa 0,0 l/m 1,6 km/h (1 Bft) W-SW 257 0 min 0,000 mm 0,0 UV-I 0 W/m 9,1 C 9,9 C 3,2 km/h (1 Bft) 98,11 %
25.05.2017 04:20 9,9 C 20,0 C 95 % 1020,2 hPa 0,0 l/m 2,2 km/h (1 Bft) W-SW 257 0 min 0,000 mm 0,0 UV-I 0 W/m 9,1 C 9,9 C 3,2 km/h (1 Bft) 97,56 %
25.05.2017 04:22 9,9 C 20,0 C 95 % 1020,2 hPa 0,0 l/m 2,4 km/h (1 Bft) W-SW 257 0 min 0,000 mm 0,0 UV-I 0 W/m 9,1 C 9,9 C 3,2 km/h (1 Bft) 98,21 %
25.05.2017 04:24 9,8 C 20,0 C 96 % 1020,2 hPa 0,0 l/m 2,3 km/h (1 Bft) W-SW 257 0 min 0,000 mm 0,0 UV-I 0 W/m 9,2 C 9,8 C 3,2 km/h (1 Bft) 100,00 %
25.05.2017 04:26 9,8 C 20,0 C 95 % 1020,2 hPa 0,0 l/m 2,8 km/h (1 Bft) W-SW 257 0 min 0,000 mm 0,0 UV-I 0 W/m 9,0 C 9,8 C 4,8 km/h (1 Bft) 97,87 %
25.05.2017 04:28 9,8 C 20,0 C 96 % 1020,1 hPa 0,0 l/m 2,5 km/h (1 Bft) W-SW 257 0 min 0,000 mm 0,0 UV-I 0 W/m 9,2 C 9,8 C 3,2 km/h (1 Bft) 100,00 %
25.05.2017 04:30 9,8 C 20,0 C 95 % 1020,1 hPa 0,0 l/m 2,1 km/h (1 Bft) W-SW 257 0 min 0,000 mm 0,0 UV-I 0 W/m 9,0 C 9,8 C 3,2 km/h (1 Bft) 96,61 %
25.05.2017 04:32 9,7 C 20,0 C 95 % 1020,1 hPa 0,0 l/m 2,1 km/h (1 Bft) W-SW 257 0 min 0,000 mm 0,0 UV-I 0 W/m 8,9 C 9,7 C 3,2 km/h (1 Bft) 97,87 %
25.05.2017 04:34 9,7 C 20,0 C 95 % 1020,1 hPa 0,0 l/m 1,3 km/h (1 Bft) W-SW 257 0 min 0,000 mm 0,0 UV-I 0 W/m 8,9 C 9,7 C 3,2 km/h (1 Bft) 97,37 %
25.05.2017 04:36 9,6 C 20,0 C 95 % 1020,1 hPa 0,0 l/m 2,3 km/h (1 Bft) W-SW 257 0 min 0,000 mm 0,0 UV-I 0 W/m 8,8 C 9,6 C 3,2 km/h (1 Bft) 96,43 %
25.05.2017 04:38 9,6 C 20,0 C 96 % 1020,2 hPa 0,0 l/m 2,5 km/h (1 Bft) W-SW 257 0 min 0,000 mm 0,0 UV-I 0 W/m 9,0 C 9,6 C 4,8 km/h (1 Bft) 100,00 %
25.05.2017 04:40 9,5 C 20,0 C 96 % 1020,2 hPa 0,0 l/m 2,5 km/h (1 Bft) W-SW 257 0 min 0,000 mm 0,0 UV-I 0 W/m 8,9 C 9,5 C 3,2 km/h (1 Bft) 97,87 %
25.05.2017 04:42 9,5 C 20,0 C 96 % 1020,2 hPa 0,0 l/m 2,9 km/h (1 Bft) W-SW 257 0 min 0,000 mm 0,0 UV-I 0 W/m 8,9 C 9,5 C 4,8 km/h (1 Bft) 98,11 %
25.05.2017 04:44 9,5 C 20,0 C 96 % 1020,3 hPa 0,0 l/m 2,0 km/h (1 Bft) W-SW 257 0 min 0,000 mm 0,0 UV-I 0 W/m 8,9 C 9,5 C 4,8 km/h (1 Bft) 100,00 %
25.05.2017 04:46 9,4 C 20,0 C 96 % 1020,3 hPa 0,0 l/m 3,2 km/h (1 Bft) W-SW 257 0 min 0,000 mm 0,0 UV-I 0 W/m 8,8 C 9,4 C 6,4 km/h (2 Bft) 98,00 %
25.05.2017 04:48 9,4 C 20,0 C 96 % 1020,3 hPa 0,0 l/m 4,1 km/h (1 Bft) W-SW 257 0 min 0,000 mm 0,0 UV-I 0 W/m 8,8 C 9,4 C 6,4 km/h (2 Bft) 100,00 %
25.05.2017 04:50 9,4 C 20,0 C 96 % 1020,3 hPa 0,0 l/m 2,5 km/h (1 Bft) W-SW 257 0 min 0,000 mm 0,0 UV-I 0 W/m 8,8 C 9,4 C 4,8 km/h (1 Bft) 97,56 %
25.05.2017 04:52 9,4 C 20,0 C 96 % 1020,3 hPa 0,0 l/m 2,5 km/h (1 Bft) W-SW 257 0 min 0,000 mm 0,0 UV-I 0 W/m 8,8 C 9,4 C 3,2 km/h (1 Bft) 100,00 %
25.05.2017 04:54 9,4 C 20,0 C 96 % 1020,3 hPa 0,0 l/m 1,2 km/h (1 Bft) W-SW 257 0 min 0,000 mm 0,0 UV-I 0 W/m 8,8 C 9,4 C 4,8 km/h (1 Bft) 97,87 %
25.05.2017 04:56 9,4 C 20,0 C 96 % 1020,3 hPa 0,0 l/m 1,8 km/h (1 Bft) W-SW 257 0 min 0,000 mm 0,0 UV-I 0 W/m 8,8 C 9,4 C 4,8 km/h (1 Bft) 97,87 %
25.05.2017 04:58 9,3 C 20,0 C 96 % 1020,4 hPa 0,0 l/m 2,9 km/h (1 Bft) W-SW 257 0 min 0,000 mm 0,0 UV-I 0 W/m 8,7 C 9,3 C 4,8 km/h (1 Bft) 100,00 %
25.05.2017 05:00 9,3 C 20,0 C 96 % 1020,4 hPa 0,0 l/m 3,1 km/h (1 Bft) W-SW 257 0 min 0,000 mm 0,0 UV-I 5 W/m 8,7 C 9,3 C 4,8 km/h (1 Bft) 100,00 %
25.05.2017 05:02 9,3 C 20,0 C 96 % 1020,4 hPa 0,0 l/m 1,7 km/h (1 Bft) W-SW 257 0 min 0,000 mm 0,0 UV-I 5 W/m 8,7 C 9,3 C 3,2 km/h (1 Bft) 94,74 %
25.05.2017 05:04 9,3 C 20,0 C 96 % 1020,4 hPa 0,0 l/m 2,8 km/h (1 Bft) W-SW 257 0 min 0,000 mm 0,0 UV-I 5 W/m 8,7 C 9,3 C 4,8 km/h (1 Bft) 100,00 %
25.05.2017 05:06 9,3 C 20,0 C 96 % 1020,4 hPa 0,0 l/m 3,2 km/h (1 Bft) W-SW 257 0 min 0,000 mm 0,0 UV-I 5 W/m 8,7 C 9,3 C 6,4 km/h (2 Bft) 98,00 %
25.05.2017 05:08 9,3 C 20,0 C 96 % 1020,4 hPa 0,0 l/m 4,0 km/h (1 Bft) W-SW 257 0 min 0,000 mm 0,0 UV-I 5 W/m 8,7 C 9,3 C 6,4 km/h (2 Bft) 100,00 %
25.05.2017 05:10 9,2 C 20,0 C 96 % 1020,4 hPa 0,0 l/m 3,2 km/h (1 Bft) W-SW 257 0 min 0,000 mm 0,0 UV-I 7 W/m 8,6 C 9,2 C 6,4 km/h (2 Bft) 97,87 %
25.05.2017 05:12 9,3 C 20,0 C 96 % 1020,4 hPa 0,0 l/m 3,7 km/h (1 Bft) W-SW 257 0 min 0,000 mm 0,0 UV-I 7 W/m 8,7 C 9,3 C 6,4 km/h (2 Bft) 98,00 %
25.05.2017 05:14 9,3 C 20,0 C 96 % 1020,4 hPa 0,0 l/m 2,7 km/h (1 Bft) W-SW 257 0 min 0,000 mm 0,0 UV-I 7 W/m 8,7 C 9,3 C 4,8 km/h (1 Bft) 96,00 %
25.05.2017 05:16 9,3 C 20,0 C 96 % 1020,4 hPa 0,0 l/m 3,1 km/h (1 Bft) W-SW 257 0 min 0,000 mm 0,0 UV-I 9 W/m 8,7 C 9,3 C 4,8 km/h (1 Bft) 97,56 %
25.05.2017 05:18 9,3 C 20,0 C 96 % 1020,3 hPa 0,0 l/m 4,3 km/h (1 Bft) W-SW 256 0 min 0,000 mm 0,0 UV-I 9 W/m 8,7 C 9,3 C 6,4 km/h (2 Bft) 97,87 %
25.05.2017 05:20 9,4 C 20,0 C 96 % 1020,3 hPa 0,0 l/m 3,8 km/h (1 Bft) W-SW 256 0 min 0,000 mm 0,0 UV-I 10 W/m 8,8 C 9,4 C 8,0 km/h (2 Bft) 93,62 %
25.05.2017 05:22 9,4 C 20,0 C 96 % 1020,4 hPa 0,0 l/m 2,2 km/h (1 Bft) W-SW 256 0 min 0,000 mm 0,0 UV-I 11 W/m 8,8 C 9,4 C 4,8 km/h (1 Bft) 94,00 %
25.05.2017 05:24 9,4 C 20,0 C 96 % 1020,4 hPa 0,0 l/m 2,7 km/h (1 Bft) W-SW 256 0 min 0,000 mm 0,0 UV-I 12 W/m 8,8 C 9,4 C 4,8 km/h (1 Bft) 95,74 %
25.05.2017 05:26 9,4 C 20,0 C 96 % 1020,5 hPa 0,0 l/m 3,5 km/h (1 Bft) W-SW 256 2 min 0,000 mm 0,0 UV-I 15 W/m 8,8 C 9,4 C 4,8 km/h (1 Bft) 97,56 %
25.05.2017 05:28 9,5 C 20,0 C 96 % 1020,5 hPa 0,0 l/m 4,0 km/h (1 Bft) W 261 2 min 0,000 mm 0,0 UV-I 16 W/m 8,9 C 9,5 C 6,4 km/h (2 Bft) 95,74 %
25.05.2017 05:30 9,6 C 20,0 C 97 % 1020,5 hPa 0,0 l/m 4,6 km/h (1 Bft) W 260 2 min 0,000 mm 0,0 UV-I 17 W/m 9,1 C 9,6 C 9,7 km/h (2 Bft) 98,00 %
25.05.2017 05:32 9,7 C 20,0 C 97 % 1020,4 hPa 0,0 l/m 4,5 km/h (1 Bft) W 259 2 min 0,000 mm 0,0 UV-I 18 W/m 9,2 C 9,7 C 6,4 km/h (2 Bft) 94,00 %
25.05.2017 05:34 9,7 C 20,0 C 97 % 1020,4 hPa 0,0 l/m 4,4 km/h (1 Bft) W 259 2 min 0,000 mm 0,0 UV-I 20 W/m 9,2 C 9,7 C 6,4 km/h (2 Bft) 94,44 %
25.05.2017 05:36 9,8 C 20,0 C 97 % 1020,5 hPa 0,0 l/m 3,4 km/h (1 Bft) W 259 0 min 0,000 mm 0,0 UV-I 21 W/m 9,3 C 9,8 C 4,8 km/h (1 Bft) 93,10 %
25.05.2017 05:38 9,7 C 20,0 C 97 % 1020,5 hPa 0,0 l/m 2,2 km/h (1 Bft) W 259 0 min 0,000 mm 0,0 UV-I 21 W/m 9,2 C 9,7 C 4,8 km/h (1 Bft) 91,49 %
25.05.2017 05:40 9,8 C 20,0 C 97 % 1020,5 hPa 0,0 l/m 1,7 km/h (1 Bft) W 259 0 min 0,000 mm 0,0 UV-I 23 W/m 9,3 C 9,8 C 3,2 km/h (1 Bft) 93,62 %
25.05.2017 05:42 9,8 C 20,0 C 97 % 1020,6 hPa 0,0 l/m 3,1 km/h (1 Bft) W 259 0 min 0,000 mm 0,0 UV-I 25 W/m 9,3 C 9,8 C 4,8 km/h (1 Bft) 97,44 %
25.05.2017 05:44 9,9 C 20,0 C 97 % 1020,7 hPa 0,0 l/m 2,3 km/h (1 Bft) W 259 0 min 0,000 mm 0,0 UV-I 28 W/m 9,4 C 9,9 C 4,8 km/h (1 Bft) 92,86 %
25.05.2017 05:46 9,9 C 20,0 C 97 % 1020,7 hPa 0,0 l/m 3,7 km/h (1 Bft) W 259 0 min 0,000 mm 0,0 UV-I 36 W/m 9,4 C 9,9 C 4,8 km/h (1 Bft) 93,62 %
25.05.2017 05:48 9,9 C 20,0 C 97 % 1020,7 hPa 0,0 l/m 4,0 km/h (1 Bft) W 260 2 min 0,000 mm 0,0 UV-I 40 W/m 9,4 C 9,9 C 4,8 km/h (1 Bft) 94,74 %
25.05.2017 05:50 10,0 C 20,0 C 97 % 1020,7 hPa 0,0 l/m 4,2 km/h (1 Bft) W 260 0 min 0,000 mm 0,0 UV-I 35 W/m 9,5 C 10,0 C 4,8 km/h (1 Bft) 96,00 %
25.05.2017 05:52 10,0 C 20,0 C 97 % 1020,7 hPa 0,0 l/m 4,0 km/h (1 Bft) W 259 0 min 0,000 mm 0,0 UV-I 30 W/m 9,5 C 10,0 C 6,4 km/h (2 Bft) 93,62 %
25.05.2017 05:54 10,1 C 20,0 C 97 % 1020,8 hPa 0,0 l/m 4,1 km/h (1 Bft) W 259 0 min 0,000 mm 0,0 UV-I 31 W/m 9,6 C 10,1 C 6,4 km/h (2 Bft) 92,31 %
25.05.2017 05:56 10,0 C 20,0 C 97 % 1020,8 hPa 0,0 l/m 3,9 km/h (1 Bft) W 260 0 min 0,000 mm 0,0 UV-I 32 W/m 9,5 C 10,0 C 4,8 km/h (1 Bft) 89,47 %
25.05.2017 05:58 10,1 C 20,0 C 97 % 1020,8 hPa 0,0 l/m 5,4 km/h (1 Bft) W 267 0 min 0,000 mm 0,0 UV-I 35 W/m 9,6 C 10,1 C 8,0 km/h (2 Bft) 95,74 %
25.05.2017 06:00 10,1 C 20,0 C 97 % 1020,8 hPa 0,0 l/m 4,1 km/h (1 Bft) W 267 0 min 0,000 mm 0,0 UV-I 40 W/m 9,6 C 10,1 C 6,4 km/h (2 Bft) 96,23 %
25.05.2017 06:02 10,1 C 20,0 C 97 % 1020,8 hPa 0,0 l/m 4,2 km/h (1 Bft) W 266 0 min 0,000 mm 0,0 UV-I 38 W/m 9,6 C 10,1 C 6,4 km/h (2 Bft) 94,74 %
25.05.2017 06:04 10,1 C 20,0 C 97 % 1020,8 hPa 0,0 l/m 3,7 km/h (1 Bft) W 266 0 min 0,000 mm 0,0 UV-I 38 W/m 9,6 C 10,1 C 4,8 km/h (1 Bft) 96,43 %
25.05.2017 06:06 10,1 C 20,0 C 97 % 1020,8 hPa 0,0 l/m 3,9 km/h (1 Bft) W 262 0 min 0,000 mm 0,0 UV-I 40 W/m 9,6 C 10,1 C 6,4 km/h (2 Bft) 97,87 %
25.05.2017 06:08 10,2 C 20,0 C 97 % 1020,9 hPa 0,0 l/m 2,6 km/h (1 Bft) W 262 0 min 0,000 mm 0,0 UV-I 41 W/m 9,7 C 10,2 C 4,8 km/h (1 Bft) 91,43 %
25.05.2017 06:10 10,2 C 20,0 C 97 % 1020,9 hPa 0,0 l/m 2,7 km/h (1 Bft) W 262 0 min 0,000 mm 0,0 UV-I 44 W/m 9,7 C 10,2 C 4,8 km/h (1 Bft) 96,61 %
25.05.2017 06:12 10,2 C 20,0 C 97 % 1020,9 hPa 0,0 l/m 2,3 km/h (1 Bft) W 262 0 min 0,000 mm 0,0 UV-I 44 W/m 9,7 C 10,2 C 4,8 km/h (1 Bft) 95,74 %
25.05.2017 06:14 10,2 C 20,0 C 97 % 1020,9 hPa 0,0 l/m 2,5 km/h (1 Bft) W 262 0 min 0,000 mm 0,0 UV-I 46 W/m 9,7 C 10,2 C 4,8 km/h (1 Bft) 97,87 %
25.05.2017 06:16 10,2 C 20,0 C 97 % 1021,0 hPa 0,0 l/m 1,9 km/h (1 Bft) W 263 0 min 0,000 mm 0,0 UV-I 50 W/m 9,7 C 10,2 C 3,2 km/h (1 Bft) 95,83 %
25.05.2017 06:18 10,2 C 20,0 C 97 % 1020,9 hPa 0,0 l/m 2,4 km/h (1 Bft) W 262 0 min 0,000 mm 0,0 UV-I 53 W/m 9,7 C 10,2 C 4,8 km/h (1 Bft) 95,71 %
25.05.2017 06:20 10,2 C 20,0 C 97 % 1020,9 hPa 0,0 l/m 3,4 km/h (1 Bft) W 262 0 min 0,000 mm 0,0 UV-I 54 W/m 9,7 C 10,2 C 4,8 km/h (1 Bft) 100,00 %
25.05.2017 06:22 10,2 C 20,0 C 97 % 1020,9 hPa 0,0 l/m 3,2 km/h (1 Bft) W 262 0 min 0,000 mm 0,0 UV-I 57 W/m 9,7 C 10,2 C 4,8 km/h (1 Bft) 100,00 %
25.05.2017 06:24 10,3 C 20,0 C 97 % 1020,9 hPa 0,0 l/m 2,9 km/h (1 Bft) W 262 0 min 0,000 mm 0,0 UV-I 58 W/m 9,8 C 10,3 C 4,8 km/h (1 Bft) 95,74 %
25.05.2017 06:26 10,3 C 20,0 C 97 % 1020,9 hPa 0,0 l/m 0,9 km/h (0 Bft) W 262 0 min 0,000 mm 0,0 UV-I 61 W/m 9,8 C 10,3 C 3,2 km/h (1 Bft) 100,00 %
25.05.2017 06:28 10,3 C 20,0 C 97 % 1020,9 hPa 0,0 l/m 0,3 km/h (0 Bft) W 262 0 min 0,000 mm 0,0 UV-I 62 W/m 9,8 C 10,3 C 1,6 km/h (1 Bft) 100,00 %
25.05.2017 06:30 10,4 C 20,0 C 97 % 1020,9 hPa 0,0 l/m 0,0 km/h (0 Bft) W 263 0 min 0,000 mm 0,0 UV-I 63 W/m 9,9 C 10,4 C 1,6 km/h (1 Bft) 96,23 %
25.05.2017 06:32 10,4 C 20,0 C 97 % 1020,9 hPa 0,0 l/m 0,8 km/h (0 Bft) W 262 0 min 0,000 mm 0,0 UV-I 66 W/m 9,9 C 10,4 C 1,6 km/h (1 Bft) 95,12 %
25.05.2017 06:34 10,5 C 20,0 C 97 % 1021,0 hPa 0,0 l/m 0,0 km/h (0 Bft) W 262 0 min 0,000 mm 0,0 UV-I 69 W/m 10,0 C 10,5 C 0,0 km/h (0 Bft) 100,00 %
25.05.2017 06:36 10,4 C 20,0 C 97 % 1020,9 hPa 0,0 l/m 0,0 km/h (0 Bft) W 262 0 min 0,000 mm 0,0 UV-I 70 W/m 9,9 C 10,4 C 0,0 km/h (0 Bft) 98,11 %
25.05.2017 06:38 10,4 C 20,0 C 97 % 1020,9 hPa 0,0 l/m 0,0 km/h (0 Bft) W 262 0 min 0,000 mm 0,0 UV-I 74 W/m 9,9 C 10,4 C 0,0 km/h (0 Bft) 93,62 %
25.05.2017 06:40 10,5 C 20,0 C 97 % 1020,9 hPa 0,0 l/m 0,0 km/h (0 Bft) W 262 0 min 0,000 mm 0,0 UV-I 80 W/m 10,0 C 10,5 C 0,0 km/h (0 Bft) 97,87 %
25.05.2017 06:42 10,5 C 20,0 C 97 % 1020,9 hPa 0,0 l/m 0,0 km/h (0 Bft) W 262 0 min 0,000 mm 0,0 UV-I 84 W/m 10,0 C 10,5 C 0,0 km/h (0 Bft) 97,87 %
25.05.2017 06:44 10,4 C 20,0 C 97 % 1021,0 hPa 0,0 l/m 0,0 km/h (0 Bft) W 262 0 min 0,000 mm 0,0 UV-I 88 W/m 9,9 C 10,4 C 0,0 km/h (0 Bft) 100,00 %
25.05.2017 06:46 10,6 C 20,0 C 97 % 1021,0 hPa 0,0 l/m 0,0 km/h (0 Bft) W 262 0 min 0,000 mm 0,0 UV-I 94 W/m 10,1 C 10,6 C 0,0 km/h (0 Bft) 98,11 %
25.05.2017 06:48 10,6 C 20,0 C 97 % 1021,0 hPa 0,0 l/m 0,5 km/h (0 Bft) W 262 0 min 0,000 mm 0,0 UV-I 97 W/m 10,1 C 10,6 C 3,2 km/h (1 Bft) 97,87 %
25.05.2017 06:50 10,6 C 20,0 C 97 % 1021,0 hPa 0,0 l/m 0,9 km/h (0 Bft) W 262 0 min 0,000 mm 0,0 UV-I 101 W/m 10,1 C 10,6 C 3,2 km/h (1 Bft) 100,00 %
25.05.2017 06:52 10,6 C 20,0 C 97 % 1021,1 hPa 0,0 l/m 0,9 km/h (0 Bft) W 262 0 min 0,000 mm 0,0 UV-I 109 W/m 10,1 C 10,6 C 3,2 km/h (1 Bft) 100,00 %
25.05.2017 06:54 10,7 C 20,0 C 97 % 1021,0 hPa 0,0 l/m 1,0 km/h (0 Bft) W 262 0 min 0,000 mm 0,0 UV-I 121 W/m 10,2 C 10,7 C 3,2 km/h (1 Bft) 95,74 %
25.05.2017 06:56 10,8 C 20,0 C 97 % 1021,0 hPa 0,0 l/m 2,6 km/h (1 Bft) W 262 0 min 0,000 mm 0,0 UV-I 133 W/m 10,3 C 10,8 C 6,4 km/h (2 Bft) 100,00 %
25.05.2017 06:58 10,8 C 20,0 C 97 % 1021,0 hPa 0,0 l/m 2,2 km/h (1 Bft) W 262 2 min 0,000 mm 0,0 UV-I 143 W/m 10,3 C 10,8 C 4,8 km/h (1 Bft) 94,87 %
25.05.2017 07:00 10,8 C 20,0 C 97 % 1020,9 hPa 0,0 l/m 1,7 km/h (1 Bft) W 262 2 min 0,025 mm 0,0 UV-I 152 W/m 10,3 C 10,8 C 4,8 km/h (1 Bft) 97,87 %
25.05.2017 07:02 10,9 C 20,0 C 97 % 1021,0 hPa 0,0 l/m 3,8 km/h (1 Bft) W-SW 240 2 min 0,000 mm 0,0 UV-I 147 W/m 10,4 C 10,9 C 6,4 km/h (2 Bft) 98,18 %
25.05.2017 07:04 10,9 C 20,0 C 96 % 1020,9 hPa 0,0 l/m 3,0 km/h (1 Bft) W-SW 249 2 min 0,000 mm 0,0 UV-I 151 W/m 10,3 C 10,9 C 4,8 km/h (1 Bft) 100,00 %
25.05.2017 07:06 10,9 C 20,0 C 96 % 1020,9 hPa 0,0 l/m 1,5 km/h (1 Bft) W-SW 249 2 min 0,000 mm 0,0 UV-I 168 W/m 10,3 C 10,9 C 3,2 km/h (1 Bft) 94,00 %
25.05.2017 07:08 11,1 C 20,0 C 97 % 1021,0 hPa 0,0 l/m 0,9 km/h (0 Bft) W-SW 249 2 min 0,000 mm 0,0 UV-I 216 W/m 10,6 C 11,1 C 3,2 km/h (1 Bft) 92,00 %
25.05.2017 07:10 11,2 C 20,0 C 96 % 1021,0 hPa 0,0 l/m 0,8 km/h (0 Bft) W-SW 249 2 min 0,000 mm 0,0 UV-I 313 W/m 10,6 C 11,2 C 3,2 km/h (1 Bft) 90,24 %
25.05.2017 07:12 11,4 C 20,0 C 96 % 1021,0 hPa 0,0 l/m 3,1 km/h (1 Bft) W-SW 251 2 min 0,000 mm 0,0 UV-I 329 W/m 10,8 C 11,4 C 6,4 km/h (2 Bft) 100,00 %
25.05.2017 07:14 11,4 C 20,0 C 96 % 1021,0 hPa 0,0 l/m 4,9 km/h (1 Bft) W-SW 252 2 min 0,000 mm 0,0 UV-I 293 W/m 10,8 C 11,4 C 8,0 km/h (2 Bft) 97,56 %
25.05.2017 07:16 11,4 C 20,0 C 96 % 1021,0 hPa 0,0 l/m 4,7 km/h (1 Bft) W-SW 238 2 min 0,000 mm 0,0 UV-I 229 W/m 10,8 C 11,4 C 6,4 km/h (2 Bft) 93,10 %
25.05.2017 07:18 11,4 C 20,0 C 96 % 1021,1 hPa 0,0 l/m 3,7 km/h (1 Bft) W 271 2 min 0,000 mm 0,0 UV-I 204 W/m 10,8 C 11,4 C 8,0 km/h (2 Bft) 97,06 %
25.05.2017 07:20 11,4 C 20,0 C 95 % 1021,1 hPa 0,0 l/m 4,7 km/h (1 Bft) W 261 0 min 0,000 mm 0,0 UV-I 172 W/m 10,6 C 11,4 C 11,3 km/h (2 Bft) 97,87 %
25.05.2017 07:22 11,4 C 20,0 C 95 % 1021,1 hPa 0,0 l/m 4,4 km/h (1 Bft) W 259 0 min 0,000 mm 0,0 UV-I 156 W/m 10,6 C 11,4 C 6,4 km/h (2 Bft) 97,56 %
25.05.2017 07:24 11,4 C 20,0 C 95 % 1021,1 hPa 0,0 l/m 4,1 km/h (1 Bft) W-SW 247 2 min 0,000 mm 0,0 UV-I 197 W/m 10,6 C 11,4 C 6,4 km/h (2 Bft) 96,23 %
25.05.2017 07:26 11,6 C 20,0 C 95 % 1021,1 hPa 0,0 l/m 2,5 km/h (1 Bft) W-NW 285 2 min 0,000 mm 0,0 UV-I 186 W/m 10,8 C 11,6 C 6,4 km/h (2 Bft) 97,87 %
25.05.2017 07:28 11,5 C 20,0 C 95 % 1021,1 hPa 0,0 l/m 0,7 km/h (0 Bft) W-NW 285 2 min 0,000 mm 0,0 UV-I 213 W/m 10,7 C 11,5 C 3,2 km/h (1 Bft) 100,00 %
25.05.2017 07:30 11,6 C 20,0 C 94 % 1021,1 hPa 0,0 l/m 1,9 km/h (1 Bft) W-NW 286 2 min 0,000 mm 0,0 UV-I 199 W/m 10,7 C 11,6 C 4,8 km/h (1 Bft) 96,23 %
25.05.2017 07:32 11,5 C 20,0 C 94 % 1021,1 hPa 0,0 l/m 3,4 km/h (1 Bft) W-SW 240 0 min 0,000 mm 0,0 UV-I 163 W/m 10,6 C 11,5 C 8,0 km/h (2 Bft) 94,74 %
25.05.2017 07:34 11,5 C 20,0 C 94 % 1021,1 hPa 0,0 l/m 2,4 km/h (1 Bft) W 260 0 min 0,000 mm 0,0 UV-I 155 W/m 10,6 C 11,5 C 4,8 km/h (1 Bft) 94,34 %
25.05.2017 07:36 11,4 C 20,0 C 93 % 1021,1 hPa 0,0 l/m 4,3 km/h (1 Bft) W-SW 256 2 min 0,000 mm 0,2 UV-I 199 W/m 10,3 C 11,4 C 9,7 km/h (2 Bft) 95,24 %
25.05.2017 07:38 11,4 C 20,0 C 93 % 1021,2 hPa 0,0 l/m 5,1 km/h (1 Bft) W-NW 284 2 min 0,000 mm 0,5 UV-I 226 W/m 10,3 C 11,4 C 8,0 km/h (2 Bft) 96,00 %
25.05.2017 07:40 11,5 C 20,0 C 93 % 1021,2 hPa 0,0 l/m 3,6 km/h (1 Bft) W-SW 246 2 min 0,000 mm 0,5 UV-I 316 W/m 10,4 C 11,5 C 6,4 km/h (2 Bft) 97,56 %
25.05.2017 07:42 11,6 C 20,0 C 93 % 1021,1 hPa 0,0 l/m 5,3 km/h (1 Bft) W 263 2 min 0,000 mm 0,6 UV-I 276 W/m 10,5 C 11,6 C 8,0 km/h (2 Bft) 96,61 %
25.05.2017 07:44 11,7 C 20,0 C 92 % 1021,1 hPa 0,0 l/m 5,2 km/h (1 Bft) W-SW 243 2 min 0,000 mm 0,6 UV-I 301 W/m 10,4 C 11,7 C 8,0 km/h (2 Bft) 97,56 %
25.05.2017 07:46 11,7 C 20,0 C 92 % 1021,2 hPa 0,0 l/m 7,1 km/h (2 Bft) W-SW 240 2 min 0,000 mm 0,7 UV-I 327 W/m 10,4 C 11,2 C 11,3 km/h (2 Bft) 93,10 %
25.05.2017 07:48 11,8 C 20,0 C 91 % 1021,2 hPa 0,0 l/m 4,9 km/h (1 Bft) W 273 2 min 0,000 mm 0,6 UV-I 278 W/m 10,4 C 11,8 C 8,0 km/h (2 Bft) 98,59 %
25.05.2017 07:50 11,9 C 20,0 C 92 % 1021,1 hPa 0,0 l/m 3,5 km/h (1 Bft) W 281 2 min 0,000 mm 0,6 UV-I 240 W/m 10,6 C 11,9 C 6,4 km/h (2 Bft) 97,37 %
25.05.2017 07:52 12,0 C 20,0 C 92 % 1021,1 hPa 0,0 l/m 4,4 km/h (1 Bft) W 280 2 min 0,000 mm 0,6 UV-I 222 W/m 10,7 C 12,0 C 6,4 km/h (2 Bft) 95,74 %
25.05.2017 07:54 11,9 C 20,0 C 91 % 1021,2 hPa 0,0 l/m 4,4 km/h (1 Bft) W-NW 286 2 min 0,000 mm 0,6 UV-I 297 W/m 10,5 C 11,9 C 6,4 km/h (2 Bft) 96,00 %
25.05.2017 07:56 11,9 C 20,0 C 90 % 1021,2 hPa 0,0 l/m 3,3 km/h (1 Bft) W 263 2 min 0,000 mm 0,5 UV-I 255 W/m 10,3 C 11,9 C 6,4 km/h (2 Bft) 95,12 %
25.05.2017 07:58 11,8 C 20,0 C 90 % 1021,2 hPa 0,0 l/m 4,7 km/h (1 Bft) W-SW 242 0 min 0,000 mm 0,5 UV-I 193 W/m 10,2 C 11,8 C 6,4 km/h (2 Bft) 94,64 %
25.05.2017 08:00 11,8 C 20,0 C 91 % 1021,2 hPa 0,0 l/m 3,7 km/h (1 Bft) W-NW 302 0 min 0,102 mm 0,7 UV-I 224 W/m 10,4 C 11,8 C 9,7 km/h (2 Bft) 97,73 %
25.05.2017 08:02 11,9 C 20,0 C 91 % 1021,2 hPa 0,0 l/m 3,3 km/h (1 Bft) W 271 2 min 0,000 mm 0,8 UV-I 368 W/m 10,5 C 11,9 C 9,7 km/h (2 Bft) 97,37 %
25.05.2017 08:04 12,1 C 20,0 C 92 % 1021,2 hPa 0,0 l/m 8,4 km/h (2 Bft) W-SW 258 2 min 0,000 mm 0,9 UV-I 503 W/m 10,8 C 10,8 C 12,9 km/h (3 Bft) 98,08 %
25.05.2017 08:06 12,2 C 20,0 C 90 % 1021,3 hPa 0,0 l/m 5,8 km/h (2 Bft) W-SW 255 2 min 0,000 mm 0,9 UV-I 448 W/m 10,6 C 12,2 C 11,3 km/h (2 Bft) 100,00 %
25.05.2017 08:08 12,2 C 20,0 C 90 % 1021,3 hPa 0,0 l/m 6,4 km/h (2 Bft) SW 234 2 min 0,000 mm 1,0 UV-I 431 W/m 10,6 C 12,2 C 9,7 km/h (2 Bft) 100,00 %
25.05.2017 08:10 12,3 C 20,0 C 90 % 1021,2 hPa 0,0 l/m 7,6 km/h (2 Bft) S 190 2 min 0,000 mm 1,0 UV-I 447 W/m 10,7 C 11,5 C 11,3 km/h (2 Bft) 97,37 %
25.05.2017 08:12 12,4 C 20,0 C 88 % 1021,3 hPa 0,0 l/m 10,3 km/h (2 Bft) W-SW 257 2 min 0,000 mm 1,0 UV-I 462 W/m 10,5 C 10,1 C 14,5 km/h (3 Bft) 98,00 %
25.05.2017 08:14 12,3 C 20,0 C 88 % 1021,3 hPa 0,0 l/m 8,2 km/h (2 Bft) W-SW 251 2 min 0,000 mm 0,8 UV-I 272 W/m 10,4 C 11,1 C 12,9 km/h (3 Bft) 98,00 %
25.05.2017 08:16 12,3 C 20,0 C 88 % 1021,4 hPa 0,0 l/m 6,8 km/h (2 Bft) SW 233 0 min 0,000 mm 1,0 UV-I 160 W/m 10,4 C 12,0 C 11,3 km/h (2 Bft) 92,31 %
25.05.2017 08:18 12,1 C 20,0 C 87 % 1021,4 hPa 0,0 l/m 3,2 km/h (1 Bft) SW 223 0 min 0,000 mm 0,8 UV-I 141 W/m 10,0 C 12,1 C 6,4 km/h (2 Bft) 98,00 %
25.05.2017 08:20 12,1 C 20,0 C 87 % 1021,3 hPa 0,0 l/m 1,7 km/h (1 Bft) SW 223 2 min 0,000 mm 1,1 UV-I 355 W/m 10,0 C 12,1 C 4,8 km/h (1 Bft) 100,00 %
25.05.2017 08:22 12,3 C 20,0 C 88 % 1021,3 hPa 0,0 l/m 3,8 km/h (1 Bft) SW 232 2 min 0,000 mm 1,2 UV-I 547 W/m 10,4 C 12,3 C 6,4 km/h (2 Bft) 97,92 %
25.05.2017 08:24 12,4 C 20,0 C 89 % 1021,4 hPa 0,0 l/m 6,6 km/h (2 Bft) W-SW 237 2 min 0,000 mm 1,3 UV-I 568 W/m 10,6 C 12,3 C 12,9 km/h (3 Bft) 94,00 %
25.05.2017 08:26 12,8 C 20,0 C 88 % 1021,4 hPa 0,0 l/m 9,1 km/h (2 Bft) SW 232 2 min 0,000 mm 1,2 UV-I 539 W/m 10,9 C 11,2 C 12,9 km/h (3 Bft) 97,56 %
25.05.2017 08:28 12,8 C 20,0 C 87 % 1021,4 hPa 0,0 l/m 9,4 km/h (2 Bft) SW 217 2 min 0,000 mm 1,2 UV-I 545 W/m 10,7 C 11,0 C 14,5 km/h (3 Bft) 96,23 %
25.05.2017 08:30 12,8 C 20,0 C 87 % 1021,4 hPa 0,0 l/m 6,0 km/h (2 Bft) W 261 2 min 0,000 mm 1,1 UV-I 536 W/m 10,7 C 12,8 C 11,3 km/h (2 Bft) 100,00 %
25.05.2017 08:32 12,8 C 20,0 C 87 % 1021,4 hPa 0,0 l/m 3,5 km/h (1 Bft) W-NW 287 0 min 0,000 mm 1,0 UV-I 156 W/m 10,7 C 12,8 C 9,7 km/h (2 Bft) 98,11 %
25.05.2017 08:34 12,6 C 20,0 C 87 % 1021,4 hPa 0,0 l/m 2,9 km/h (1 Bft) W-NW 282 0 min 0,000 mm 1,2 UV-I 271 W/m 10,5 C 12,6 C 9,7 km/h (2 Bft) 98,00 %
25.05.2017 08:36 12,5 C 20,0 C 88 % 1021,3 hPa 0,0 l/m 3,6 km/h (1 Bft) W-NW 288 2 min 0,000 mm 1,4 UV-I 549 W/m 10,6 C 12,5 C 6,4 km/h (2 Bft) 98,00 %
25.05.2017 08:38 12,6 C 20,0 C 87 % 1021,4 hPa 0,0 l/m 5,9 km/h (2 Bft) SW 227 2 min 0,000 mm 1,4 UV-I 566 W/m 10,5 C 12,6 C 9,7 km/h (2 Bft) 100,00 %
25.05.2017 08:40 12,8 C 20,0 C 85 % 1021,4 hPa 0,0 l/m 5,6 km/h (1 Bft) W 264 2 min 0,000 mm 1,5 UV-I 591 W/m 10,3 C 12,8 C 9,7 km/h (2 Bft) 98,21 %
25.05.2017 08:42 12,9 C 20,0 C 85 % 1021,4 hPa 0,0 l/m 4,3 km/h (1 Bft) W-NW 298 2 min 0,000 mm 1,5 UV-I 624 W/m 10,4 C 12,9 C 8,0 km/h (2 Bft) 100,00 %
25.05.2017 08:44 13,0 C 20,0 C 83 % 1021,4 hPa 0,0 l/m 2,7 km/h (1 Bft) NW 309 2 min 0,000 mm 1,3 UV-I 449 W/m 10,2 C 13,0 C 6,4 km/h (2 Bft) 96,61 %
25.05.2017 08:46 12,9 C 20,0 C 84 % 1021,4 hPa 0,0 l/m 2,5 km/h (1 Bft) NW 304 2 min 0,000 mm 1,3 UV-I 309 W/m 10,3 C 12,9 C 4,8 km/h (1 Bft) 97,37 %
25.05.2017 08:48 12,8 C 20,0 C 83 % 1021,4 hPa 0,0 l/m 2,7 km/h (1 Bft) NW 306 0 min 0,000 mm 1,5 UV-I 225 W/m 10,0 C 12,8 C 8,0 km/h (2 Bft) 97,87 %
25.05.2017 08:50 12,9 C 20,0 C 86 % 1021,4 hPa 0,0 l/m 3,6 km/h (1 Bft) W-NW 295 2 min 0,000 mm 1,5 UV-I 613 W/m 10,6 C 12,9 C 6,4 km/h (2 Bft) 96,23 %
25.05.2017 08:52 12,9 C 20,0 C 84 % 1021,4 hPa 0,0 l/m 2,7 km/h (1 Bft) NW 304 2 min 0,000 mm 1,6 UV-I 634 W/m 10,3 C 12,9 C 4,8 km/h (1 Bft) 95,74 %
25.05.2017 08:54 13,1 C 20,0 C 86 % 1021,4 hPa 0,0 l/m 3,8 km/h (1 Bft) W 261 2 min 0,000 mm 1,7 UV-I 625 W/m 10,8 C 13,1 C 6,4 km/h (2 Bft) 97,44 %
25.05.2017 08:56 13,2 C 20,0 C 85 % 1021,4 hPa 0,0 l/m 2,8 km/h (1 Bft) W-SW 256 2 min 0,000 mm 1,7 UV-I 621 W/m 10,7 C 13,2 C 9,7 km/h (2 Bft) 96,23 %
25.05.2017 08:58 13,2 C 20,0 C 83 % 1021,3 hPa 0,0 l/m 6,7 km/h (2 Bft) W 279 2 min 0,000 mm 1,7 UV-I 619 W/m 10,4 C 13,0 C 11,3 km/h (2 Bft) 95,92 %
25.05.2017 09:00 13,2 C 20,0 C 83 % 1021,4 hPa 0,0 l/m 3,1 km/h (1 Bft) W-NW 301 2 min 0,229 mm 1,6 UV-I 634 W/m 10,4 C 13,2 C 6,4 km/h (2 Bft) 97,62 %
25.05.2017 09:02 13,1 C 20,0 C 83 % 1021,4 hPa 0,0 l/m 1,3 km/h (1 Bft) W-SW 253 2 min 0,000 mm 1,6 UV-I 632 W/m 10,3 C 13,1 C 6,4 km/h (2 Bft) 95,74 %
25.05.2017 09:04 13,1 C 20,0 C 83 % 1021,4 hPa 0,0 l/m 4,0 km/h (1 Bft) W 267 2 min 0,000 mm 1,9 UV-I 638 W/m 10,3 C 13,1 C 6,4 km/h (2 Bft) 96,23 %
25.05.2017 09:06 13,3 C 20,0 C 81 % 1021,4 hPa 0,0 l/m 4,5 km/h (1 Bft) W-NW 300 2 min 0,000 mm 2,0 UV-I 653 W/m 10,1 C 13,3 C 9,7 km/h (2 Bft) 97,37 %
25.05.2017 09:08 13,4 C 20,0 C 82 % 1021,4 hPa 0,0 l/m 2,0 km/h (1 Bft) W-NW 292 2 min 0,000 mm 2,0 UV-I 645 W/m 10,4 C 13,4 C 4,8 km/h (1 Bft) 94,00 %
25.05.2017 09:10 13,6 C 20,0 C 80 % 1021,4 hPa 0,0 l/m 4,0 km/h (1 Bft) N-NW 327 2 min 0,000 mm 2,1 UV-I 642 W/m 10,2 C 13,6 C 9,7 km/h (2 Bft) 95,12 %
25.05.2017 09:12 13,6 C 20,0 C 78 % 1021,4 hPa 0,0 l/m 5,0 km/h (1 Bft) SW 229 2 min 0,000 mm 2,2 UV-I 655 W/m 9,8 C 13,6 C 12,9 km/h (3 Bft) 94,92 %
25.05.2017 09:14 13,7 C 20,0 C 79 % 1021,3 hPa 0,0 l/m 4,6 km/h (1 Bft) N-NW 328 2 min 0,000 mm 2,1 UV-I 654 W/m 10,1 C 13,7 C 9,7 km/h (2 Bft) 97,14 %
25.05.2017 09:16 13,7 C 20,0 C 79 % 1021,3 hPa 0,0 l/m 2,0 km/h (1 Bft) W-NW 296 2 min 0,000 mm 2,1 UV-I 658 W/m 10,1 C 13,7 C 4,8 km/h (1 Bft) 94,34 %
25.05.2017 09:18 13,8 C 20,0 C 81 % 1021,4 hPa 0,0 l/m 1,6 km/h (1 Bft) NW 324 2 min 0,000 mm 2,2 UV-I 630 W/m 10,6 C 13,8 C 4,8 km/h (1 Bft) 95,74 %
25.05.2017 09:20 13,8 C 20,0 C 78 % 1021,3 hPa 0,0 l/m 1,5 km/h (1 Bft) W 271 2 min 0,000 mm 2,4 UV-I 661 W/m 10,0 C 13,8 C 4,8 km/h (1 Bft) 97,37 %
25.05.2017 09:22 13,9 C 20,0 C 79 % 1021,3 hPa 0,0 l/m 6,4 km/h (2 Bft) W-SW 252 2 min 0,000 mm 2,4 UV-I 669 W/m 10,3 C 13,9 C 9,7 km/h (2 Bft) 98,11 %
25.05.2017 09:24 13,9 C 20,0 C 77 % 1021,3 hPa 0,0 l/m 7,3 km/h (2 Bft) W-SW 248 2 min 0,000 mm 2,3 UV-I 690 W/m 9,9 C 13,4 C 12,9 km/h (3 Bft) 98,00 %
25.05.2017 09:26 13,9 C 20,0 C 76 % 1021,3 hPa 0,0 l/m 5,0 km/h (1 Bft) W-NW 298 2 min 0,000 mm 2,6 UV-I 695 W/m 9,7 C 13,9 C 9,7 km/h (2 Bft) 95,74 %
25.05.2017 09:28 14,0 C 20,0 C 77 % 1021,3 hPa 0,0 l/m 5,7 km/h (1 Bft) W-NW 296 2 min 0,000 mm 2,6 UV-I 700 W/m 10,0 C 14,0 C 9,7 km/h (2 Bft) 93,18 %
25.05.2017 09:30 14,0 C 20,0 C 75 % 1021,3 hPa 0,0 l/m 6,2 km/h (2 Bft) W-NW 286 2 min 0,000 mm 2,6 UV-I 694 W/m 9,6 C 14,0 C 11,3 km/h (2 Bft) 94,00 %
25.05.2017 09:32 14,1 C 20,0 C 73 % 1021,3 hPa 0,0 l/m 4,5 km/h (1 Bft) NW 304 2 min 0,000 mm 2,5 UV-I 687 W/m 9,3 C 14,1 C 11,3 km/h (2 Bft) 96,00 %
25.05.2017 09:34 14,1 C 20,0 C 74 % 1021,3 hPa 0,0 l/m 7,1 km/h (2 Bft) W 267 2 min 0,000 mm 2,5 UV-I 694 W/m 9,5 C 13,7 C 12,9 km/h (3 Bft) 94,44 %
25.05.2017 09:36 14,2 C 20,0 C 75 % 1021,3 hPa 0,0 l/m 5,1 km/h (1 Bft) W-SW 252 2 min 0,000 mm 2,4 UV-I 696 W/m 9,8 C 14,2 C 11,3 km/h (2 Bft) 98,11 %
25.05.2017 09:38 14,2 C 20,0 C 74 % 1021,3 hPa 0,0 l/m 4,0 km/h (1 Bft) W-SW 248 2 min 0,000 mm 2,7 UV-I 679 W/m 9,6 C 14,2 C 8,0 km/h (2 Bft) 97,37 %
25.05.2017 09:40 14,1 C 20,0 C 75 % 1021,3 hPa 0,0 l/m 2,4 km/h (1 Bft) W 277 2 min 0,000 mm 2,6 UV-I 659 W/m 9,7 C 14,1 C 8,0 km/h (2 Bft) 96,08 %
25.05.2017 09:42 14,2 C 20,6 C 76 % 1021,3 hPa 0,0 l/m 2,4 km/h (1 Bft) SW 229 2 min 0,000 mm 2,8 UV-I 686 W/m 10,0 C 14,2 C 4,8 km/h (1 Bft) 94,64 %
25.05.2017 09:44 14,5 C 20,6 C 77 % 1021,3 hPa 0,0 l/m 3,0 km/h (1 Bft) SW 232 2 min 0,000 mm 2,9 UV-I 727 W/m 10,5 C 14,5 C 6,4 km/h (2 Bft) 97,37 %
25.05.2017 09:46 14,5 C 20,0 C 75 % 1021,3 hPa 0,0 l/m 4,3 km/h (1 Bft) W 263 2 min 0,000 mm 3,0 UV-I 745 W/m 10,1 C 14,5 C 12,9 km/h (3 Bft) 98,11 %
25.05.2017 09:48 14,6 C 20,6 C 74 % 1021,2 hPa 0,0 l/m 3,0 km/h (1 Bft) NW 309 2 min 0,000 mm 3,0 UV-I 744 W/m 10,0 C 14,6 C 6,4 km/h (2 Bft) 94,74 %
25.05.2017 09:50 14,6 C 20,6 C 72 % 1021,3 hPa 0,0 l/m 4,8 km/h (1 Bft) W 265 2 min 0,000 mm 3,0 UV-I 680 W/m 9,6 C 14,6 C 12,9 km/h (3 Bft) 96,43 %
25.05.2017 09:52 14,4 C 20,0 C 72 % 1021,3 hPa 0,0 l/m 4,1 km/h (1 Bft) W-SW 250 2 min 0,000 mm 3,0 UV-I 733 W/m 9,4 C 14,4 C 11,3 km/h (2 Bft) 98,00 %
25.05.2017 09:54 14,3 C 20,0 C 71 % 1021,3 hPa 0,0 l/m 3,7 km/h (1 Bft) W-SW 252 2 min 0,000 mm 3,0 UV-I 741 W/m 9,1 C 14,3 C 8,0 km/h (2 Bft) 95,12 %
25.05.2017 09:56 14,4 C 20,0 C 73 % 1021,3 hPa 0,0 l/m 4,4 km/h (1 Bft) W 272 2 min 0,000 mm 2,4 UV-I 752 W/m 9,6 C 14,4 C 9,7 km/h (2 Bft) 97,87 %
25.05.2017 09:58 14,4 C 20,0 C 73 % 1021,3 hPa 0,0 l/m 3,1 km/h (1 Bft) W-NW 284 2 min 0,000 mm 2,6 UV-I 752 W/m 9,6 C 14,4 C 8,0 km/h (2 Bft) 95,12 %
25.05.2017 10:00 14,3 C 20,6 C 72 % 1021,2 hPa 0,0 l/m 5,1 km/h (1 Bft) W 265 2 min 0,330 mm 2,5 UV-I 751 W/m 9,3 C 14,3 C 11,3 km/h (2 Bft) 98,21 %
25.05.2017 10:02 14,4 C 20,6 C 74 % 1021,3 hPa 0,0 l/m 9,5 km/h (2 Bft) W-SW 242 2 min 0,000 mm 3,3 UV-I 755 W/m 9,8 C 12,7 C 16,1 km/h (3 Bft) 97,56 %
25.05.2017 10:04 14,6 C 20,6 C 71 % 1021,2 hPa 0,0 l/m 8,9 km/h (2 Bft) W 270 2 min 0,000 mm 3,3 UV-I 757 W/m 9,4 C 13,2 C 14,5 km/h (3 Bft) 96,00 %
25.05.2017 10:06 14,6 C 20,6 C 71 % 1021,2 hPa 0,0 l/m 6,5 km/h (2 Bft) W-SW 255 2 min 0,000 mm 3,3 UV-I 782 W/m 9,4 C 14,6 C 11,3 km/h (2 Bft) 96,00 %
25.05.2017 10:08 14,7 C 20,6 C 71 % 1021,2 hPa 0,0 l/m 8,2 km/h (2 Bft) W 281 2 min 0,000 mm 3,0 UV-I 770 W/m 9,5 C 13,7 C 16,1 km/h (3 Bft) 100,00 %
25.05.2017 10:10 14,7 C 20,6 C 74 % 1021,2 hPa 0,0 l/m 6,9 km/h (2 Bft) W 269 2 min 0,000 mm 2,9 UV-I 765 W/m 10,1 C 14,4 C 12,9 km/h (3 Bft) 100,00 %
25.05.2017 10:12 14,8 C 20,0 C 73 % 1021,2 hPa 0,0 l/m 5,6 km/h (1 Bft) W-SW 241 2 min 0,000 mm 2,0 UV-I 673 W/m 10,0 C 14,8 C 14,5 km/h (3 Bft) 100,00 %
25.05.2017 10:14 14,7 C 20,0 C 70 % 1021,2 hPa 0,0 l/m 10,0 km/h (2 Bft) W-SW 256 0 min 0,000 mm 2,2 UV-I 254 W/m 9,3 C 12,8 C 17,7 km/h (3 Bft) 100,00 %
25.05.2017 10:16 14,6 C 20,0 C 70 % 1021,2 hPa 0,0 l/m 6,3 km/h (2 Bft) SW 230 0 min 0,000 mm 2,1 UV-I 234 W/m 9,2 C 14,6 C 11,3 km/h (2 Bft) 100,00 %
25.05.2017 10:18 14,4 C 20,0 C 71 % 1021,2 hPa 0,0 l/m 3,8 km/h (1 Bft) W-NW 288 0 min 0,000 mm 2,3 UV-I 196 W/m 9,2 C 14,4 C 9,7 km/h (2 Bft) 98,00 %
25.05.2017 10:20 14,4 C 20,6 C 71 % 1021,2 hPa 0,0 l/m 4,8 km/h (1 Bft) SW 227 2 min 0,000 mm 3,5 UV-I 433 W/m 9,2 C 14,4 C 9,7 km/h (2 Bft) 98,00 %
25.05.2017 10:22 14,6 C 20,6 C 69 % 1021,2 hPa 0,0 l/m 9,3 km/h (2 Bft) W-SW 238 2 min 0,000 mm 3,6 UV-I 847 W/m 9,0 C 13,0 C 16,1 km/h (3 Bft) 100,00 %
25.05.2017 10:24 14,8 C 20,6 C 71 % 1021,2 hPa 0,0 l/m 4,0 km/h (1 Bft) W-NW 301 2 min 0,000 mm 3,8 UV-I 891 W/m 9,6 C 14,8 C 8,0 km/h (2 Bft) 95,12 %
25.05.2017 10:26 15,2 C 20,6 C 73 % 1021,2 hPa 0,0 l/m 4,4 km/h (1 Bft) NW 308 2 min 0,000 mm 3,8 UV-I 895 W/m 10,4 C 15,2 C 9,7 km/h (2 Bft) 94,34 %
25.05.2017 10:28 15,4 C 20,6 C 69 % 1021,2 hPa 0,0 l/m 7,0 km/h (2 Bft) W 259 2 min 0,000 mm 3,8 UV-I 939 W/m 9,7 C 15,1 C 16,1 km/h (3 Bft) 100,00 %
25.05.2017 10:30 15,3 C 20,0 C 65 % 1021,1 hPa 0,0 l/m 8,2 km/h (2 Bft) W-SW 238 2 min 0,000 mm 3,5 UV-I 947 W/m 8,8 C 14,3 C 12,9 km/h (3 Bft) 97,87 %
25.05.2017 10:32 15,2 C 20,0 C 68 % 1021,2 hPa 0,0 l/m 4,3 km/h (1 Bft) W-SW 247 0 min 0,000 mm 2,1 UV-I 377 W/m 9,3 C 15,2 C 9,7 km/h (2 Bft) 100,00 %
25.05.2017 10:34 14,9 C 20,0 C 67 % 1021,2 hPa 0,0 l/m 5,6 km/h (1 Bft) W-NW 303 0 min 0,000 mm 2,1 UV-I 214 W/m 8,8 C 14,9 C 11,3 km/h (2 Bft) 97,37 %
25.05.2017 10:36 14,8 C 20,6 C 68 % 1021,2 hPa 0,0 l/m 4,4 km/h (1 Bft) NW 322 0 min 0,000 mm 4,0 UV-I 405 W/m 9,0 C 14,8 C 9,7 km/h (2 Bft) 100,00 %
25.05.2017 10:38 15,2 C 20,6 C 70 % 1021,2 hPa 0,0 l/m 6,3 km/h (2 Bft) W-SW 245 2 min 0,000 mm 4,1 UV-I 895 W/m 9,8 C 15,2 C 12,9 km/h (3 Bft) 97,73 %
25.05.2017 10:40 15,4 C 20,6 C 67 % 1021,2 hPa 0,0 l/m 5,3 km/h (1 Bft) NW 319 2 min 0,000 mm 4,1 UV-I 861 W/m 9,3 C 15,4 C 11,3 km/h (2 Bft) 98,00 %
25.05.2017 10:42 15,7 C 20,6 C 69 % 1021,1 hPa 0,0 l/m 3,5 km/h (1 Bft) NW 304 2 min 0,000 mm 4,0 UV-I 885 W/m 10,0 C 15,7 C 14,5 km/h (3 Bft) 100,00 %
25.05.2017 10:44 15,7 C 20,6 C 64 % 1021,2 hPa 0,0 l/m 11,4 km/h (2 Bft) SW 225 0 min 0,000 mm 3,2 UV-I 361 W/m 8,9 C 13,3 C 17,7 km/h (3 Bft) 97,87 %
25.05.2017 10:46 15,4 C 20,6 C 63 % 1021,2 hPa 0,0 l/m 7,0 km/h (2 Bft) W-SW 248 0 min 0,000 mm 3,7 UV-I 253 W/m 8,4 C 15,1 C 14,5 km/h (3 Bft) 95,74 %
25.05.2017 10:48 15,4 C 20,6 C 65 % 1021,2 hPa 0,0 l/m 10,8 km/h (2 Bft) W 261 2 min 0,000 mm 3,9 UV-I 767 W/m 8,9 C 13,2 C 16,1 km/h (3 Bft) 97,37 %
25.05.2017 10:50 15,4 C 20,6 C 63 % 1021,2 hPa 0,0 l/m 12,7 km/h (3 Bft) W-SW 250 2 min 0,000 mm 3,5 UV-I 984 W/m 8,4 C 12,5 C 17,7 km/h (3 Bft) 96,97 %
25.05.2017 10:52 15,5 C 20,6 C 63 % 1021,2 hPa 0,0 l/m 7,8 km/h (2 Bft) W 277 2 min 0,000 mm 4,2 UV-I 974 W/m 8,5 C 14,7 C 11,3 km/h (2 Bft) 96,61 %
25.05.2017 10:54 15,6 C 20,6 C 69 % 1021,1 hPa 0,0 l/m 4,1 km/h (1 Bft) NW 313 2 min 0,000 mm 4,5 UV-I 953 W/m 9,9 C 15,6 C 11,3 km/h (2 Bft) 100,00 %
25.05.2017 10:56 15,8 C 20,6 C 65 % 1021,1 hPa 0,0 l/m 4,4 km/h (1 Bft) NW 315 2 min 0,000 mm 3,1 UV-I 668 W/m 9,2 C 15,8 C 12,9 km/h (3 Bft) 100,00 %
25.05.2017 10:58 15,7 C 20,6 C 65 % 1021,1 hPa 0,0 l/m 9,3 km/h (2 Bft) SW 221 0 min 0,000 mm 3,7 UV-I 260 W/m 9,1 C 14,2 C 14,5 km/h (3 Bft) 98,00 %
25.05.2017 11:00 15,6 C 20,6 C 66 % 1021,0 hPa 0,0 l/m 5,6 km/h (1 Bft) W-SW 251 0 min 0,000 mm 3,7 UV-I 260 W/m 9,3 C 15,6 C 11,3 km/h (2 Bft) 97,87 %
25.05.2017 11:02 15,6 C 20,6 C 64 % 1021,1 hPa 0,0 l/m 7,0 km/h (2 Bft) W-SW 255 0 min 0,355 mm 3,5 UV-I 260 W/m 8,8 C 15,3 C 20,9 km/h (4 Bft) 96,00 %
25.05.2017 11:04 15,4 C 20,6 C 63 % 1021,1 hPa 0,0 l/m 8,4 km/h (2 Bft) SW 236 0 min 0,000 mm 3,7 UV-I 366 W/m 8,4 C 14,3 C 14,5 km/h (3 Bft) 97,37 %
25.05.2017 11:06 15,6 C 20,6 C 65 % 1021,1 hPa 0,0 l/m 5,4 km/h (1 Bft) W-NW 296 2 min 0,000 mm 4,0 UV-I 1002 W/m 9,0 C 15,6 C 9,7 km/h (2 Bft) 98,11 %
25.05.2017 11:08 15,7 C 20,6 C 66 % 1021,1 hPa 0,0 l/m 2,1 km/h (1 Bft) NW 325 2 min 0,000 mm 3,6 UV-I 1001 W/m 9,4 C 15,7 C 8,0 km/h (2 Bft) 100,00 %
25.05.2017 11:10 15,6 C 20,6 C 61 % 1021,0 hPa 0,0 l/m 2,6 km/h (1 Bft) W-NW 288 2 min 0,000 mm 4,8 UV-I 953 W/m 8,1 C 15,6 C 6,4 km/h (2 Bft) 97,37 %
25.05.2017 11:12 15,8 C 20,6 C 67 % 1021,0 hPa 0,0 l/m 0,4 km/h (0 Bft) NW 319 2 min 0,000 mm 5,0 UV-I 1009 W/m 9,7 C 15,8 C 1,6 km/h (1 Bft) 100,00 %
25.05.2017 11:14 16,1 C 20,6 C 65 % 1021,1 hPa 0,0 l/m 3,0 km/h (1 Bft) N 355 2 min 0,000 mm 4,4 UV-I 1077 W/m 9,5 C 16,1 C 6,4 km/h (2 Bft) 95,74 %
25.05.2017 11:16 16,2 C 20,6 C 63 % 1021,1 hPa 0,0 l/m 2,2 km/h (1 Bft) W 259 2 min 0,000 mm 3,3 UV-I 1049 W/m 9,1 C 16,2 C 11,3 km/h (2 Bft) 97,37 %
25.05.2017 11:18 16,1 C 20,6 C 61 % 1021,1 hPa 0,0 l/m 5,0 km/h (1 Bft) W-NW 302 0 min 0,000 mm 2,1 UV-I 277 W/m 8,6 C 16,1 C 8,0 km/h (2 Bft) 98,31 %
25.05.2017 11:20 15,9 C 20,6 C 65 % 1021,1 hPa 0,0 l/m 8,1 km/h (2 Bft) W-SW 244 0 min 0,000 mm 1,8 UV-I 241 W/m 9,3 C 15,0 C 17,7 km/h (3 Bft) 87,50 %
25.05.2017 11:22 15,6 C 20,6 C 63 % 1021,1 hPa 0,0 l/m 8,0 km/h (2 Bft) W 263 0 min 0,000 mm 1,8 UV-I 214 W/m 8,6 C 14,7 C 14,5 km/h (3 Bft) 96,43 %
25.05.2017 11:24 15,3 C 20,6 C 65 % 1021,1 hPa 0,0 l/m 4,9 km/h (1 Bft) W-NW 284 0 min 0,000 mm 1,9 UV-I 200 W/m 8,8 C 15,3 C 9,7 km/h (2 Bft) 94,34 %
25.05.2017 11:26 15,2 C 20,6 C 67 % 1021,1 hPa 0,0 l/m 6,7 km/h (2 Bft) W-SW 252 0 min 0,000 mm 2,2 UV-I 196 W/m 9,1 C 15,0 C 14,5 km/h (3 Bft) 98,00 %
25.05.2017 11:28 15,1 C 20,6 C 67 % 1021,1 hPa 0,0 l/m 7,1 km/h (2 Bft) W 260 0 min 0,000 mm 4,3 UV-I 409 W/m 9,0 C 14,7 C 11,3 km/h (2 Bft) 94,00 %
25.05.2017 11:30 15,4 C 20,6 C 67 % 1021,1 hPa 0,0 l/m 4,1 km/h (1 Bft) W 265 2 min 0,000 mm 5,1 UV-I 984 W/m 9,3 C 15,4 C 9,7 km/h (2 Bft) 94,44 %
25.05.2017 11:32 15,7 C 20,6 C 65 % 1021,1 hPa 0,0 l/m 4,3 km/h (1 Bft) NW 306 2 min 0,000 mm 5,3 UV-I 983 W/m 9,1 C 15,7 C 9,7 km/h (2 Bft) 94,00 %
25.05.2017 11:34 15,8 C 20,6 C 61 % 1021,0 hPa 0,0 l/m 6,1 km/h (2 Bft) N-NW 338 2 min 0,000 mm 5,4 UV-I 991 W/m 8,3 C 15,8 C 14,5 km/h (3 Bft) 98,11 %
25.05.2017 11:36 16,1 C 20,6 C 67 % 1021,0 hPa 0,0 l/m 2,1 km/h (1 Bft) N-NW 327 2 min 0,000 mm 4,9 UV-I 1002 W/m 10,0 C 16,1 C 6,4 km/h (2 Bft) 95,12 %
25.05.2017 11:38 16,3 C 20,6 C 64 % 1020,9 hPa 0,0 l/m 3,5 km/h (1 Bft) N 351 2 min 0,000 mm 5,6 UV-I 1008 W/m 9,5 C 16,3 C 6,4 km/h (2 Bft) 98,00 %
25.05.2017 11:40 16,3 C 20,6 C 62 % 1020,9 hPa 0,0 l/m 6,7 km/h (2 Bft) W-NW 291 2 min 0,000 mm 4,1 UV-I 842 W/m 9,0 C 16,2 C 14,5 km/h (3 Bft) 94,00 %
25.05.2017 11:42 16,2 C 20,6 C 63 % 1020,9 hPa 0,0 l/m 6,7 km/h (2 Bft) W 269 2 min 0,000 mm 4,8 UV-I 552 W/m 9,1 C 16,1 C 14,5 km/h (3 Bft) 97,87 %
25.05.2017 11:44 16,3 C 20,6 C 61 % 1020,9 hPa 0,0 l/m 10,0 km/h (2 Bft) W 277 2 min 0,000 mm 5,6 UV-I 1089 W/m 8,8 C 14,6 C 14,5 km/h (3 Bft) 98,00 %
25.05.2017 11:46 16,3 C 20,6 C 61 % 1020,9 hPa 0,0 l/m 11,0 km/h (2 Bft) W-SW 255 2 min 0,000 mm 5,0 UV-I 1078 W/m 8,8 C 14,1 C 14,5 km/h (3 Bft) 91,43 %
25.05.2017 11:48 16,4 C 20,6 C 62 % 1021,0 hPa 0,0 l/m 9,7 km/h (2 Bft) W 280 2 min 0,000 mm 3,6 UV-I 815 W/m 9,1 C 14,8 C 14,5 km/h (3 Bft) 92,00 %
25.05.2017 11:50 16,3 C 20,6 C 59 % 1020,9 hPa 0,0 l/m 11,4 km/h (2 Bft) W 279 0 min 0,000 mm 2,9 UV-I 260 W/m 8,3 C 14,0 C 16,1 km/h (3 Bft) 97,56 %
25.05.2017 11:52 16,3 C 20,6 C 61 % 1020,9 hPa 0,2 l/m 12,4 km/h (3 Bft) W-SW 251 2 min 0,000 mm 5,1 UV-I 782 W/m 8,8 C 13,6 C 22,5 km/h (4 Bft) 96,43 %
25.05.2017 11:54 16,4 C 20,6 C 60 % 1020,9 hPa 0,0 l/m 12,6 km/h (3 Bft) S-SW 208 2 min 0,000 mm 5,6 UV-I 1030 W/m 8,6 C 13,7 C 17,7 km/h (3 Bft) 94,74 %
25.05.2017 11:56 16,8 C 20,6 C 61 % 1020,9 hPa 0,0 l/m 8,6 km/h (2 Bft) N-NW 327 2 min 0,000 mm 5,7 UV-I 1037 W/m 9,2 C 15,7 C 16,1 km/h (3 Bft) 98,21 %
25.05.2017 11:58 17,0 C 20,6 C 61 % 1020,8 hPa 0,0 l/m 8,5 km/h (2 Bft) SW 223 2 min 0,000 mm 5,8 UV-I 1073 W/m 9,4 C 16,0 C 16,1 km/h (3 Bft) 92,00 %
25.05.2017 12:00 17,3 C 20,6 C 58 % 1020,8 hPa 0,0 l/m 5,4 km/h (1 Bft) W 264 2 min 0,432 mm 5,9 UV-I 1116 W/m 9,0 C 17,3 C 11,3 km/h (2 Bft) 92,68 %
25.05.2017 12:02 17,2 C 20,6 C 57 % 1020,8 hPa 0,0 l/m 12,5 km/h (3 Bft) W-SW 249 2 min 0,000 mm 4,9 UV-I 889 W/m 8,6 C 14,6 C 22,5 km/h (4 Bft) 86,79 %
25.05.2017 12:04 16,9 C 20,6 C 55 % 1020,8 hPa 0,0 l/m 8,2 km/h (2 Bft) W-NW 290 2 min 0,000 mm 3,0 UV-I 724 W/m 7,8 C 16,0 C 19,3 km/h (3 Bft) 100,00 %
25.05.2017 12:06 16,7 C 20,6 C 57 % 1020,7 hPa 0,0 l/m 6,0 km/h (2 Bft) SW 232 0 min 0,000 mm 2,8 UV-I 380 W/m 8,1 C 16,7 C 12,9 km/h (3 Bft) 96,23 %
25.05.2017 12:08 16,6 C 20,6 C 59 % 1020,7 hPa 0,0 l/m 10,2 km/h (2 Bft) W-NW 300 0 min 0,000 mm 2,7 UV-I 381 W/m 8,6 C 14,8 C 16,1 km/h (3 Bft) 95,12 %
25.05.2017 12:10 16,5 C 20,6 C 62 % 1020,8 hPa 0,0 l/m 9,3 km/h (2 Bft) W-SW 254 0 min 0,000 mm 3,1 UV-I 374 W/m 9,2 C 15,1 C 14,5 km/h (3 Bft) 95,24 %
25.05.2017 12:12 16,3 C 20,6 C 61 % 1020,8 hPa 0,0 l/m 9,8 km/h (2 Bft) W-NW 296 0 min 0,000 mm 2,9 UV-I 343 W/m 8,8 C 14,6 C 17,7 km/h (3 Bft) 94,34 %
25.05.2017 12:14 16,2 C 20,6 C 63 % 1020,8 hPa 0,0 l/m 7,8 km/h (2 Bft) SW 226 0 min 0,000 mm 2,9 UV-I 343 W/m 9,1 C 15,5 C 12,9 km/h (3 Bft) 96,00 %
25.05.2017 12:16 16,3 C 20,6 C 64 % 1020,8 hPa 0,0 l/m 6,3 km/h (2 Bft) W 261 0 min 0,000 mm 2,9 UV-I 359 W/m 9,5 C 16,3 C 12,9 km/h (3 Bft) 95,12 %
25.05.2017 12:18 16,3 C 20,6 C 61 % 1020,8 hPa 0,0 l/m 6,2 km/h (2 Bft) W-SW 253 0 min 0,000 mm 2,6 UV-I 277 W/m 8,8 C 16,3 C 11,3 km/h (2 Bft) 96,23 %
25.05.2017 12:20 16,2 C 20,6 C 63 % 1020,8 hPa 0,0 l/m 6,5 km/h (2 Bft) W-NW 284 0 min 0,000 mm 3,3 UV-I 274 W/m 9,1 C 16,2 C 14,5 km/h (3 Bft) 97,37 %
25.05.2017 12:22 16,2 C 20,6 C 58 % 1020,8 hPa 0,0 l/m 7,3 km/h (2 Bft) W-SW 241 0 min 0,000 mm 3,5 UV-I 270 W/m 7,9 C 15,7 C 16,1 km/h (3 Bft) 95,45 %
25.05.2017 12:24 16,2 C 20,6 C 61 % 1020,8 hPa 0,0 l/m 7,7 km/h (2 Bft) W-SW 242 2 min 0,000 mm 5,2 UV-I 637 W/m 8,7 C 15,5 C 12,9 km/h (3 Bft) 94,92 %
25.05.2017 12:26 16,5 C 20,6 C 59 % 1020,7 hPa 0,0 l/m 6,2 km/h (2 Bft) NW 317 2 min 0,000 mm 5,9 UV-I 1130 W/m 8,5 C 16,5 C 12,9 km/h (3 Bft) 94,29 %
25.05.2017 12:28 16,8 C 20,6 C 57 % 1020,7 hPa 0,0 l/m 5,3 km/h (1 Bft) W 272 2 min 0,000 mm 4,7 UV-I 1146 W/m 8,2 C 16,8 C 12,9 km/h (3 Bft) 94,92 %
25.05.2017 12:30 16,8 C 20,6 C 57 % 1020,6 hPa 0,0 l/m 2,8 km/h (1 Bft) W-NW 298 2 min 0,000 mm 5,0 UV-I 506 W/m 8,2 C 16,8 C 8,0 km/h (2 Bft) 94,74 %
25.05.2017 12:32 17,1 C 20,6 C 61 % 1020,7 hPa 0,0 l/m 4,3 km/h (1 Bft) W-SW 250 2 min 0,000 mm 6,3 UV-I 1144 W/m 9,5 C 17,1 C 11,3 km/h (2 Bft) 94,00 %
25.05.2017 12:34 17,3 C 20,6 C 58 % 1020,7 hPa 0,0 l/m 8,0 km/h (2 Bft) W-SW 245 2 min 0,000 mm 6,3 UV-I 1115 W/m 9,0 C 16,5 C 19,3 km/h (3 Bft) 97,73 %
25.05.2017 12:36 17,3 C 20,6 C 55 % 1020,6 hPa 0,0 l/m 13,2 km/h (3 Bft) W-NW 291 2 min 0,000 mm 6,2 UV-I 1099 W/m 8,2 C 14,5 C 25,7 km/h (4 Bft) 94,64 %
25.05.2017 12:38 17,4 C 20,6 C 58 % 1020,6 hPa 0,0 l/m 4,7 km/h (1 Bft) SW 229 2 min 0,000 mm 6,2 UV-I 1117 W/m 9,1 C 17,4 C 9,7 km/h (2 Bft) 89,47 %
25.05.2017 12:40 17,6 C 20,6 C 58 % 1020,6 hPa 0,0 l/m 9,4 km/h (2 Bft) W-SW 257 2 min 0,000 mm 4,2 UV-I 1160 W/m 9,2 C 16,2 C 17,7 km/h (3 Bft) 95,74 %
25.05.2017 12:42 17,5 C 20,6 C 54 % 1020,6 hPa 0,0 l/m 11,5 km/h (2 Bft) W 273 2 min 0,000 mm 4,7 UV-I 992 W/m 8,1 C 15,3 C 22,5 km/h (4 Bft) 93,62 %
25.05.2017 12:44 17,5 C 20,6 C 57 % 1020,6 hPa 0,0 l/m 11,2 km/h (2 Bft) SW 222 2 min 0,000 mm 6,1 UV-I 1063 W/m 8,9 C 15,4 C 16,1 km/h (3 Bft) 94,34 %
25.05.2017 12:46 17,7 C 20,6 C 53 % 1020,5 hPa 0,0 l/m 10,8 km/h (2 Bft) W-NW 286 2 min 0,000 mm 6,2 UV-I 1124 W/m 8,0 C 15,8 C 17,7 km/h (3 Bft) 97,30 %
25.05.2017 12:48 17,7 C 20,6 C 54 % 1020,6 hPa 0,0 l/m 17,0 km/h (3 Bft) W-SW 241 2 min 0,000 mm 6,2 UV-I 1141 W/m 8,3 C 13,9 C 27,4 km/h (4 Bft) 94,34 %
25.05.2017 12:50 17,6 C 20,6 C 53 % 1020,6 hPa 0,0 l/m 13,5 km/h (3 Bft) S-SW 211 2 min 0,000 mm 5,1 UV-I 1150 W/m 7,9 C 14,8 C 22,5 km/h (4 Bft) 90,38 %
25.05.2017 12:52 17,9 C 20,6 C 57 % 1020,5 hPa 0,0 l/m 9,6 km/h (2 Bft) W-NW 292 2 min 0,000 mm 6,2 UV-I 1119 W/m 9,3 C 16,5 C 12,9 km/h (3 Bft) 92,59 %
25.05.2017 12:54 18,2 C 20,6 C 57 % 1020,5 hPa 0,0 l/m 11,5 km/h (2 Bft) W-NW 291 2 min 0,000 mm 6,4 UV-I 1117 W/m 9,5 C 16,1 C 19,3 km/h (3 Bft) 90,77 %
25.05.2017 12:56 18,1 C 20,6 C 55 % 1020,6 hPa 0,0 l/m 7,9 km/h (2 Bft) W-SW 252 2 min 0,000 mm 4,9 UV-I 989 W/m 8,9 C 17,4 C 12,9 km/h (3 Bft) 97,87 %
25.05.2017 12:58 18,1 C 20,6 C 54 % 1020,6 hPa 0,0 l/m 9,5 km/h (2 Bft) W-SW 255 2 min 0,000 mm 5,2 UV-I 597 W/m 8,6 C 16,7 C 19,3 km/h (3 Bft) 94,00 %
25.05.2017 13:00 17,8 C 20,6 C 52 % 1020,6 hPa 0,0 l/m 15,8 km/h (3 Bft) W-SW 244 2 min 0,457 mm 5,3 UV-I 580 W/m 7,8 C 14,4 C 24,1 km/h (4 Bft) 97,37 %
25.05.2017 13:02 17,6 C 20,6 C 51 % 1020,5 hPa 0,0 l/m 11,9 km/h (2 Bft) W-SW 237 2 min 0,000 mm 5,2 UV-I 580 W/m 7,3 C 15,3 C 20,9 km/h (4 Bft) 96,23 %
25.05.2017 13:04 17,5 C 20,6 C 51 % 1020,6 hPa 0,0 l/m 10,4 km/h (2 Bft) W-SW 244 2 min 0,000 mm 5,0 UV-I 629 W/m 7,3 C 15,7 C 17,7 km/h (3 Bft) 92,68 %
25.05.2017 13:06 17,4 C 20,6 C 52 % 1020,6 hPa 0,0 l/m 6,1 km/h (2 Bft) W-SW 248 2 min 0,000 mm 4,4 UV-I 693 W/m 7,4 C 17,4 C 16,1 km/h (3 Bft) 97,73 %
25.05.2017 13:08 17,3 C 21,1 C 54 % 1020,6 hPa 0,0 l/m 7,8 km/h (2 Bft) W-SW 244 2 min 0,000 mm 4,2 UV-I 515 W/m 7,9 C 16,6 C 12,9 km/h (3 Bft) 94,00 %
25.05.2017 13:10 17,4 C 21,1 C 52 % 1020,6 hPa 0,0 l/m 11,3 km/h (2 Bft) W 267 2 min 0,000 mm 5,2 UV-I 529 W/m 7,4 C 15,3 C 24,1 km/h (4 Bft) 98,00 %
25.05.2017 13:12 17,3 C 21,1 C 53 % 1020,6 hPa 0,0 l/m 10,9 km/h (2 Bft) W 262 2 min 0,000 mm 4,5 UV-I 509 W/m 7,6 C 15,3 C 19,3 km/h (3 Bft) 95,74 %
25.05.2017 13:14 17,4 C 21,1 C 53 % 1020,6 hPa 0,0 l/m 11,3 km/h (2 Bft) W 259 2 min 0,000 mm 6,3 UV-I 989 W/m 7,7 C 15,3 C 25,7 km/h (4 Bft) 92,68 %
25.05.2017 13:16 17,6 C 21,1 C 54 % 1020,7 hPa 0,0 l/m 13,4 km/h (3 Bft) SW 231 2 min 0,000 mm 6,2 UV-I 1146 W/m 8,2 C 14,8 C 29,0 km/h (5 Bft) 95,35 %
25.05.2017 13:18 17,9 C 21,1 C 54 % 1020,5 hPa 0,0 l/m 14,6 km/h (3 Bft) SW 236 2 min 0,000 mm 6,2 UV-I 1152 W/m 8,5 C 14,8 C 25,7 km/h (4 Bft) 94,64 %
25.05.2017 13:20 18,0 C 21,1 C 50 % 1020,6 hPa 0,0 l/m 13,7 km/h (3 Bft) SW 229 2 min 0,000 mm 6,2 UV-I 1119 W/m 7,4 C 15,2 C 29,0 km/h (5 Bft) 92,00 %
25.05.2017 13:22 18,1 C 21,1 C 51 % 1020,6 hPa 0,0 l/m 8,0 km/h (2 Bft) W-NW 292 2 min 0,000 mm 4,3 UV-I 1132 W/m 7,8 C 17,4 C 17,7 km/h (3 Bft) 95,45 %
25.05.2017 13:24 17,8 C 21,1 C 50 % 1020,5 hPa 0,0 l/m 10,6 km/h (2 Bft) SW 230 2 min 0,000 mm 3,9 UV-I 508 W/m 7,2 C 16,0 C 20,9 km/h (4 Bft) 97,73 %
25.05.2017 13:26 17,6 C 21,1 C 53 % 1020,5 hPa 0,0 l/m 7,3 km/h (2 Bft) W-NW 295 0 min 0,000 mm 3,9 UV-I 453 W/m 7,9 C 17,2 C 16,1 km/h (3 Bft) 94,00 %
25.05.2017 13:28 17,4 C 21,1 C 54 % 1020,5 hPa 0,0 l/m 5,7 km/h (1 Bft) NW 306 0 min 0,000 mm 3,7 UV-I 415 W/m 8,0 C 17,4 C 14,5 km/h (3 Bft) 92,31 %
25.05.2017 13:30 17,3 C 21,1 C 54 % 1020,5 hPa 0,0 l/m 6,9 km/h (2 Bft) W-SW 254 0 min 0,000 mm 5,0 UV-I 368 W/m 7,9 C 17,1 C 22,5 km/h (4 Bft) 91,53 %
25.05.2017 13:32 17,2 C 21,1 C 51 % 1020,5 hPa 0,0 l/m 15,1 km/h (3 Bft) W-SW 255 0 min 0,000 mm 3,5 UV-I 335 W/m 7,0 C 13,8 C 20,9 km/h (4 Bft) 95,12 %
25.05.2017 13:34 17,1 C 21,1 C 52 % 1020,5 hPa 0,0 l/m 10,6 km/h (2 Bft) W-SW 248 0 min 0,000 mm 4,8 UV-I 397 W/m 7,2 C 15,2 C 24,1 km/h (4 Bft) 95,65 %
25.05.2017 13:36 17,3 C 21,1 C 54 % 1020,5 hPa 0,0 l/m 5,9 km/h (2 Bft) W-SW 240 2 min 0,000 mm 5,2 UV-I 1125 W/m 7,9 C 17,3 C 11,3 km/h (2 Bft) 97,73 %
25.05.2017 13:38 17,6 C 21,1 C 53 % 1020,5 hPa 0,0 l/m 8,0 km/h (2 Bft) SW 221 2 min 0,000 mm 5,1 UV-I 922 W/m 7,9 C 16,8 C 17,7 km/h (3 Bft) 96,43 %
25.05.2017 13:40 17,7 C 21,1 C 53 % 1020,5 hPa 0,0 l/m 9,8 km/h (2 Bft) W-SW 244 2 min 0,000 mm 3,9 UV-I 483 W/m 8,0 C 16,2 C 19,3 km/h (3 Bft) 97,56 %
25.05.2017 13:42 17,8 C 21,1 C 55 % 1020,5 hPa 0,0 l/m 7,1 km/h (2 Bft) W-SW 254 2 min 0,000 mm 4,2 UV-I 531 W/m 8,6 C 17,5 C 12,9 km/h (3 Bft) 96,00 %
25.05.2017 13:44 18,0 C 21,1 C 57 % 1020,5 hPa 0,0 l/m 5,6 km/h (1 Bft) W 261 2 min 0,000 mm 5,9 UV-I 531 W/m 9,4 C 18,0 C 11,3 km/h (2 Bft) 92,50 %
25.05.2017 13:46 18,3 C 21,1 C 54 % 1020,4 hPa 0,0 l/m 5,4 km/h (1 Bft) W-NW 301 2 min 0,000 mm 6,2 UV-I 1151 W/m 8,8 C 18,3 C 9,7 km/h (2 Bft) 100,00 %
25.05.2017 13:48 18,6 C 21,1 C 54 % 1020,4 hPa 0,0 l/m 8,6 km/h (2 Bft) W 275 2 min 0,000 mm 5,8 UV-I 1176 W/m 9,1 C 17,6 C 16,1 km/h (3 Bft) 100,00 %
25.05.2017 13:50 18,5 C 21,1 C 52 % 1020,4 hPa 0,0 l/m 4,3 km/h (1 Bft) W-SW 248 2 min 0,000 mm 3,6 UV-I 959 W/m 8,5 C 18,5 C 12,9 km/h (3 Bft) 96,43 %
25.05.2017 13:52 18,2 C 21,1 C 52 % 1020,4 hPa 0,0 l/m 11,4 km/h (2 Bft) NW 304 0 min 0,000 mm 2,4 UV-I 386 W/m 8,2 C 16,2 C 17,7 km/h (3 Bft) 94,74 %
25.05.2017 13:54 17,8 C 21,1 C 54 % 1020,4 hPa 0,0 l/m 6,6 km/h (2 Bft) N-NW 330 0 min 0,000 mm 2,1 UV-I 326 W/m 8,4 C 17,7 C 16,1 km/h (3 Bft) 100,00 %
25.05.2017 13:56 17,5 C 21,1 C 56 % 1020,4 hPa 0,0 l/m 5,7 km/h (1 Bft) N-NW 336 0 min 0,000 mm 1,8 UV-I 300 W/m 8,6 C 17,5 C 12,9 km/h (3 Bft) 94,00 %
25.05.2017 13:58 17,3 C 21,1 C 58 % 1020,4 hPa 0,0 l/m 2,1 km/h (1 Bft) W-NW 298 0 min 0,000 mm 1,8 UV-I 291 W/m 9,0 C 17,3 C 9,7 km/h (2 Bft) 95,74 %
25.05.2017 14:00 17,3 C 21,1 C 60 % 1020,4 hPa 0,0 l/m 3,1 km/h (1 Bft) W-NW 294 0 min 0,000 mm 2,0 UV-I 311 W/m 9,5 C 17,3 C 11,3 km/h (2 Bft) 100,00 %
25.05.2017 14:02 17,2 C 21,1 C 58 % 1020,4 hPa 0,0 l/m 3,3 km/h (1 Bft) W 263 0 min 0,458 mm 2,3 UV-I 338 W/m 8,9 C 17,2 C 9,7 km/h (2 Bft) 97,73 %
25.05.2017 14:04 17,1 C 21,1 C 60 % 1020,4 hPa 0,0 l/m 1,5 km/h (1 Bft) W 259 0 min 0,000 mm 3,1 UV-I 388 W/m 9,3 C 17,1 C 6,4 km/h (2 Bft) 96,00 %
25.05.2017 14:06 17,2 C 21,1 C 57 % 1020,3 hPa 0,0 l/m 5,3 km/h (1 Bft) N-NW 346 0 min 0,000 mm 4,6 UV-I 392 W/m 8,6 C 17,2 C 11,3 km/h (2 Bft) 98,11 %
25.05.2017 14:08 17,4 C 21,1 C 59 % 1020,3 hPa 0,0 l/m 2,3 km/h (1 Bft) NW 317 2 min 0,000 mm 4,9 UV-I 546 W/m 9,3 C 17,4 C 4,8 km/h (1 Bft) 100,00 %
25.05.2017 14:10 17,8 C 21,1 C 59 % 1020,4 hPa 0,0 l/m 3,3 km/h (1 Bft) N-NW 339 2 min 0,000 mm 5,8 UV-I 1098 W/m 9,7 C 17,8 C 8,0 km/h (2 Bft) 97,44 %
25.05.2017 14:12 18,1 C 21,1 C 57 % 1020,4 hPa 0,0 l/m 4,1 km/h (1 Bft) N 355 2 min 0,000 mm 4,4 UV-I 1014 W/m 9,4 C 18,1 C 11,3 km/h (2 Bft) 96,00 %
25.05.2017 14:14 18,0 C 21,1 C 56 % 1020,4 hPa 0,0 l/m 6,1 km/h (2 Bft) W 268 0 min 0,000 mm 3,1 UV-I 413 W/m 9,1 C 18,0 C 12,9 km/h (3 Bft) 96,23 %
25.05.2017 14:16 17,9 C 21,1 C 58 % 1020,4 hPa 0,0 l/m 6,6 km/h (2 Bft) N-NO 23 2 min 0,000 mm 3,8 UV-I 536 W/m 9,5 C 17,8 C 16,1 km/h (3 Bft) 100,00 %
25.05.2017 14:18 17,8 C 21,1 C 58 % 1020,4 hPa 0,0 l/m 5,3 km/h (1 Bft) W 277 2 min 0,000 mm 3,9 UV-I 712 W/m 9,4 C 17,8 C 12,9 km/h (3 Bft) 92,68 %
25.05.2017 14:20 17,7 C 21,1 C 61 % 1020,3 hPa 0,0 l/m 1,9 km/h (1 Bft) NW 325 2 min 0,000 mm 3,2 UV-I 511 W/m 10,1 C 17,7 C 6,4 km/h (2 Bft) 98,11 %
25.05.2017 14:22 17,5 C 21,1 C 59 % 1020,3 hPa 0,0 l/m 4,4 km/h (1 Bft) NW 317 0 min 0,000 mm 2,9 UV-I 396 W/m 9,4 C 17,5 C 19,3 km/h (3 Bft) 96,00 %
25.05.2017 14:24 17,3 C 21,1 C 55 % 1020,3 hPa 0,0 l/m 7,4 km/h (2 Bft) NW 309 0 min 0,000 mm 2,6 UV-I 365 W/m 8,2 C 16,8 C 19,3 km/h (3 Bft) 100,00 %
25.05.2017 14:26 17,2 C 21,1 C 58 % 1020,3 hPa 0,0 l/m 5,1 km/h (1 Bft) W 267 0 min 0,000 mm 2,6 UV-I 369 W/m 8,9 C 17,2 C 12,9 km/h (3 Bft) 91,49 %
25.05.2017 14:28 17,2 C 21,1 C 57 % 1020,3 hPa 0,0 l/m 8,3 km/h (2 Bft) N-NW 327 0 min 0,000 mm 2,7 UV-I 394 W/m 8,6 C 16,3 C 17,7 km/h (3 Bft) 94,00 %
25.05.2017 14:30 17,2 C 21,1 C 55 % 1020,3 hPa 0,0 l/m 7,0 km/h (2 Bft) W-SW 240 0 min 0,000 mm 2,9 UV-I 431 W/m 8,1 C 16,9 C 14,5 km/h (3 Bft) 100,00 %
25.05.2017 14:32 17,1 C 21,1 C 57 % 1020,3 hPa 0,0 l/m 7,1 km/h (2 Bft) W 276 0 min 0,000 mm 3,0 UV-I 453 W/m 8,5 C 16,7 C 14,5 km/h (3 Bft) 98,11 %
25.05.2017 14:34 17,1 C 21,1 C 55 % 1020,2 hPa 0,0 l/m 5,9 km/h (2 Bft) N 11 0 min 0,000 mm 3,1 UV-I 445 W/m 8,0 C 17,1 C 12,9 km/h (3 Bft) 93,18 %
25.05.2017 14:36 17,2 C 21,1 C 57 % 1020,3 hPa 0,0 l/m 5,0 km/h (1 Bft) W-SW 253 0 min 0,000 mm 2,9 UV-I 423 W/m 8,6 C 17,2 C 12,9 km/h (3 Bft) 98,11 %
25.05.2017 14:38 17,3 C 21,1 C 56 % 1020,3 hPa 0,0 l/m 5,5 km/h (1 Bft) W 276 0 min 0,000 mm 2,7 UV-I 404 W/m 8,4 C 17,3 C 14,5 km/h (3 Bft) 100,00 %
25.05.2017 14:40 17,3 C 21,1 C 55 % 1020,3 hPa 0,0 l/m 7,3 km/h (2 Bft) W 263 0 min 0,000 mm 3,2 UV-I 426 W/m 8,2 C 16,9 C 12,9 km/h (3 Bft) 96,43 %
25.05.2017 14:42 17,6 C 21,1 C 58 % 1020,2 hPa 0,0 l/m 7,0 km/h (2 Bft) W-SW 246 0 min 0,000 mm 3,3 UV-I 431 W/m 9,2 C 17,3 C 14,5 km/h (3 Bft) 100,00 %
25.05.2017 14:44 17,6 C 21,1 C 56 % 1020,2 hPa 0,0 l/m 4,3 km/h (1 Bft) W-SW 244 2 min 0,000 mm 3,5 UV-I 474 W/m 8,7 C 17,6 C 11,3 km/h (2 Bft) 98,00 %
25.05.2017 14:46 17,8 C 21,1 C 57 % 1020,3 hPa 0,0 l/m 3,7 km/h (1 Bft) N-NW 338 2 min 0,000 mm 5,2 UV-I 780 W/m 9,2 C 17,8 C 8,0 km/h (2 Bft) 95,24 %
25.05.2017 14:48 18,0 C 21,1 C 56 % 1020,2 hPa 0,0 l/m 3,4 km/h (1 Bft) W-NW 292 2 min 0,000 mm 5,2 UV-I 1006 W/m 9,1 C 18,0 C 6,4 km/h (2 Bft) 95,45 %
25.05.2017 14:50 18,3 C 21,1 C 58 % 1020,1 hPa 0,0 l/m 4,5 km/h (1 Bft) NW 317 2 min 0,000 mm 5,1 UV-I 983 W/m 9,9 C 18,3 C 12,9 km/h (3 Bft) 100,00 %
25.05.2017 14:52 18,4 C 21,1 C 59 % 1020,1 hPa 0,0 l/m 6,1 km/h (2 Bft) N 9 2 min 0,000 mm 4,9 UV-I 976 W/m 10,2 C 18,4 C 12,9 km/h (3 Bft) 93,62 %
25.05.2017 14:54 18,3 C 21,1 C 56 % 1020,1 hPa 0,0 l/m 6,1 km/h (2 Bft) NO 36 2 min 0,000 mm 3,1 UV-I 515 W/m 9,4 C 18,3 C 16,1 km/h (3 Bft) 100,00 %
25.05.2017 14:56 17,8 C 21,1 C 54 % 1020,1 hPa 0,0 l/m 6,6 km/h (2 Bft) NW 321 0 min 0,000 mm 2,6 UV-I 279 W/m 8,4 C 17,7 C 14,5 km/h (3 Bft) 97,56 %
25.05.2017 14:58 17,3 C 21,1 C 57 % 1020,1 hPa 0,0 l/m 5,6 km/h (1 Bft) N-NO 17 0 min 0,000 mm 2,2 UV-I 230 W/m 8,7 C 17,3 C 14,5 km/h (3 Bft) 100,00 %
25.05.2017 15:00 17,1 C 21,1 C 60 % 1020,1 hPa 0,0 l/m 2,3 km/h (1 Bft) N-NW 331 0 min 0,355 mm 2,7 UV-I 216 W/m 9,3 C 17,1 C 6,4 km/h (2 Bft) 95,12 %
25.05.2017 15:02 17,2 C 21,1 C 58 % 1020,1 hPa 0,0 l/m 3,8 km/h (1 Bft) N 5 2 min 0,000 mm 4,4 UV-I 801 W/m 8,9 C 17,2 C 8,0 km/h (2 Bft) 100,00 %
25.05.2017 15:04 17,5 C 21,1 C 58 % 1020,1 hPa 0,0 l/m 5,2 km/h (1 Bft) N 355 2 min 0,000 mm 3,8 UV-I 860 W/m 9,1 C 17,5 C 14,5 km/h (3 Bft) 100,00 %
25.05.2017 15:06 17,4 C 21,1 C 57 % 1020,0 hPa 0,0 l/m 1,1 km/h (1 Bft) N 355 0 min 0,000 mm 3,1 UV-I 398 W/m 8,8 C 17,4 C 3,2 km/h (1 Bft) 97,37 %
25.05.2017 15:08 17,4 C 21,1 C 55 % 1020,0 hPa 0,0 l/m 1,2 km/h (1 Bft) O-SO 115 2 min 0,000 mm 4,5 UV-I 586 W/m 8,3 C 17,4 C 3,2 km/h (1 Bft) 98,00 %
25.05.2017 15:10 17,8 C 21,1 C 58 % 1020,0 hPa 0,0 l/m 1,4 km/h (1 Bft) NW 315 2 min 0,000 mm 4,3 UV-I 901 W/m 9,4 C 17,8 C 4,8 km/h (1 Bft) 94,00 %
25.05.2017 15:12 18,1 C 21,1 C 55 % 1020,0 hPa 0,0 l/m 9,7 km/h (2 Bft) SW 226 2 min 0,000 mm 4,4 UV-I 867 W/m 8,9 C 16,7 C 16,1 km/h (3 Bft) 98,00 %
25.05.2017 15:14 18,3 C 21,1 C 52 % 1020,0 hPa 0,0 l/m 10,2 km/h (2 Bft) W-SW 246 2 min 0,000 mm 4,4 UV-I 852 W/m 8,3 C 16,7 C 16,1 km/h (3 Bft) 97,37 %
25.05.2017 15:16 18,6 C 21,1 C 48 % 1020,0 hPa 0,0 l/m 6,0 km/h (2 Bft) W-NW 292 2 min 0,000 mm 4,2 UV-I 861 W/m 7,4 C 18,6 C 12,9 km/h (3 Bft) 94,34 %
25.05.2017 15:18 18,6 C 21,1 C 52 % 1020,1 hPa 0,0 l/m 6,5 km/h (2 Bft) W 273 2 min 0,000 mm 4,3 UV-I 839 W/m 8,5 C 18,6 C 14,5 km/h (3 Bft) 92,11 %
25.05.2017 15:20 18,6 C 21,1 C 50 % 1020,0 hPa 0,0 l/m 5,3 km/h (1 Bft) W 259 2 min 0,000 mm 4,3 UV-I 809 W/m 8,0 C 18,6 C 11,3 km/h (2 Bft) 94,00 %
25.05.2017 15:22 18,7 C 21,1 C 51 % 1020,0 hPa 0,0 l/m 4,0 km/h (1 Bft) O-NO 71 2 min 0,000 mm 4,2 UV-I 808 W/m 8,4 C 18,7 C 12,9 km/h (3 Bft) 92,86 %
25.05.2017 15:24 18,8 C 21,1 C 50 % 1020,0 hPa 0,0 l/m 5,1 km/h (1 Bft) NW 305 2 min 0,000 mm 4,2 UV-I 800 W/m 8,2 C 18,8 C 14,5 km/h (3 Bft) 98,00 %
25.05.2017 15:26 18,9 C 21,1 C 54 % 1020,0 hPa 0,0 l/m 4,6 km/h (1 Bft) N 355 2 min 0,000 mm 4,1 UV-I 794 W/m 9,4 C 18,9 C 16,1 km/h (3 Bft) 94,00 %
25.05.2017 15:28 18,9 C 21,1 C 50 % 1020,0 hPa 0,0 l/m 7,5 km/h (2 Bft) W-SW 255 2 min 0,000 mm 4,1 UV-I 804 W/m 8,2 C 18,4 C 14,5 km/h (3 Bft) 97,73 %
25.05.2017 15:30 18,9 C 21,1 C 48 % 1019,9 hPa 0,0 l/m 7,6 km/h (2 Bft) O-NO 73 2 min 0,000 mm 4,1 UV-I 828 W/m 7,6 C 18,4 C 19,3 km/h (3 Bft) 95,45 %
25.05.2017 15:32 18,7 C 21,1 C 48 % 1020,0 hPa 0,0 l/m 6,4 km/h (2 Bft) NW 305 2 min 0,000 mm 3,8 UV-I 855 W/m 7,5 C 18,7 C 19,3 km/h (3 Bft) 94,64 %
25.05.2017 15:34 18,7 C 21,1 C 53 % 1020,0 hPa 0,0 l/m 1,8 km/h (1 Bft) N-NO 16 2 min 0,000 mm 3,0 UV-I 856 W/m 8,9 C 18,7 C 4,8 km/h (1 Bft) 98,00 %
25.05.2017 15:36 18,8 C 21,1 C 55 % 1020,0 hPa 0,0 l/m 1,4 km/h (1 Bft) W-NW 294 2 min 0,000 mm 3,3 UV-I 856 W/m 9,6 C 18,8 C 6,4 km/h (2 Bft) 94,29 %
25.05.2017 15:38 18,6 C 21,1 C 53 % 1020,0 hPa 0,0 l/m 2,7 km/h (1 Bft) W 279 2 min 0,000 mm 3,4 UV-I 856 W/m 8,8 C 18,6 C 9,7 km/h (2 Bft) 94,34 %
25.05.2017 15:40 18,5 C 21,1 C 51 % 1020,0 hPa 0,0 l/m 3,7 km/h (1 Bft) W-NW 301 2 min 0,000 mm 3,4 UV-I 856 W/m 8,2 C 18,5 C 12,9 km/h (3 Bft) 96,00 %
25.05.2017 15:42 18,6 C 21,1 C 49 % 1020,0 hPa 0,0 l/m 7,6 km/h (2 Bft) S-SW 204 2 min 0,000 mm 3,8 UV-I 869 W/m 7,7 C 18,1 C 14,5 km/h (3 Bft) 97,56 %
25.05.2017 15:44 18,6 C 21,1 C 50 % 1020,0 hPa 0,0 l/m 4,8 km/h (1 Bft) W 267 2 min 0,000 mm 3,5 UV-I 872 W/m 8,0 C 18,6 C 9,7 km/h (2 Bft) 100,00 %
25.05.2017 15:46 18,9 C 21,1 C 50 % 1020,0 hPa 0,0 l/m 8,5 km/h (2 Bft) W 271 2 min 0,000 mm 3,2 UV-I 872 W/m 8,2 C 18,0 C 17,7 km/h (3 Bft) 100,00 %
25.05.2017 15:48 18,9 C 21,1 C 47 % 1019,9 hPa 0,0 l/m 9,5 km/h (2 Bft) W-SW 253 2 min 0,000 mm 3,8 UV-I 883 W/m 7,3 C 17,6 C 16,1 km/h (3 Bft) 97,87 %
25.05.2017 15:50 19,2 C 21,1 C 48 % 1019,9 hPa 0,0 l/m 7,2 km/h (2 Bft) W-NW 285 2 min 0,000 mm 3,7 UV-I 853 W/m 7,9 C 18,9 C 12,9 km/h (3 Bft) 97,87 %
25.05.2017 15:52 19,3 C 21,1 C 49 % 1019,9 hPa 0,0 l/m 5,5 km/h (1 Bft) W 268 2 min 0,000 mm 3,6 UV-I 866 W/m 8,3 C 19,3 C 12,9 km/h (3 Bft) 100,00 %
25.05.2017 15:54 19,3 C 21,1 C 48 % 1019,9 hPa 0,0 l/m 8,9 km/h (2 Bft) W-SW 244 2 min 0,000 mm 2,9 UV-I 769 W/m 8,0 C 18,3 C 16,1 km/h (3 Bft) 95,74 %
25.05.2017 15:56 19,1 C 21,1 C 48 % 1019,9 hPa 0,0 l/m 11,6 km/h (2 Bft) W-NW 294 2 min 0,000 mm 3,1 UV-I 415 W/m 7,8 C 17,1 C 17,7 km/h (3 Bft) 100,00 %
25.05.2017 15:58 19,1 C 21,1 C 48 % 1019,9 hPa 0,0 l/m 3,5 km/h (1 Bft) W 260 2 min 0,000 mm 3,4 UV-I 924 W/m 7,8 C 19,1 C 9,7 km/h (2 Bft) 98,36 %
25.05.2017 16:00 19,2 C 21,1 C 51 % 1019,9 hPa 0,0 l/m 2,1 km/h (1 Bft) N-NW 333 2 min 0,000 mm 3,4 UV-I 904 W/m 8,8 C 19,2 C 6,4 km/h (2 Bft) 97,87 %
25.05.2017 16:02 19,3 C 21,1 C 54 % 1019,9 hPa 0,0 l/m 4,2 km/h (1 Bft) W 272 2 min 0,432 mm 3,4 UV-I 876 W/m 9,8 C 19,3 C 16,1 km/h (3 Bft) 100,00 %
25.05.2017 16:04 19,4 C 21,1 C 50 % 1019,9 hPa 0,0 l/m 9,4 km/h (2 Bft) W-NW 300 2 min 0,000 mm 3,4 UV-I 845 W/m 8,7 C 18,2 C 17,7 km/h (3 Bft) 100,00 %
25.05.2017 16:06 19,2 C 21,1 C 48 % 1020,0 hPa 0,0 l/m 8,8 km/h (2 Bft) NW 313 2 min 0,000 mm 3,3 UV-I 788 W/m 7,9 C 18,2 C 16,1 km/h (3 Bft) 97,87 %
25.05.2017 16:08 18,9 C 21,1 C 50 % 1019,9 hPa 0,0 l/m 6,6 km/h (2 Bft) NW 322 2 min 0,000 mm 3,1 UV-I 769 W/m 8,2 C 18,8 C 16,1 km/h (3 Bft) 100,00 %
25.05.2017 16:10 18,5 C 21,1 C 51 % 1019,9 hPa 0,0 l/m 1,4 km/h (1 Bft) NW 307 2 min 0,000 mm 2,2 UV-I 768 W/m 8,2 C 18,5 C 6,4 km/h (2 Bft) 95,74 %
25.05.2017 16:12 18,4 C 21,1 C 56 % 1019,8 hPa 0,0 l/m 5,4 km/h (1 Bft) W-NW 293 2 min 0,000 mm 3,1 UV-I 721 W/m 9,5 C 18,4 C 17,7 km/h (3 Bft) 100,00 %
25.05.2017 16:14 18,4 C 21,1 C 51 % 1019,8 hPa 0,0 l/m 10,7 km/h (2 Bft) N-NO 17 2 min 0,000 mm 2,9 UV-I 705 W/m 8,1 C 16,6 C 19,3 km/h (3 Bft) 100,00 %
25.05.2017 16:16 18,5 C 21,1 C 54 % 1019,8 hPa 0,0 l/m 4,2 km/h (1 Bft) W-SW 246 2 min 0,000 mm 2,9 UV-I 693 W/m 9,0 C 18,5 C 8,0 km/h (2 Bft) 97,87 %
25.05.2017 16:18 18,6 C 21,1 C 49 % 1019,9 hPa 0,0 l/m 4,6 km/h (1 Bft) W-SW 258 2 min 0,000 mm 2,9 UV-I 671 W/m 7,7 C 18,6 C 11,3 km/h (2 Bft) 97,37 %
25.05.2017 16:20 18,7 C 21,1 C 48 % 1019,9 hPa 0,0 l/m 5,6 km/h (1 Bft) W 277 2 min 0,000 mm 2,9 UV-I 661 W/m 7,5 C 18,7 C 14,5 km/h (3 Bft) 98,00 %
25.05.2017 16:22 18,7 C 21,1 C 49 % 1019,8 hPa 0,0 l/m 6,1 km/h (2 Bft) NW 323 2 min 0,000 mm 2,8 UV-I 657 W/m 7,8 C 18,7 C 12,9 km/h (3 Bft) 100,00 %
25.05.2017 16:24 18,7 C 21,1 C 50 % 1019,8 hPa 0,0 l/m 3,5 km/h (1 Bft) N 5 2 min 0,000 mm 2,8 UV-I 648 W/m 8,1 C 18,7 C 9,7 km/h (2 Bft) 100,00 %
25.05.2017 16:26 18,7 C 21,1 C 50 % 1019,7 hPa 0,0 l/m 5,2 km/h (1 Bft) NW 317 2 min 0,000 mm 2,4 UV-I 541 W/m 8,1 C 18,7 C 12,9 km/h (3 Bft) 100,00 %
25.05.2017 16:28 18,8 C 21,1 C 53 % 1019,8 hPa 0,0 l/m 2,0 km/h (1 Bft) N-NW 348 2 min 0,000 mm 2,7 UV-I 600 W/m 9,0 C 18,8 C 4,8 km/h (1 Bft) 100,00 %
25.05.2017 16:30 18,9 C 21,1 C 52 % 1019,7 hPa 0,0 l/m 4,5 km/h (1 Bft) W-NW 298 2 min 0,000 mm 2,7 UV-I 630 W/m 8,8 C 18,9 C 17,7 km/h (3 Bft) 98,00 %
25.05.2017 16:32 18,9 C 21,1 C 50 % 1019,7 hPa 0,0 l/m 3,8 km/h (1 Bft) W-SW 257 2 min 0,000 mm 2,6 UV-I 618 W/m 8,2 C 18,9 C 11,3 km/h (2 Bft) 100,00 %
25.05.2017 16:34 19,1 C 21,1 C 51 % 1019,7 hPa 0,0 l/m 4,6 km/h (1 Bft) N-NW 340 2 min 0,000 mm 2,6 UV-I 614 W/m 8,7 C 19,1 C 9,7 km/h (2 Bft) 100,00 %
25.05.2017 16:36 19,2 C 21,1 C 48 % 1019,7 hPa 0,0 l/m 3,3 km/h (1 Bft) W-SW 255 2 min 0,000 mm 2,5 UV-I 611 W/m 7,9 C 19,2 C 9,7 km/h (2 Bft) 100,00 %
25.05.2017 16:38 19,3 C 21,1 C 48 % 1019,6 hPa 0,0 l/m 6,0 km/h (2 Bft) W 261 2 min 0,000 mm 2,5 UV-I 599 W/m 8,0 C 19,3 C 14,5 km/h (3 Bft) 97,87 %
25.05.2017 16:40 19,3 C 21,1 C 51 % 1019,6 hPa 0,0 l/m 5,4 km/h (1 Bft) NW 323 2 min 0,000 mm 2,4 UV-I 592 W/m 8,9 C 19,3 C 9,7 km/h (2 Bft) 97,87 %
25.05.2017 16:42 19,3 C 21,1 C 49 % 1019,6 hPa 0,0 l/m 7,7 km/h (2 Bft) SW 220 2 min 0,000 mm 2,4 UV-I 597 W/m 8,3 C 18,7 C 16,1 km/h (3 Bft) 95,83 %
25.05.2017 16:44 19,3 C 21,1 C 51 % 1019,6 hPa 0,0 l/m 4,1 km/h (1 Bft) W-NW 292 2 min 0,000 mm 2,4 UV-I 599 W/m 8,9 C 19,3 C 14,5 km/h (3 Bft) 98,00 %
25.05.2017 16:46 19,1 C 21,1 C 49 % 1019,6 hPa 0,0 l/m 4,9 km/h (1 Bft) W-SW 249 2 min 0,000 mm 2,3 UV-I 596 W/m 8,1 C 19,1 C 11,3 km/h (2 Bft) 100,00 %
25.05.2017 16:48 18,8 C 21,1 C 47 % 1019,6 hPa 0,0 l/m 4,8 km/h (1 Bft) W-SW 253 2 min 0,000 mm 2,3 UV-I 599 W/m 7,2 C 18,8 C 8,0 km/h (2 Bft) 98,00 %
25.05.2017 16:50 18,8 C 21,1 C 47 % 1019,6 hPa 0,0 l/m 5,0 km/h (1 Bft) N-NW 332 2 min 0,000 mm 2,3 UV-I 604 W/m 7,2 C 18,8 C 11,3 km/h (2 Bft) 100,00 %
25.05.2017 16:52 18,8 C 21,1 C 48 % 1019,6 hPa 0,0 l/m 5,6 km/h (1 Bft) NW 315 2 min 0,000 mm 2,2 UV-I 599 W/m 7,6 C 18,8 C 12,9 km/h (3 Bft) 93,62 %
25.05.2017 16:54 18,8 C 21,1 C 50 % 1019,6 hPa 0,0 l/m 3,2 km/h (1 Bft) NW 311 2 min 0,000 mm 2,2 UV-I 588 W/m 8,2 C 18,8 C 11,3 km/h (2 Bft) 97,87 %
25.05.2017 16:56 18,9 C 21,1 C 50 % 1019,6 hPa 0,0 l/m 3,6 km/h (1 Bft) W-NW 292 2 min 0,000 mm 2,1 UV-I 572 W/m 8,2 C 18,9 C 9,7 km/h (2 Bft) 93,62 %
25.05.2017 16:58 19,1 C 21,1 C 50 % 1019,7 hPa 0,0 l/m 3,8 km/h (1 Bft) NW 325 2 min 0,000 mm 2,1 UV-I 563 W/m 8,4 C 19,1 C 6,4 km/h (2 Bft) 97,87 %
25.05.2017 17:00 19,1 C 21,1 C 47 % 1019,7 hPa 0,0 l/m 8,1 km/h (2 Bft) W 270 2 min 0,000 mm 2,1 UV-I 569 W/m 7,5 C 18,4 C 14,5 km/h (3 Bft) 97,14 %
25.05.2017 17:02 19,1 C 21,1 C 47 % 1019,6 hPa 0,0 l/m 5,2 km/h (1 Bft) W-NW 292 2 min 0,381 mm 2,0 UV-I 570 W/m 7,5 C 19,1 C 12,9 km/h (3 Bft) 98,00 %
25.05.2017 17:04 19,1 C 21,1 C 46 % 1019,5 hPa 0,0 l/m 7,2 km/h (2 Bft) W-NW 290 2 min 0,000 mm 2,0 UV-I 587 W/m 7,2 C 18,7 C 14,5 km/h (3 Bft) 94,00 %
25.05.2017 17:06 19,2 C 21,1 C 49 % 1019,6 hPa 0,0 l/m 8,5 km/h (2 Bft) W-NW 296 2 min 0,000 mm 2,0 UV-I 617 W/m 8,2 C 18,3 C 12,9 km/h (3 Bft) 93,62 %
25.05.2017 17:08 19,3 C 21,1 C 47 % 1019,6 hPa 0,0 l/m 5,1 km/h (1 Bft) N 355 2 min 0,000 mm 1,9 UV-I 636 W/m 7,7 C 19,3 C 11,3 km/h (2 Bft) 93,62 %
25.05.2017 17:10 19,4 C 21,1 C 46 % 1019,6 hPa 0,0 l/m 6,1 km/h (2 Bft) W 281 2 min 0,000 mm 1,9 UV-I 640 W/m 7,5 C 19,4 C 12,9 km/h (3 Bft) 93,62 %
25.05.2017 17:12 19,3 C 21,1 C 50 % 1019,5 hPa 0,0 l/m 4,4 km/h (1 Bft) N-NW 336 2 min 0,000 mm 1,8 UV-I 641 W/m 8,6 C 19,3 C 12,9 km/h (3 Bft) 92,00 %
25.05.2017 17:14 19,3 C 21,1 C 49 % 1019,6 hPa 0,0 l/m 4,6 km/h (1 Bft) W 264 2 min 0,000 mm 1,8 UV-I 635 W/m 8,3 C 19,3 C 12,9 km/h (3 Bft) 89,36 %
25.05.2017 17:16 19,3 C 21,1 C 47 % 1019,5 hPa 0,0 l/m 5,4 km/h (1 Bft) W 277 2 min 0,000 mm 1,6 UV-I 617 W/m 7,7 C 19,3 C 11,3 km/h (2 Bft) 92,11 %
25.05.2017 17:18 19,3 C 21,1 C 49 % 1019,5 hPa 0,0 l/m 3,1 km/h (1 Bft) W 269 2 min 0,000 mm 1,6 UV-I 580 W/m 8,3 C 19,3 C 6,4 km/h (2 Bft) 97,92 %
25.05.2017 17:20 19,3 C 21,1 C 48 % 1019,5 hPa 0,0 l/m 3,0 km/h (1 Bft) N-NW 347 2 min 0,000 mm 1,5 UV-I 606 W/m 8,0 C 19,3 C 4,8 km/h (1 Bft) 95,74 %
25.05.2017 17:22 19,4 C 21,1 C 46 % 1019,5 hPa 0,0 l/m 4,6 km/h (1 Bft) W-SW 253 2 min 0,000 mm 1,2 UV-I 606 W/m 7,5 C 19,4 C 8,0 km/h (2 Bft) 93,62 %
25.05.2017 17:24 19,3 C 21,1 C 47 % 1019,4 hPa 0,0 l/m 4,1 km/h (1 Bft) W 259 2 min 0,000 mm 1,0 UV-I 585 W/m 7,7 C 19,3 C 6,4 km/h (2 Bft) 96,00 %
25.05.2017 17:26 19,1 C 21,1 C 46 % 1019,5 hPa 0,0 l/m 5,6 km/h (1 Bft) W-SW 253 2 min 0,000 mm 0,8 UV-I 349 W/m 7,2 C 19,1 C 11,3 km/h (2 Bft) 94,29 %
25.05.2017 17:28 18,8 C 21,1 C 52 % 1019,5 hPa 0,0 l/m 3,3 km/h (1 Bft) W-SW 256 0 min 0,000 mm 0,8 UV-I 224 W/m 8,7 C 18,8 C 9,7 km/h (2 Bft) 89,06 %
25.05.2017 17:30 18,4 C 21,1 C 53 % 1019,5 hPa 0,0 l/m 4,1 km/h (1 Bft) N-NW 342 0 min 0,000 mm 0,8 UV-I 262 W/m 8,6 C 18,4 C 11,3 km/h (2 Bft) 95,12 %
25.05.2017 17:32 18,2 C 21,1 C 50 % 1019,5 hPa 0,0 l/m 4,2 km/h (1 Bft) W-NW 297 0 min 0,000 mm 0,8 UV-I 255 W/m 7,6 C 18,2 C 8,0 km/h (2 Bft) 93,62 %
25.05.2017 17:34 17,9 C 21,1 C 52 % 1019,5 hPa 0,0 l/m 3,6 km/h (1 Bft) NW 323 0 min 0,000 mm 0,9 UV-I 267 W/m 7,9 C 17,9 C 8,0 km/h (2 Bft) 89,36 %
25.05.2017 17:36 17,9 C 21,1 C 55 % 1019,6 hPa 0,0 l/m 1,6 km/h (1 Bft) W-NW 302 2 min 0,000 mm 1,0 UV-I 290 W/m 8,7 C 17,9 C 4,8 km/h (1 Bft) 96,00 %
25.05.2017 17:38 18,1 C 21,1 C 55 % 1019,5 hPa 0,0 l/m 1,0 km/h (0 Bft) W-NW 293 2 min 0,000 mm 1,0 UV-I 485 W/m 8,9 C 18,1 C 3,2 km/h (1 Bft) 97,87 %
25.05.2017 17:40 18,4 C 21,1 C 55 % 1019,5 hPa 0,0 l/m 1,4 km/h (1 Bft) NW 316 2 min 0,000 mm 0,8 UV-I 287 W/m 9,2 C 18,4 C 3,2 km/h (1 Bft) 97,87 %
25.05.2017 17:42 18,3 C 21,1 C 52 % 1019,5 hPa 0,0 l/m 4,7 km/h (1 Bft) W-NW 302 0 min 0,000 mm 0,8 UV-I 200 W/m 8,3 C 18,3 C 14,5 km/h (3 Bft) 97,87 %
25.05.2017 17:44 18,1 C 21,1 C 54 % 1019,5 hPa 0,0 l/m 4,5 km/h (1 Bft) NW 313 0 min 0,000 mm 0,9 UV-I 244 W/m 8,6 C 18,1 C 11,3 km/h (2 Bft) 93,62 %
25.05.2017 17:46 18,1 C 21,1 C 56 % 1019,5 hPa 0,0 l/m 2,5 km/h (1 Bft) N 9 2 min 0,000 mm 1,2 UV-I 453 W/m 9,2 C 18,1 C 6,4 km/h (2 Bft) 93,62 %
25.05.2017 17:48 18,2 C 21,1 C 52 % 1019,5 hPa 0,0 l/m 3,8 km/h (1 Bft) NW 310 2 min 0,000 mm 1,2 UV-I 501 W/m 8,2 C 18,2 C 8,0 km/h (2 Bft) 97,87 %
25.05.2017 17:50 18,3 C 21,1 C 51 % 1019,4 hPa 0,0 l/m 4,4 km/h (1 Bft) NW 314 2 min 0,000 mm 1,2 UV-I 470 W/m 8,0 C 18,3 C 9,7 km/h (2 Bft) 93,62 %
25.05.2017 17:52 18,5 C 21,1 C 53 % 1019,5 hPa 0,0 l/m 2,1 km/h (1 Bft) N-NW 342 2 min 0,000 mm 1,1 UV-I 453 W/m 8,7 C 18,5 C 4,8 km/h (1 Bft) 93,62 %
25.05.2017 17:54 18,6 C 21,1 C 50 % 1019,5 hPa 0,0 l/m 4,8 km/h (1 Bft) W-SW 250 2 min 0,000 mm 1,1 UV-I 445 W/m 8,0 C 18,6 C 12,9 km/h (3 Bft) 94,74 %
25.05.2017 17:56 18,6 C 21,1 C 51 % 1019,4 hPa 0,0 l/m 3,1 km/h (1 Bft) N-NW 338 2 min 0,000 mm 1,1 UV-I 440 W/m 8,3 C 18,6 C 12,9 km/h (3 Bft) 96,23 %
25.05.2017 17:58 18,6 C 21,1 C 52 % 1019,3 hPa 0,0 l/m 4,2 km/h (1 Bft) N-NW 333 2 min 0,000 mm 1,1 UV-I 436 W/m 8,5 C 18,6 C 9,7 km/h (2 Bft) 97,87 %
25.05.2017 18:00 18,6 C 21,1 C 51 % 1019,4 hPa 0,0 l/m 4,3 km/h (1 Bft) N-NW 336 2 min 0,000 mm 1,1 UV-I 436 W/m 8,3 C 18,6 C 8,0 km/h (2 Bft) 94,87 %
25.05.2017 18:02 18,6 C 21,1 C 54 % 1019,4 hPa 0,0 l/m 3,9 km/h (1 Bft) NW 306 2 min 0,279 mm 1,0 UV-I 429 W/m 9,1 C 18,6 C 8,0 km/h (2 Bft) 94,64 %
25.05.2017 18:04 18,6 C 21,1 C 51 % 1019,3 hPa 0,0 l/m 6,5 km/h (2 Bft) N-NW 341 2 min 0,000 mm 1,0 UV-I 412 W/m 8,3 C 18,6 C 16,1 km/h (3 Bft) 97,87 %
25.05.2017 18:06 18,5 C 21,1 C 51 % 1019,2 hPa 0,0 l/m 3,2 km/h (1 Bft) N 5 2 min 0,000 mm 0,9 UV-I 398 W/m 8,2 C 18,5 C 6,4 km/h (2 Bft) 91,84 %
25.05.2017 18:08 18,3 C 21,1 C 52 % 1019,2 hPa 0,0 l/m 2,6 km/h (1 Bft) N-NW 327 2 min 0,000 mm 0,9 UV-I 401 W/m 8,3 C 18,3 C 6,4 km/h (2 Bft) 94,74 %
25.05.2017 18:10 18,3 C 21,1 C 50 % 1019,2 hPa 0,0 l/m 2,6 km/h (1 Bft) NW 306 2 min 0,000 mm 0,9 UV-I 390 W/m 7,7 C 18,3 C 6,4 km/h (2 Bft) 96,00 %
25.05.2017 18:12 18,4 C 21,1 C 51 % 1019,2 hPa 0,0 l/m 4,2 km/h (1 Bft) N-NO 24 2 min 0,000 mm 0,8 UV-I 395 W/m 8,1 C 18,4 C 12,9 km/h (3 Bft) 90,20 %
25.05.2017 18:14 18,4 C 21,1 C 51 % 1019,2 hPa 0,0 l/m 2,1 km/h (1 Bft) N-NW 343 2 min 0,000 mm 0,8 UV-I 422 W/m 8,1 C 18,4 C 4,8 km/h (1 Bft) 95,74 %
25.05.2017 18:16 18,4 C 21,1 C 50 % 1019,2 hPa 0,0 l/m 5,2 km/h (1 Bft) N 11 2 min 0,000 mm 0,8 UV-I 380 W/m 7,8 C 18,4 C 14,5 km/h (3 Bft) 93,18 %
25.05.2017 18:18 18,3 C 21,1 C 52 % 1019,2 hPa 0,0 l/m 4,3 km/h (1 Bft) N-NW 332 2 min 0,000 mm 0,6 UV-I 231 W/m 8,3 C 18,3 C 9,7 km/h (2 Bft) 95,74 %
25.05.2017 18:20 18,3 C 21,1 C 51 % 1019,3 hPa 0,0 l/m 3,0 km/h (1 Bft) NW 311 2 min 0,000 mm 0,7 UV-I 354 W/m 8,0 C 18,3 C 8,0 km/h (2 Bft) 91,49 %
25.05.2017 18:22 18,3 C 21,1 C 50 % 1019,3 hPa 0,0 l/m 2,9 km/h (1 Bft) N-NO 19 2 min 0,000 mm 0,7 UV-I 401 W/m 7,7 C 18,3 C 4,8 km/h (1 Bft) 89,47 %
25.05.2017 18:24 18,3 C 21,1 C 51 % 1019,2 hPa 0,0 l/m 3,2 km/h (1 Bft) NW 323 0 min 0,000 mm 0,5 UV-I 173 W/m 8,0 C 18,3 C 6,4 km/h (2 Bft) 96,00 %
25.05.2017 18:26 18,1 C 21,1 C 50 % 1019,3 hPa 0,0 l/m 1,6 km/h (1 Bft) NW 319 0 min 0,000 mm 0,5 UV-I 181 W/m 7,5 C 18,1 C 4,8 km/h (1 Bft) 93,62 %
25.05.2017 18:28 17,9 C 21,1 C 53 % 1019,3 hPa 0,0 l/m 3,5 km/h (1 Bft) W-NW 293 0 min 0,000 mm 0,6 UV-I 183 W/m 8,2 C 17,9 C 9,7 km/h (2 Bft) 95,74 %
25.05.2017 18:30 18,1 C 21,1 C 49 % 1019,2 hPa 0,0 l/m 4,5 km/h (1 Bft) W-SW 250 0 min 0,000 mm 0,6 UV-I 168 W/m 7,2 C 18,1 C 8,0 km/h (2 Bft) 94,00 %
25.05.2017 18:32 18,3 C 21,1 C 47 % 1019,2 hPa 0,0 l/m 6,5 km/h (2 Bft) W 264 2 min 0,000 mm 0,6 UV-I 292 W/m 6,8 C 18,3 C 12,9 km/h (3 Bft) 95,12 %
25.05.2017 18:34 18,5 C 21,1 C 48 % 1019,2 hPa 0,0 l/m 7,6 km/h (2 Bft) W-SW 254 2 min 0,000 mm 0,6 UV-I 321 W/m 7,3 C 18,0 C 11,3 km/h (2 Bft) 97,87 %
25.05.2017 18:36 18,6 C 21,1 C 47 % 1019,1 hPa 0,0 l/m 8,4 km/h (2 Bft) SW 227 2 min 0,000 mm 0,6 UV-I 313 W/m 7,1 C 17,7 C 14,5 km/h (3 Bft) 100,00 %
25.05.2017 18:38 18,7 C 21,1 C 46 % 1019,2 hPa 0,0 l/m 9,2 km/h (2 Bft) W 268 2 min 0,000 mm 0,6 UV-I 309 W/m 6,8 C 17,5 C 14,5 km/h (3 Bft) 98,00 %
25.05.2017 18:40 18,7 C 21,1 C 46 % 1019,2 hPa 0,0 l/m 11,9 km/h (2 Bft) W-SW 248 2 min 0,000 mm 0,6 UV-I 298 W/m 6,8 C 16,6 C 19,3 km/h (3 Bft) 95,74 %
25.05.2017 18:42 18,7 C 21,1 C 47 % 1019,1 hPa 0,0 l/m 12,0 km/h (2 Bft) W-SW 251 2 min 0,000 mm 0,5 UV-I 280 W/m 7,2 C 16,5 C 20,9 km/h (4 Bft) 92,00 %
25.05.2017 18:44 18,7 C 21,1 C 46 % 1019,2 hPa 0,0 l/m 8,3 km/h (2 Bft) W-SW 252 2 min 0,000 mm 0,5 UV-I 270 W/m 6,8 C 17,9 C 17,7 km/h (3 Bft) 97,87 %
25.05.2017 18:46 18,7 C 21,1 C 48 % 1019,2 hPa 0,0 l/m 4,4 km/h (1 Bft) W-NW 284 2 min 0,000 mm 0,5 UV-I 279 W/m 7,5 C 18,7 C 9,7 km/h (2 Bft) 95,45 %
25.05.2017 18:48 18,6 C 21,1 C 47 % 1019,2 hPa 0,0 l/m 5,2 km/h (1 Bft) W 266 2 min 0,000 mm 0,5 UV-I 278 W/m 7,1 C 18,6 C 11,3 km/h (2 Bft) 97,87 %
25.05.2017 18:50 18,6 C 21,1 C 48 % 1019,2 hPa 0,0 l/m 2,3 km/h (1 Bft) N-NW 327 2 min 0,000 mm 0,5 UV-I 252 W/m 7,4 C 18,6 C 6,4 km/h (2 Bft) 96,00 %
25.05.2017 18:52 18,4 C 21,1 C 51 % 1019,2 hPa 0,0 l/m 1,9 km/h (1 Bft) N-NW 338 2 min 0,000 mm 0,1 UV-I 237 W/m 8,1 C 18,4 C 4,8 km/h (1 Bft) 97,56 %
25.05.2017 18:54 18,3 C 21,1 C 53 % 1019,2 hPa 0,0 l/m 2,0 km/h (1 Bft) N-NW 343 2 min 0,000 mm 0,0 UV-I 228 W/m 8,6 C 18,3 C 4,8 km/h (1 Bft) 100,00 %
25.05.2017 18:56 18,2 C 21,1 C 51 % 1019,2 hPa 0,0 l/m 3,3 km/h (1 Bft) W-NW 289 2 min 0,000 mm 0,0 UV-I 223 W/m 7,9 C 18,2 C 4,8 km/h (1 Bft) 97,87 %
25.05.2017 18:58 18,0 C 21,1 C 52 % 1019,2 hPa 0,0 l/m 3,0 km/h (1 Bft) N-NW 337 2 min 0,000 mm 0,0 UV-I 216 W/m 8,0 C 18,0 C 12,9 km/h (3 Bft) 100,00 %
25.05.2017 19:00 17,8 C 21,1 C 52 % 1019,3 hPa 0,0 l/m 2,6 km/h (1 Bft) NW 317 2 min 0,000 mm 0,0 UV-I 149 W/m 7,8 C 17,8 C 6,4 km/h (2 Bft) 100,00 %
25.05.2017 19:02 17,6 C 21,1 C 52 % 1019,2 hPa 0,0 l/m 2,6 km/h (1 Bft) NW 311 0 min 0,204 mm 0,0 UV-I 102 W/m 7,6 C 17,6 C 4,8 km/h (1 Bft) 96,00 %
25.05.2017 19:04 17,3 C 21,1 C 55 % 1019,3 hPa 0,0 l/m 0,7 km/h (0 Bft) NW 310 0 min 0,000 mm 0,0 UV-I 89 W/m 8,2 C 17,3 C 4,8 km/h (1 Bft) 97,87 %
25.05.2017 19:06 17,2 C 21,1 C 53 % 1019,3 hPa 0,0 l/m 2,0 km/h (1 Bft) NW 323 2 min 0,000 mm 0,0 UV-I 190 W/m 7,5 C 17,2 C 4,8 km/h (1 Bft) 97,87 %
25.05.2017 19:08 17,1 C 21,1 C 54 % 1019,4 hPa 0,0 l/m 2,8 km/h (1 Bft) W-NW 298 2 min 0,000 mm 0,0 UV-I 206 W/m 7,7 C 17,1 C 11,3 km/h (2 Bft) 95,74 %
25.05.2017 19:10 17,2 C 21,1 C 53 % 1019,4 hPa 0,0 l/m 4,3 km/h (1 Bft) N-NO 18 2 min 0,000 mm 0,0 UV-I 205 W/m 7,5 C 17,2 C 12,9 km/h (3 Bft) 96,00 %
25.05.2017 19:12 17,3 C 21,1 C 53 % 1019,3 hPa 0,0 l/m 2,6 km/h (1 Bft) NW 308 2 min 0,000 mm 0,0 UV-I 200 W/m 7,6 C 17,3 C 8,0 km/h (2 Bft) 93,62 %
25.05.2017 19:14 17,4 C 21,1 C 54 % 1019,4 hPa 0,0 l/m 2,6 km/h (1 Bft) N-NW 328 2 min 0,000 mm 0,0 UV-I 194 W/m 8,0 C 17,4 C 8,0 km/h (2 Bft) 98,00 %
25.05.2017 19:16 17,4 C 21,1 C 53 % 1019,4 hPa 0,0 l/m 2,9 km/h (1 Bft) W-NW 300 2 min 0,000 mm 0,0 UV-I 144 W/m 7,7 C 17,4 C 6,4 km/h (2 Bft) 95,74 %
25.05.2017 19:18 17,4 C 21,1 C 54 % 1019,4 hPa 0,0 l/m 2,7 km/h (1 Bft) NW 313 2 min 0,000 mm 0,0 UV-I 143 W/m 8,0 C 17,4 C 6,4 km/h (2 Bft) 95,74 %
25.05.2017 19:20 17,3 C 21,1 C 53 % 1019,4 hPa 0,0 l/m 3,7 km/h (1 Bft) NW 314 0 min 0,000 mm 0,0 UV-I 110 W/m 7,6 C 17,3 C 9,7 km/h (2 Bft) 94,87 %
25.05.2017 19:22 17,2 C 21,1 C 54 % 1019,4 hPa 0,0 l/m 2,9 km/h (1 Bft) N-NW 329 2 min 0,000 mm 0,0 UV-I 172 W/m 7,8 C 17,2 C 6,4 km/h (2 Bft) 93,62 %
25.05.2017 19:24 17,2 C 21,1 C 54 % 1019,4 hPa 0,0 l/m 2,7 km/h (1 Bft) W-NW 303 2 min 0,000 mm 0,0 UV-I 120 W/m 7,8 C 17,2 C 8,0 km/h (2 Bft) 97,87 %
25.05.2017 19:26 17,1 C 21,1 C 55 % 1019,4 hPa 0,0 l/m 0,9 km/h (0 Bft) W-NW 303 0 min 0,000 mm 0,0 UV-I 94 W/m 8,0 C 17,1 C 3,2 km/h (1 Bft) 96,00 %
25.05.2017 19:28 16,9 C 21,1 C 56 % 1019,4 hPa 0,0 l/m 2,3 km/h (1 Bft) NW 324 0 min 0,000 mm 0,0 UV-I 72 W/m 8,1 C 16,9 C 4,8 km/h (1 Bft) 93,62 %
25.05.2017 19:30 16,7 C 21,1 C 56 % 1019,4 hPa 0,0 l/m 0,7 km/h (0 Bft) NW 325 0 min 0,000 mm 0,0 UV-I 60 W/m 7,9 C 16,7 C 1,6 km/h (1 Bft) 97,87 %
25.05.2017 19:32 16,5 C 21,1 C 56 % 1019,4 hPa 0,0 l/m 2,0 km/h (1 Bft) NW 306 0 min 0,000 mm 0,0 UV-I 51 W/m 7,7 C 16,5 C 4,8 km/h (1 Bft) 95,74 %
25.05.2017 19:34 16,4 C 21,1 C 57 % 1019,4 hPa 0,0 l/m 1,3 km/h (1 Bft) W-NW 291 0 min 0,000 mm 0,0 UV-I 43 W/m 7,9 C 16,4 C 4,8 km/h (1 Bft) 97,87 %
25.05.2017 19:36 16,3 C 21,1 C 57 % 1019,4 hPa 0,0 l/m 0,0 km/h (0 Bft) W-NW 291 0 min 0,000 mm 0,0 UV-I 50 W/m 7,8 C 16,3 C 1,6 km/h (1 Bft) 89,36 %
25.05.2017 19:38 16,3 C 21,1 C 56 % 1019,4 hPa 0,0 l/m 1,1 km/h (1 Bft) W-NW 295 0 min 0,000 mm 0,0 UV-I 78 W/m 7,5 C 16,3 C 4,8 km/h (1 Bft) 95,74 %
25.05.2017 19:40 16,3 C 21,1 C 56 % 1019,3 hPa 0,0 l/m 1,1 km/h (1 Bft) W-NW 299 0 min 0,000 mm 0,0 UV-I 59 W/m 7,5 C 16,3 C 4,8 km/h (1 Bft) 97,87 %
25.05.2017 19:42 16,3 C 21,1 C 56 % 1019,4 hPa 0,0 l/m 0,0 km/h (0 Bft) W-NW 299 0 min 0,000 mm 0,0 UV-I 63 W/m 7,5 C 16,3 C 1,6 km/h (1 Bft) 96,00 %
25.05.2017 19:44 16,3 C 21,1 C 57 % 1019,4 hPa 0,0 l/m 0,0 km/h (0 Bft) W-NW 299 0 min 0,000 mm 0,0 UV-I 65 W/m 7,8 C 16,3 C 0,0 km/h (0 Bft) 93,62 %
25.05.2017 19:46 16,4 C 21,1 C 57 % 1019,3 hPa 0,0 l/m 0,0 km/h (0 Bft) W-NW 299 0 min 0,000 mm 0,0 UV-I 52 W/m 7,9 C 16,4 C 0,0 km/h (0 Bft) 100,00 %
25.05.2017 19:48 16,4 C 21,1 C 57 % 1019,3 hPa 0,0 l/m 0,0 km/h (0 Bft) W-NW 299 0 min 0,000 mm 0,0 UV-I 48 W/m 7,9 C 16,4 C 0,0 km/h (0 Bft) 98,00 %
25.05.2017 19:50 16,3 C 21,1 C 59 % 1019,3 hPa 0,0 l/m 0,2 km/h (0 Bft) W-NW 299 0 min 0,000 mm 0,0 UV-I 43 W/m 8,3 C 16,3 C 1,6 km/h (1 Bft) 100,00 %
25.05.2017 19:52 16,3 C 21,1 C 58 % 1019,3 hPa 0,0 l/m 0,0 km/h (0 Bft) W-NW 299 0 min 0,000 mm 0,0 UV-I 58 W/m 8,0 C 16,3 C 0,0 km/h (0 Bft) 95,74 %
25.05.2017 19:54 16,3 C 21,1 C 58 % 1019,3 hPa 0,0 l/m 1,4 km/h (1 Bft) W 279 0 min 0,000 mm 0,0 UV-I 63 W/m 8,0 C 16,3 C 4,8 km/h (1 Bft) 95,74 %
25.05.2017 19:56 16,4 C 21,1 C 58 % 1019,3 hPa 0,0 l/m 1,6 km/h (1 Bft) W 278 0 min 0,000 mm 0,0 UV-I 55 W/m 8,1 C 16,4 C 6,4 km/h (2 Bft) 98,00 %
25.05.2017 19:58 16,2 C 22,2 C 59 % 1019,3 hPa 0,0 l/m 0,1 km/h (0 Bft) W 278 0 min 0,000 mm 0,0 UV-I 50 W/m 8,2 C 16,2 C 1,6 km/h (1 Bft) 100,00 %
25.05.2017 20:00 16,1 C 22,2 C 59 % 1019,3 hPa 0,0 l/m 0,0 km/h (0 Bft) W 278 0 min 0,000 mm 0,0 UV-I 51 W/m 8,1 C 16,1 C 0,0 km/h (0 Bft) 97,92 %
25.05.2017 20:02 16,1 C 22,2 C 60 % 1019,3 hPa 0,0 l/m 0,0 km/h (0 Bft) W 278 0 min 0,076 mm 0,0 UV-I 41 W/m 8,3 C 16,1 C 1,6 km/h (1 Bft) 97,87 %
25.05.2017 20:04 16,1 C 22,2 C 58 % 1019,2 hPa 0,0 l/m 0,0 km/h (0 Bft) W 278 0 min 0,000 mm 0,0 UV-I 35 W/m 7,8 C 16,1 C 0,0 km/h (0 Bft) 100,00 %
25.05.2017 20:06 16,1 C 22,2 C 57 % 1019,2 hPa 0,0 l/m 0,2 km/h (0 Bft) W 278 0 min 0,000 mm 0,0 UV-I 27 W/m 7,6 C 16,1 C 1,6 km/h (1 Bft) 97,87 %
25.05.2017 20:08 16,2 C 22,2 C 57 % 1019,3 hPa 0,0 l/m 0,5 km/h (0 Bft) W 278 0 min 0,000 mm 0,0 UV-I 24 W/m 7,7 C 16,2 C 1,6 km/h (1 Bft) 97,87 %
25.05.2017 20:10 16,2 C 22,2 C 56 % 1019,4 hPa 0,0 l/m 0,0 km/h (0 Bft) W 278 0 min 0,000 mm 0,0 UV-I 25 W/m 7,4 C 16,2 C 0,0 km/h (0 Bft) 100,00 %
25.05.2017 20:12 16,1 C 22,2 C 57 % 1019,4 hPa 0,0 l/m 0,0 km/h (0 Bft) W 278 0 min 0,000 mm 0,0 UV-I 26 W/m 7,6 C 16,1 C 0,0 km/h (0 Bft) 100,00 %
25.05.2017 20:14 16,1 C 21,7 C 57 % 1019,4 hPa 0,0 l/m 0,0 km/h (0 Bft) W 278 0 min 0,000 mm 0,0 UV-I 25 W/m 7,6 C 16,1 C 0,0 km/h (0 Bft) 97,87 %
25.05.2017 20:16 16,1 C 21,7 C 57 % 1019,4 hPa 0,0 l/m 0,0 km/h (0 Bft) W 278 0 min 0,000 mm 0,0 UV-I 22 W/m 7,6 C 16,1 C 1,6 km/h (1 Bft) 100,00 %
25.05.2017 20:18 16,1 C 21,7 C 56 % 1019,4 hPa 0,0 l/m 0,0 km/h (0 Bft) W 278 0 min 0,000 mm 0,0 UV-I 20 W/m 7,3 C 16,1 C 0,0 km/h (0 Bft) 95,74 %
25.05.2017 20:20 16,1 C 21,7 C 57 % 1019,4 hPa 0,0 l/m 0,0 km/h (0 Bft) W 278 0 min 0,000 mm 0,0 UV-I 17 W/m 7,6 C 16,1 C 0,0 km/h (0 Bft) 97,14 %
25.05.2017 20:22 16,0 C 21,7 C 56 % 1019,4 hPa 0,0 l/m 0,0 km/h (0 Bft) W 278 0 min 0,000 mm 0,0 UV-I 15 W/m 7,2 C 16,0 C 0,0 km/h (0 Bft) 100,00 %
25.05.2017 20:24 15,9 C 21,7 C 57 % 1019,4 hPa 0,0 l/m 0,0 km/h (0 Bft) W 278 0 min 0,000 mm 0,0 UV-I 14 W/m 7,4 C 15,9 C 0,0 km/h (0 Bft) 97,87 %
25.05.2017 20:26 15,8 C 21,7 C 58 % 1019,5 hPa 0,0 l/m 0,0 km/h (0 Bft) W 278 0 min 0,000 mm 0,0 UV-I 14 W/m 7,6 C 15,8 C 0,0 km/h (0 Bft) 100,00 %
25.05.2017 20:28 15,7 C 21,7 C 59 % 1019,5 hPa 0,0 l/m 0,0 km/h (0 Bft) W 278 0 min 0,000 mm 0,0 UV-I 13 W/m 7,7 C 15,7 C 0,0 km/h (0 Bft) 95,74 %
25.05.2017 20:30 15,7 C 21,7 C 62 % 1019,5 hPa 0,0 l/m 0,0 km/h (0 Bft) W 278 0 min 0,000 mm 0,0 UV-I 12 W/m 8,4 C 15,7 C 0,0 km/h (0 Bft) 100,00 %
25.05.2017 20:32 15,4 C 21,7 C 64 % 1019,5 hPa 0,0 l/m 0,0 km/h (0 Bft) W 278 0 min 0,000 mm 0,0 UV-I 12 W/m 8,6 C 15,4 C 0,0 km/h (0 Bft) 100,00 %
25.05.2017 20:34 15,2 C 21,7 C 66 % 1019,6 hPa 0,0 l/m 0,0 km/h (0 Bft) W 278 2 min 0,000 mm 0,0 UV-I 12 W/m 8,9 C 15,2 C 0,0 km/h (0 Bft) 97,87 %
25.05.2017 20:36 14,9 C 21,7 C 65 % 1019,6 hPa 0,0 l/m 0,0 km/h (0 Bft) W 278 2 min 0,000 mm 0,0 UV-I 11 W/m 8,4 C 14,9 C 0,0 km/h (0 Bft) 97,92 %
25.05.2017 20:38 14,8 C 21,7 C 65 % 1019,6 hPa 0,0 l/m 0,0 km/h (0 Bft) W 278 0 min 0,000 mm 0,0 UV-I 11 W/m 8,3 C 14,8 C 1,6 km/h (1 Bft) 97,37 %
25.05.2017 20:40 14,8 C 21,7 C 65 % 1019,6 hPa 0,0 l/m 0,0 km/h (0 Bft) W 278 0 min 0,000 mm 0,0 UV-I 10 W/m 8,3 C 14,8 C 1,6 km/h (1 Bft) 100,00 %
25.05.2017 20:42 14,8 C 21,7 C 66 % 1019,7 hPa 0,0 l/m 0,0 km/h (0 Bft) W 278 0 min 0,000 mm 0,0 UV-I 9 W/m 8,5 C 14,8 C 0,0 km/h (0 Bft) 97,87 %
25.05.2017 20:44 14,7 C 21,7 C 68 % 1019,7 hPa 0,0 l/m 0,0 km/h (0 Bft) W 278 0 min 0,000 mm 0,0 UV-I 9 W/m 8,9 C 14,7 C 0,0 km/h (0 Bft) 97,87 %
25.05.2017 20:46 14,6 C 21,7 C 72 % 1019,7 hPa 0,0 l/m 0,0 km/h (0 Bft) W 278 0 min 0,000 mm 0,0 UV-I 7 W/m 9,6 C 14,6 C 0,0 km/h (0 Bft) 97,87 %
25.05.2017 20:48 14,5 C 21,7 C 75 % 1019,7 hPa 0,0 l/m 0,0 km/h (0 Bft) W 278 0 min 0,000 mm 0,0 UV-I 7 W/m 10,1 C 14,5 C 0,0 km/h (0 Bft) 94,29 %
25.05.2017 20:50 14,3 C 21,7 C 74 % 1019,7 hPa 0,0 l/m 0,0 km/h (0 Bft) W 278 0 min 0,000 mm 0,0 UV-I 7 W/m 9,7 C 14,3 C 0,0 km/h (0 Bft) 100,00 %
25.05.2017 20:52 14,2 C 21,7 C 72 % 1019,8 hPa 0,0 l/m 0,0 km/h (0 Bft) W 278 0 min 0,000 mm 0,0 UV-I 6 W/m 9,2 C 14,2 C 0,0 km/h (0 Bft) 97,87 %
25.05.2017 20:54 14,2 C 21,7 C 72 % 1019,8 hPa 0,0 l/m 0,0 km/h (0 Bft) W 278 0 min 0,000 mm 0,0 UV-I 5 W/m 9,2 C 14,2 C 0,0 km/h (0 Bft) 100,00 %
25.05.2017 20:56 14,2 C 21,7 C 73 % 1019,8 hPa 0,0 l/m 0,2 km/h (0 Bft) W 278 0 min 0,000 mm 0,0 UV-I 5 W/m 9,4 C 14,2 C 1,6 km/h (1 Bft) 97,87 %
25.05.2017 20:58 14,2 C 21,7 C 73 % 1019,7 hPa 0,0 l/m 1,7 km/h (1 Bft) W 275 0 min 0,000 mm 0,0 UV-I 5 W/m 9,4 C 14,2 C 4,8 km/h (1 Bft) 100,00 %
25.05.2017 21:00 14,2 C 21,7 C 72 % 1019,7 hPa 0,0 l/m 5,2 km/h (1 Bft) S-SW 211 0 min 0,000 mm 0,0 UV-I 5 W/m 9,2 C 14,2 C 6,4 km/h (2 Bft) 100,00 %
25.05.2017 21:02 14,1 C 21,7 C 70 % 1019,7 hPa 0,0 l/m 3,9 km/h (1 Bft) S-SW 194 0 min 0,025 mm 0,0 UV-I 5 W/m 8,7 C 14,1 C 8,0 km/h (2 Bft) 95,74 %
25.05.2017 21:04 14,0 C 21,7 C 70 % 1019,8 hPa 0,0 l/m 1,3 km/h (1 Bft) S-SW 194 0 min 0,000 mm 0,0 UV-I 5 W/m 8,6 C 14,0 C 3,2 km/h (1 Bft) 100,00 %
25.05.2017 21:06 14,0 C 21,7 C 71 % 1019,8 hPa 0,0 l/m 0,3 km/h (0 Bft) S-SW 194 0 min 0,000 mm 0,0 UV-I 3 W/m 8,8 C 14,0 C 1,6 km/h (1 Bft) 97,87 %
25.05.2017 21:08 13,8 C 21,7 C 74 % 1019,8 hPa 0,0 l/m 0,5 km/h (0 Bft) S-SW 194 0 min 0,000 mm 0,0 UV-I 0 W/m 9,2 C 13,8 C 1,6 km/h (1 Bft) 97,87 %
25.05.2017 21:10 13,6 C 21,7 C 74 % 1019,8 hPa 0,0 l/m 0,1 km/h (0 Bft) S-SW 194 0 min 0,000 mm 0,0 UV-I 0 W/m 9,1 C 13,6 C 1,6 km/h (1 Bft) 93,62 %
25.05.2017 21:12 13,6 C 21,7 C 75 % 1019,8 hPa 0,0 l/m 0,0 km/h (0 Bft) S-SW 194 0 min 0,000 mm 0,0 UV-I 0 W/m 9,3 C 13,6 C 0,0 km/h (0 Bft) 97,87 %
25.05.2017 21:14 13,6 C 21,7 C 74 % 1019,8 hPa 0,0 l/m 0,0 km/h (0 Bft) S-SW 194 0 min 0,000 mm 0,0 UV-I 0 W/m 9,1 C 13,6 C 1,6 km/h (1 Bft) 100,00 %
25.05.2017 21:16 13,6 C 21,7 C 72 % 1019,9 hPa 0,0 l/m 0,0 km/h (0 Bft) S-SW 194 0 min 0,000 mm 0,0 UV-I 0 W/m 8,6 C 13,6 C 0,0 km/h (0 Bft) 93,62 %
25.05.2017 21:18 13,7 C 21,7 C 73 % 1019,8 hPa 0,0 l/m 0,0 km/h (0 Bft) S-SW 194 0 min 0,000 mm 0,0 UV-I 0 W/m 8,9 C 13,7 C 0,0 km/h (0 Bft) 93,62 %
25.05.2017 21:20 13,7 C 21,7 C 74 % 1019,9 hPa 0,0 l/m 0,0 km/h (0 Bft) S-SW 194 0 min 0,000 mm 0,0 UV-I 0 W/m 9,2 C 13,7 C 0,0 km/h (0 Bft) 95,74 %
25.05.2017 21:22 13,7 C 21,7 C 74 % 1019,9 hPa 0,0 l/m 0,2 km/h (0 Bft) S-SW 194 0 min 0,000 mm 0,0 UV-I 0 W/m 9,2 C 13,7 C 1,6 km/h (1 Bft) 96,00 %
25.05.2017 21:24 13,7 C 21,7 C 75 % 1019,9 hPa 0,0 l/m 0,0 km/h (0 Bft) S-SW 194 0 min 0,000 mm 0,0 UV-I 0 W/m 9,3 C 13,7 C 1,6 km/h (1 Bft) 96,00 %
25.05.2017 21:26 13,7 C 21,7 C 76 % 1019,9 hPa 0,0 l/m 0,0 km/h (0 Bft) S-SW 194 0 min 0,000 mm 0,0 UV-I 0 W/m 9,5 C 13,7 C 0,0 km/h (0 Bft) 97,87 %
25.05.2017 21:28 13,6 C 21,7 C 74 % 1020,0 hPa 0,0 l/m 0,2 km/h (0 Bft) S-SW 194 0 min 0,000 mm 0,0 UV-I 0 W/m 9,1 C 13,6 C 1,6 km/h (1 Bft) 95,74 %
25.05.2017 21:30 13,6 C 21,7 C 76 % 1020,0 hPa 0,0 l/m 0,8 km/h (0 Bft) S-SW 194 0 min 0,000 mm 0,0 UV-I 0 W/m 9,4 C 13,6 C 1,6 km/h (1 Bft) 95,74 %
25.05.2017 21:32 13,7 C 21,7 C 76 % 1020,0 hPa 0,0 l/m 1,1 km/h (1 Bft) S-SW 194 0 min 0,000 mm 0,0 UV-I 0 W/m 9,5 C 13,7 C 3,2 km/h (1 Bft) 95,74 %
25.05.2017 21:34 13,6 C 21,7 C 73 % 1020,0 hPa 0,0 l/m 0,6 km/h (0 Bft) S-SW 194 0 min 0,000 mm 0,0 UV-I 0 W/m 8,9 C 13,6 C 3,2 km/h (1 Bft) 97,87 %
25.05.2017 21:36 13,7 C 21,7 C 74 % 1020,0 hPa 0,0 l/m 0,3 km/h (0 Bft) S-SW 194 0 min 0,000 mm 0,0 UV-I 0 W/m 9,2 C 13,7 C 1,6 km/h (1 Bft) 95,74 %
25.05.2017 21:38 13,7 C 21,7 C 73 % 1020,0 hPa 0,0 l/m 0,0 km/h (0 Bft) S-SW 194 0 min 0,000 mm 0,0 UV-I 0 W/m 8,9 C 13,7 C 0,0 km/h (0 Bft) 95,74 %
25.05.2017 21:40 13,7 C 21,7 C 74 % 1020,0 hPa 0,0 l/m 0,0 km/h (0 Bft) S-SW 194 0 min 0,000 mm 0,0 UV-I 0 W/m 9,2 C 13,7 C 0,0 km/h (0 Bft) 95,74 %
25.05.2017 21:42 13,8 C 21,7 C 73 % 1020,0 hPa 0,0 l/m 0,0 km/h (0 Bft) S-SW 194 0 min 0,000 mm 0,0 UV-I 0 W/m 9,0 C 13,8 C 0,0 km/h (0 Bft) 92,11 %
25.05.2017 21:44 13,8 C 21,7 C 73 % 1020,1 hPa 0,0 l/m 0,3 km/h (0 Bft) S-SW 194 0 min 0,000 mm 0,0 UV-I 0 W/m 9,0 C 13,8 C 3,2 km/h (1 Bft) 96,00 %
25.05.2017 21:46 13,8 C 21,7 C 73 % 1020,1 hPa 0,0 l/m 2,7 km/h (1 Bft) S-SW 194 0 min 0,000 mm 0,0 UV-I 0 W/m 9,0 C 13,8 C 4,8 km/h (1 Bft) 89,36 %
25.05.2017 21:48 13,8 C 21,7 C 74 % 1020,0 hPa 0,0 l/m 0,5 km/h (0 Bft) S-SW 194 0 min 0,000 mm 0,0 UV-I 0 W/m 9,2 C 13,8 C 1,6 km/h (1 Bft) 91,49 %
25.05.2017 21:50 13,7 C 21,7 C 72 % 1020,1 hPa 0,0 l/m 0,7 km/h (0 Bft) S-SW 194 0 min 0,000 mm 0,0 UV-I 0 W/m 8,7 C 13,7 C 1,6 km/h (1 Bft) 95,74 %
25.05.2017 21:53 13,7 C 21,7 C 74 % 1020,1 hPa 0,0 l/m 0,2 km/h (0 Bft) S-SW 194 0 min 0,000 mm 0,0 UV-I 0 W/m 9,2 C 13,7 C 1,6 km/h (1 Bft) 94,59 %
25.05.2017 21:54 13,7 C 21,7 C 75 % 1020,1 hPa 0,0 l/m 0,2 km/h (0 Bft) S-SW 194 0 min 0,000 mm 0,0 UV-I 0 W/m 9,3 C 13,7 C 1,6 km/h (1 Bft) 86,96 %
25.05.2017 21:55 13,7 C 21,7 C 76 % 1020,1 hPa 0,0 l/m 0,0 km/h (0 Bft) S-SW 202 0 min 0,000 mm 0,0 UV-I 0 W/m 9,5 C 13,7 C 1,6 km/h (1 Bft) 92,98 %
25.05.2017 22:00 13,6 C 21,7 C 73 % 1020,1 hPa 0,0 l/m 0,0 km/h (0 Bft) N 0 0 min 0,000 mm 0,0 UV-I 0 W/m 8,9 C 13,6 C 0,0 km/h (0 Bft) 94,74 %
25.05.2017 22:05 13,8 C 21,7 C 74 % 1020,1 hPa 0,0 l/m 0,0 km/h (0 Bft) S-SW 202 0 min 0,000 mm 0,0 UV-I 0 W/m 9,2 C 13,8 C 1,6 km/h (1 Bft) 93,86 %
25.05.2017 22:12 13,6 C 21,7 C 80 % 1020,1 hPa 0,0 l/m 0,2 km/h (0 Bft) S-SW 194 0 min 0,000 mm 0,0 UV-I 0 W/m 10,2 C 13,6 C 1,6 km/h (1 Bft) 93,48 %
25.05.2017 22:14 13,4 C 21,7 C 80 % 1020,1 hPa 0,0 l/m 0,3 km/h (0 Bft) S-SW 194 0 min 0,000 mm 0,0 UV-I 0 W/m 10,0 C 13,4 C 1,6 km/h (1 Bft) 95,45 %
25.05.2017 22:16 13,4 C 21,7 C 77 % 1020,1 hPa 0,0 l/m 0,0 km/h (0 Bft) S-SW 194 0 min 0,000 mm 0,0 UV-I 0 W/m 9,5 C 13,4 C 0,0 km/h (0 Bft) 97,87 %
25.05.2017 22:18 13,4 C 21,7 C 75 % 1020,1 hPa 0,0 l/m 0,1 km/h (0 Bft) S-SW 194 0 min 0,000 mm 0,0 UV-I 0 W/m 9,1 C 13,4 C 1,6 km/h (1 Bft) 94,00 %
25.05.2017 22:20 13,5 C 21,1 C 74 % 1020,1 hPa 0,0 l/m 0,1 km/h (0 Bft) S-SW 194 0 min 0,000 mm 0,0 UV-I 0 W/m 9,0 C 13,5 C 1,6 km/h (1 Bft) 97,87 %
25.05.2017 22:23 13,7 C 21,1 C 74 % 1020,1 hPa 0,0 l/m 0,6 km/h (0 Bft) S-SW 194 0 min 0,000 mm 0,0 UV-I 0 W/m 9,2 C 13,7 C 3,2 km/h (1 Bft) 92,86 %
25.05.2017 22:24 13,7 C 21,1 C 74 % 1020,1 hPa 0,0 l/m 1,4 km/h (1 Bft) S-SW 194 0 min 0,000 mm 0,0 UV-I 0 W/m 9,2 C 13,7 C 4,8 km/h (1 Bft) 95,83 %
25.05.2017 22:26 13,8 C 21,1 C 73 % 1020,1 hPa 0,0 l/m 0,0 km/h (0 Bft) S-SW 194 0 min 0,000 mm 0,0 UV-I 0 W/m 9,0 C 13,8 C 0,0 km/h (0 Bft) 95,74 %
25.05.2017 22:28 13,8 C 21,1 C 72 % 1020,1 hPa 0,0 l/m 0,7 km/h (0 Bft) S-SW 194 0 min 0,000 mm 0,0 UV-I 0 W/m 8,8 C 13,8 C 3,2 km/h (1 Bft) 97,56 %
25.05.2017 22:30 13,8 C 21,1 C 71 % 1020,0 hPa 0,0 l/m 0,7 km/h (0 Bft) S-SW 194 0 min 0,000 mm 0,0 UV-I 0 W/m 8,6 C 13,8 C 3,2 km/h (1 Bft) 96,23 %
25.05.2017 22:33 13,8 C 21,1 C 70 % 1020,0 hPa 0,0 l/m 0,8 km/h (0 Bft) S-SW 194 0 min 0,000 mm 0,0 UV-I 0 W/m 8,4 C 13,8 C 3,2 km/h (1 Bft) 97,30 %
25.05.2017 22:34 13,8 C 21,1 C 70 % 1020,0 hPa 0,0 l/m 0,8 km/h (0 Bft) S-SW 194 0 min 0,000 mm 0,0 UV-I 0 W/m 8,4 C 13,8 C 3,2 km/h (1 Bft) 100,00 %
25.05.2017 22:36 13,9 C 21,1 C 70 % 1020,0 hPa 0,0 l/m 0,8 km/h (0 Bft) S-SW 194 0 min 0,000 mm 0,0 UV-I 0 W/m 8,5 C 13,9 C 3,2 km/h (1 Bft) 100,00 %
25.05.2017 22:39 13,9 C 21,1 C 70 % 1020,1 hPa 0,0 l/m 0,7 km/h (0 Bft) S-SW 194 0 min 0,000 mm 0,0 UV-I 0 W/m 8,5 C 13,9 C 3,2 km/h (1 Bft) 100,00 %
25.05.2017 22:40 13,9 C 21,1 C 69 % 1020,1 hPa 0,0 l/m 0,3 km/h (0 Bft) S-SW 194 0 min 0,000 mm 0,0 UV-I 0 W/m 8,3 C 13,9 C 1,6 km/h (1 Bft) 100,00 %
25.05.2017 22:44 13,9 C 21,1 C 68 % 1020,0 hPa 0,0 l/m 0,5 km/h (0 Bft) S-SW 194 0 min 0,000 mm 0,0 UV-I 0 W/m 8,1 C 13,9 C 1,6 km/h (1 Bft) 100,00 %
25.05.2017 22:46 13,9 C 21,1 C 68 % 1020,1 hPa 0,0 l/m 1,1 km/h (1 Bft) S-SW 194 0 min 0,000 mm 0,0 UV-I 0 W/m 8,1 C 13,9 C 3,2 km/h (1 Bft) 100,00 %
25.05.2017 22:49 13,9 C 21,1 C 70 % 1020,0 hPa 0,0 l/m 0,5 km/h (0 Bft) S-SW 194 0 min 0,000 mm 0,0 UV-I 0 W/m 8,5 C 13,9 C 1,6 km/h (1 Bft) 98,53 %
25.05.2017 22:50 13,9 C 21,1 C 70 % 1020,0 hPa 0,0 l/m 1,0 km/h (0 Bft) S-SW 194 0 min 0,000 mm 0,0 UV-I 0 W/m 8,5 C 13,9 C 3,2 km/h (1 Bft) 100,00 %
25.05.2017 22:54 13,8 C 21,1 C 73 % 1020,1 hPa 0,0 l/m 0,4 km/h (0 Bft) S-SW 194 0 min 0,000 mm 0,0 UV-I 0 W/m 9,0 C 13,8 C 1,6 km/h (1 Bft) 100,00 %
25.05.2017 22:56 13,8 C 21,1 C 73 % 1020,1 hPa 0,0 l/m 0,1 km/h (0 Bft) S-SW 194 0 min 0,000 mm 0,0 UV-I 0 W/m 9,0 C 13,8 C 1,6 km/h (1 Bft) 100,00 %
25.05.2017 22:59 13,7 C 21,1 C 72 % 1020,0 hPa 0,0 l/m 0,3 km/h (0 Bft) S-SW 194 0 min 0,000 mm 0,0 UV-I 0 W/m 8,7 C 13,7 C 1,6 km/h (1 Bft) 98,68 %
25.05.2017 23:00 13,7 C 21,1 C 72 % 1020,0 hPa 0,0 l/m 0,9 km/h (0 Bft) S-SW 194 0 min 0,000 mm 0,0 UV-I 0 W/m 8,7 C 13,7 C 3,2 km/h (1 Bft) 100,00 %
25.05.2017 23:04 13,7 C 21,1 C 72 % 1020,1 hPa 0,0 l/m 1,5 km/h (1 Bft) S-SW 194 0 min 0,000 mm 0,0 UV-I 0 W/m 8,7 C 13,7 C 3,2 km/h (1 Bft) 100,00 %
25.05.2017 23:06 13,7 C 21,1 C 72 % 1020,1 hPa 0,0 l/m 2,6 km/h (1 Bft) S-SW 194 0 min 0,000 mm 0,0 UV-I 0 W/m 8,7 C 13,7 C 3,2 km/h (1 Bft) 97,37 %
25.05.2017 23:09 13,7 C 21,1 C 73 % 1020,1 hPa 0,0 l/m 1,4 km/h (1 Bft) S-SW 194 0 min 0,000 mm 0,0 UV-I 0 W/m 8,9 C 13,7 C 3,2 km/h (1 Bft) 98,70 %
25.05.2017 23:10 13,7 C 21,1 C 72 % 1020,1 hPa 0,0 l/m 1,1 km/h (1 Bft) S-SW 194 0 min 0,000 mm 0,0 UV-I 0 W/m 8,7 C 13,7 C 1,6 km/h (1 Bft) 100,00 %
25.05.2017 23:14 13,6 C 21,1 C 74 % 1020,1 hPa 0,0 l/m 1,9 km/h (1 Bft) S-SW 194 0 min 0,000 mm 0,0 UV-I 0 W/m 9,1 C 13,6 C 4,8 km/h (1 Bft) 100,00 %
25.05.2017 23:16 13,5 C 21,1 C 74 % 1020,2 hPa 0,0 l/m 1,8 km/h (1 Bft) S-SW 194 0 min 0,000 mm 0,0 UV-I 0 W/m 9,0 C 13,5 C 3,2 km/h (1 Bft) 100,00 %
25.05.2017 23:19 13,4 C 21,1 C 74 % 1020,2 hPa 0,0 l/m 3,4 km/h (1 Bft) S-SW 194 0 min 0,000 mm 0,0 UV-I 0 W/m 8,9 C 13,4 C 4,8 km/h (1 Bft) 97,30 %
25.05.2017 23:20 13,4 C 21,1 C 74 % 1020,2 hPa 0,0 l/m 2,8 km/h (1 Bft) S-SW 194 0 min 0,000 mm 0,0 UV-I 0 W/m 8,9 C 13,4 C 4,8 km/h (1 Bft) 100,00 %
25.05.2017 23:24 13,5 C 21,1 C 74 % 1020,3 hPa 0,0 l/m 2,2 km/h (1 Bft) S-SW 194 0 min 0,000 mm 0,0 UV-I 0 W/m 9,0 C 13,5 C 6,4 km/h (2 Bft) 97,09 %
25.05.2017 23:26 13,5 C 21,1 C 74 % 1020,3 hPa 0,0 l/m 2,3 km/h (1 Bft) S-SW 194 0 min 0,000 mm 0,0 UV-I 0 W/m 9,0 C 13,5 C 4,8 km/h (1 Bft) 97,22 %
25.05.2017 23:29 13,6 C 21,1 C 74 % 1020,3 hPa 0,0 l/m 2,4 km/h (1 Bft) S-SW 194 0 min 0,000 mm 0,0 UV-I 0 W/m 9,1 C 13,6 C 4,8 km/h (1 Bft) 95,89 %
25.05.2017 23:30 13,6 C 21,1 C 74 % 1020,3 hPa 0,0 l/m 3,5 km/h (1 Bft) S-SW 194 0 min 0,000 mm 0,0 UV-I 0 W/m 9,1 C 13,6 C 4,8 km/h (1 Bft) 100,00 %
25.05.2017 23:34 13,6 C 21,1 C 74 % 1020,3 hPa 0,0 l/m 3,3 km/h (1 Bft) S-SW 194 0 min 0,000 mm 0,0 UV-I 0 W/m 9,1 C 13,6 C 6,4 km/h (2 Bft) 96,91 %
25.05.2017 23:36 13,6 C 21,1 C 74 % 1020,2 hPa 0,0 l/m 2,7 km/h (1 Bft) S-SW 194 0 min 0,000 mm 0,0 UV-I 0 W/m 9,1 C 13,6 C 4,8 km/h (1 Bft) 97,73 %
25.05.2017 23:39 13,5 C 21,1 C 75 % 1020,3 hPa 0,0 l/m 1,6 km/h (1 Bft) S-SW 194 0 min 0,000 mm 0,0 UV-I 0 W/m 9,2 C 13,5 C 3,2 km/h (1 Bft) 97,26 %
25.05.2017 23:40 13,5 C 21,1 C 75 % 1020,3 hPa 0,0 l/m 2,7 km/h (1 Bft) S-SW 194 0 min 0,000 mm 0,0 UV-I 0 W/m 9,2 C 13,5 C 4,8 km/h (1 Bft) 96,30 %
25.05.2017 23:44 13,5 C 21,1 C 75 % 1020,2 hPa 0,0 l/m 2,0 km/h (1 Bft) S-SW 194 0 min 0,000 mm 0,0 UV-I 0 W/m 9,2 C 13,5 C 3,2 km/h (1 Bft) 97,94 %
25.05.2017 23:46 13,5 C 21,1 C 74 % 1020,2 hPa 0,0 l/m 1,7 km/h (1 Bft) S-SW 194 0 min 0,000 mm 0,0 UV-I 0 W/m 9,0 C 13,5 C 4,8 km/h (1 Bft) 94,29 %
25.05.2017 23:49 13,6 C 21,1 C 74 % 1020,2 hPa 0,0 l/m 3,5 km/h (1 Bft) S-SW 194 0 min 0,000 mm 0,0 UV-I 0 W/m 9,1 C 13,6 C 6,4 km/h (2 Bft) 97,50 %
25.05.2017 23:50 13,6 C 21,1 C 74 % 1020,2 hPa 0,0 l/m 2,6 km/h (1 Bft) S-SW 194 0 min 0,000 mm 0,0 UV-I 0 W/m 9,1 C 13,6 C 4,8 km/h (1 Bft) 100,00 %
25.05.2017 23:54 13,6 C 21,1 C 74 % 1020,2 hPa 0,0 l/m 3,0 km/h (1 Bft) S-SW 194 0 min 0,000 mm 0,0 UV-I 0 W/m 9,1 C 13,6 C 4,8 km/h (1 Bft) 98,86 %
25.05.2017 23:56 13,6 C 21,1 C 74 % 1020,3 hPa 0,0 l/m 3,9 km/h (1 Bft) S-SW 194 0 min 0,000 mm 0,0 UV-I 0 W/m 9,1 C 13,6 C 6,4 km/h (2 Bft) 100,00 %
25.05.2017 23:59 13,6 C 21,1 C 75 % 1020,2 hPa 0,0 l/m 2,6 km/h (1 Bft) S-SW 194 0 min 0,000 mm 0,0 UV-I 0 W/m 9,3 C 13,6 C 4,8 km/h (1 Bft) 98,90 %
_ Min-Zeit 05:10 02:56 17:04 18:36 - 06:30 - - - - - - 18:32 05:10 06:34 12:02
Minimum _ 9,2 C 20,0 C 46 % 1019,1 hPa - 0,0 km/h (0 Bft) - - - - - - 6,8 C 9,2 C 0,0 km/h (0 Bft) 86,79 %
_ Max-Zeit 16:04 19:58 05:30 08:16 11:52 12:48 - - 05:26 14:02 12:54 13:48 08:26 17:10 13:16 00:02
Maximum _ 19,5 C 22,2 C 97 % 1021,4 hPa 0,2 l/m 17,0 km/h
W-SW (3 Bft)
- - 2 min 0,458 mm 6,4 UV-I 1176 W/m 10,9 C 19,4 C 29,0 km/h
SW (5 Bft)
100,00 %
Durchschnitt _ 14,3 C 20,7 C 74 % 1020,3 hPa #0,2 l/m 4,3 km/h (1 Bft) W-SW - #10:02 h #4,140 mm 2,9 UV-I 445 W/m 9,1 C 14,0 C 8,4 km/h (2 Bft) 96,78 %